Time,TemperatureF,DewpointF,PressureIn,WindDirection,WindDirectionDegrees,WindSpeedMPH,WindSpeedGustMPH,Humidity,HourlyPrecipIn,Conditions,Clouds,dailyrainin,SoftwareType,DateUTC
2013-04-01 00:01:00,49.5,40.9,29.82,WSW,249,0.0,0.0,72,0.00,,---,0.00,VWS V14.01,2013-04-01 04:01:00,
2013-04-01 00:02:00,49.5,40.9,29.82,WSW,249,0.0,2.0,72,0.00,,---,0.00,VWS V14.01,2013-04-01 04:02:00,
2013-04-01 00:03:00,49.5,40.9,29.82,WSW,249,0.0,0.0,72,0.00,,---,0.00,VWS V14.01,2013-04-01 04:03:00,
2013-04-01 00:04:00,49.5,40.9,29.82,WSW,249,0.0,1.0,72,0.00,,---,0.00,VWS V14.01,2013-04-01 04:04:00,
2013-04-01 00:05:00,49.5,40.9,29.82,WSW,249,0.0,0.0,72,0.00,,---,0.00,VWS V14.01,2013-04-01 04:05:00,
2013-04-01 00:06:00,49.5,40.9,29.82,WSW,249,0.0,0.0,72,0.00,,---,0.00,VWS V14.01,2013-04-01 04:06:00,
2013-04-01 00:07:00,49.4,41.1,29.82,WSW,249,0.0,1.0,73,0.00,,---,0.00,VWS V14.01,2013-04-01 04:07:00,
2013-04-01 00:08:00,49.4,41.1,29.82,WSW,249,1.0,2.0,73,0.00,,---,0.00,VWS V14.01,2013-04-01 04:08:00,
2013-04-01 00:09:00,49.4,41.1,29.82,WSW,249,0.0,1.0,73,0.00,,---,0.00,VWS V14.01,2013-04-01 04:09:00,
2013-04-01 00:10:00,49.4,41.1,29.82,WSW,249,0.0,0.0,73,0.00,,---,0.00,VWS V14.01,2013-04-01 04:10:00,
2013-04-01 00:11:00,49.4,41.1,29.82,WSW,249,1.0,3.0,73,0.00,,---,0.00,VWS V14.01,2013-04-01 04:11:00,
2013-04-01 00:12:00,49.4,41.1,29.82,WSW,249,0.0,2.0,73,0.00,,---,0.00,VWS V14.01,2013-04-01 04:12:00,
2013-04-01 00:13:00,49.4,41.1,29.82,WSW,249,0.0,3.0,73,0.00,,---,0.00,VWS V14.01,2013-04-01 04:13:00,
2013-04-01 00:14:00,49.4,41.1,29.82,WSW,249,0.0,0.0,73,0.00,,---,0.00,VWS V14.01,2013-04-01 04:14:00,
2013-04-01 00:15:00,49.4,41.1,29.82,WSW,249,0.0,0.0,73,0.00,,---,0.00,VWS V14.01,2013-04-01 04:15:00,
2013-04-01 00:16:00,49.4,41.1,29.82,WSW,249,0.0,1.0,73,0.00,,---,0.00,VWS V14.01,2013-04-01 04:16:00,
2013-04-01 00:17:00,49.4,41.1,29.82,WSW,249,0.0,0.0,73,0.00,,---,0.00,VWS V14.01,2013-04-01 04:17:00,
2013-04-01 00:18:00,49.3,41.0,29.82,WSW,249,0.0,0.0,73,0.00,,---,0.00,VWS V14.01,2013-04-01 04:18:00,
2013-04-01 00:19:00,49.3,41.0,29.82,WSW,249,0.0,2.0,73,0.00,,---,0.00,VWS V14.01,2013-04-01 04:19:00,
2013-04-01 00:20:00,49.3,41.0,29.82,WSW,249,0.0,0.0,73,0.00,,---,0.00,VWS V14.01,2013-04-01 04:20:00,
2013-04-01 00:21:00,49.2,40.9,29.82,WSW,249,0.0,0.0,73,0.00,,---,0.00,VWS V14.01,2013-04-01 04:21:00,
2013-04-01 00:22:00,49.2,40.9,29.82,WSW,249,0.0,0.0,73,0.00,,---,0.00,VWS V14.01,2013-04-01 04:22:00,
2013-04-01 00:23:00,49.2,40.9,29.82,WSW,249,0.0,0.0,73,0.00,,---,0.00,VWS V14.01,2013-04-01 04:23:00,
2013-04-01 00:24:00,49.1,40.8,29.82,WSW,249,0.0,1.0,73,0.00,,---,0.00,VWS V14.01,2013-04-01 04:24:00,
2013-04-01 00:25:00,49.1,41.2,29.82,WSW,249,0.0,0.0,74,0.00,,---,0.00,VWS V14.01,2013-04-01 04:25:00,
2013-04-01 00:26:00,49.1,41.2,29.82,WSW,249,0.0,0.0,74,0.00,,---,0.00,VWS V14.01,2013-04-01 04:26:00,
2013-04-01 00:27:00,49.0,41.1,29.82,WSW,249,0.0,0.0,74,0.00,,---,0.00,VWS V14.01,2013-04-01 04:27:00,
2013-04-01 00:28:00,48.9,41.0,29.82,WSW,249,0.0,0.0,74,0.00,,---,0.00,VWS V14.01,2013-04-01 04:28:00,
2013-04-01 00:29:00,48.9,41.0,29.81,WSW,249,0.0,1.0,74,0.00,,---,0.00,VWS V14.01,2013-04-01 04:29:00,
2013-04-01 00:30:00,48.8,40.9,29.81,WSW,249,0.0,0.0,74,0.00,,---,0.00,VWS V14.01,2013-04-01 04:30:00,
2013-04-01 00:31:00,48.8,40.9,29.81,WSW,249,0.0,0.0,74,0.00,,---,0.00,VWS V14.01,2013-04-01 04:31:00,
2013-04-01 00:32:00,48.7,40.8,29.81,WSW,249,0.0,1.0,74,0.00,,---,0.00,VWS V14.01,2013-04-01 04:32:00,
2013-04-01 00:33:00,48.6,40.7,29.81,WSW,249,0.0,0.0,74,0.00,,---,0.00,VWS V14.01,2013-04-01 04:33:00,
2013-04-01 00:34:00,48.6,40.7,29.81,WSW,249,0.0,0.0,74,0.00,,---,0.00,VWS V14.01,2013-04-01 04:34:00,
2013-04-01 00:35:00,48.6,40.7,29.81,WSW,249,0.0,0.0,74,0.00,,---,0.00,VWS V14.01,2013-04-01 04:35:00,
2013-04-01 00:36:00,48.5,41.0,29.81,WSW,249,0.0,1.0,75,0.00,,---,0.00,VWS V14.01,2013-04-01 04:36:00,
2013-04-01 00:37:00,48.4,40.8,29.81,WSW,249,0.0,1.0,75,0.00,,---,0.00,VWS V14.01,2013-04-01 04:37:00,
2013-04-01 00:38:00,48.5,41.0,29.81,WSW,249,0.0,0.0,75,0.00,,---,0.00,VWS V14.01,2013-04-01 04:38:00,
2013-04-01 00:39:00,48.4,40.8,29.81,WSW,249,1.0,3.0,75,0.00,,---,0.00,VWS V14.01,2013-04-01 04:39:00,
2013-04-01 00:40:00,48.3,40.8,29.81,WSW,249,0.0,1.0,75,0.00,,---,0.00,VWS V14.01,2013-04-01 04:40:00,
2013-04-01 00:41:00,48.3,40.8,29.81,WSW,249,0.0,0.0,75,0.00,,---,0.00,VWS V14.01,2013-04-01 04:41:00,
2013-04-01 00:42:00,48.3,40.8,29.81,WSW,249,0.0,0.0,75,0.00,,---,0.00,VWS V14.01,2013-04-01 04:42:00,
2013-04-01 00:43:00,48.2,40.7,29.81,WSW,249,0.0,0.0,75,0.00,,---,0.00,VWS V14.01,2013-04-01 04:43:00,
2013-04-01 00:44:00,48.2,40.7,29.81,WSW,249,0.0,3.0,75,0.00,,---,0.00,VWS V14.01,2013-04-01 04:44:00,
2013-04-01 00:45:00,48.2,41.0,29.81,WSW,248,2.0,4.0,76,0.00,,---,0.00,VWS V14.01,2013-04-01 04:45:00,
2013-04-01 00:46:00,48.2,41.0,29.81,WSW,249,2.0,4.0,76,0.00,,---,0.00,VWS V14.01,2013-04-01 04:46:00,
2013-04-01 00:47:00,48.2,41.0,29.81,WSW,249,1.0,2.0,76,0.00,,---,0.00,VWS V14.01,2013-04-01 04:47:00,
2013-04-01 00:48:00,48.2,41.0,29.81,WSW,249,0.0,1.0,76,0.00,,---,0.00,VWS V14.01,2013-04-01 04:48:00,
2013-04-01 00:49:00,48.3,41.1,29.81,WSW,249,0.0,1.0,76,0.00,,---,0.00,VWS V14.01,2013-04-01 04:49:00,
2013-04-01 00:50:00,48.3,41.1,29.81,WSW,249,0.0,0.0,76,0.00,,---,0.00,VWS V14.01,2013-04-01 04:50:00,
2013-04-01 00:51:00,48.3,41.1,29.81,WSW,249,0.0,0.0,76,0.00,,---,0.00,VWS V14.01,2013-04-01 04:51:00,
2013-04-01 00:52:00,48.2,41.0,29.81,WSW,249,0.0,0.0,76,0.00,,---,0.00,VWS V14.01,2013-04-01 04:52:00,
2013-04-01 00:53:00,48.1,40.9,29.81,WSW,249,0.0,1.0,76,0.00,,---,0.00,VWS V14.01,2013-04-01 04:53:00,
2013-04-01 00:54:00,48.1,40.9,29.81,WSW,249,0.0,1.0,76,0.00,,---,0.00,VWS V14.01,2013-04-01 04:54:00,
2013-04-01 00:55:00,48.1,40.9,29.81,WSW,249,1.0,3.0,76,0.00,,---,0.00,VWS V14.01,2013-04-01 04:55:00,
2013-04-01 00:56:00,48.1,41.2,29.81,WSW,249,0.0,1.0,77,0.00,,---,0.00,VWS V14.01,2013-04-01 04:56:00,
2013-04-01 00:57:00,48.1,41.2,29.81,WSW,249,0.0,1.0,77,0.00,,---,0.00,VWS V14.01,2013-04-01 04:57:00,
2013-04-01 00:58:00,48.1,41.2,29.81,WSW,249,0.0,1.0,77,0.00,,---,0.00,VWS V14.01,2013-04-01 04:58:00,
2013-04-01 00:59:00,48.1,41.2,29.81,West,261,0.0,2.0,77,0.00,,---,0.00,VWS V14.01,2013-04-01 04:59:00,
2013-04-01 01:00:00,48.1,41.2,29.81,West,261,0.0,2.0,77,0.00,,---,0.00,VWS V14.01,2013-04-01 05:00:00,
2013-04-01 01:01:00,48.1,41.2,29.81,West,261,0.0,0.0,77,0.00,,---,0.00,VWS V14.01,2013-04-01 05:01:00,
2013-04-01 01:02:00,48.2,41.3,29.81,West,261,0.0,1.0,77,0.00,,---,0.00,VWS V14.01,2013-04-01 05:02:00,
2013-04-01 01:03:00,48.2,41.0,29.81,West,261,0.0,0.0,76,0.00,,---,0.00,VWS V14.01,2013-04-01 05:03:00,
2013-04-01 01:04:00,48.1,40.9,29.81,West,261,0.0,0.0,76,0.00,,---,0.00,VWS V14.01,2013-04-01 05:04:00,
2013-04-01 01:05:00,48.1,40.9,29.81,West,261,0.0,1.0,76,0.00,,---,0.00,VWS V14.01,2013-04-01 05:05:00,
2013-04-01 01:06:00,48.1,40.9,29.81,West,261,0.0,0.0,76,0.00,,---,0.00,VWS V14.01,2013-04-01 05:06:00,
2013-04-01 01:07:00,48.0,40.8,29.81,West,261,0.0,0.0,76,0.00,,---,0.00,VWS V14.01,2013-04-01 05:07:00,
2013-04-01 01:08:00,47.9,40.7,29.81,West,261,0.0,0.0,76,0.00,,---,0.00,VWS V14.01,2013-04-01 05:08:00,
2013-04-01 01:09:00,47.9,40.7,29.82,West,261,0.0,0.0,76,0.00,,---,0.00,VWS V14.01,2013-04-01 05:09:00,
2013-04-01 01:10:00,47.8,40.6,29.81,West,261,0.0,0.0,76,0.00,,---,0.00,VWS V14.01,2013-04-01 05:10:00,
2013-04-01 01:11:00,47.7,40.8,29.81,West,261,0.0,1.0,77,0.00,,---,0.00,VWS V14.01,2013-04-01 05:11:00,
2013-04-01 01:12:00,47.7,40.8,29.81,West,261,0.0,0.0,77,0.00,,---,0.00,VWS V14.01,2013-04-01 05:12:00,
2013-04-01 01:13:00,47.7,40.8,29.81,West,260,1.0,1.0,77,0.00,,---,0.00,VWS V14.01,2013-04-01 05:13:00,
2013-04-01 01:14:00,47.6,40.8,29.81,WSW,257,0.0,4.0,77,0.00,,---,0.00,VWS V14.01,2013-04-01 05:14:00,
2013-04-01 01:15:00,47.7,41.2,29.81,WSW,257,0.0,2.0,78,0.00,,---,0.00,VWS V14.01,2013-04-01 05:15:00,
2013-04-01 01:16:00,47.7,41.2,29.81,WSW,257,0.0,0.0,78,0.00,,---,0.00,VWS V14.01,2013-04-01 05:16:00,
2013-04-01 01:17:00,47.8,41.3,29.82,WSW,252,1.0,3.0,78,0.00,,---,0.00,VWS V14.01,2013-04-01 05:17:00,
2013-04-01 01:18:00,47.8,41.3,29.81,WSW,252,0.0,2.0,78,0.00,,---,0.00,VWS V14.01,2013-04-01 05:18:00,
2013-04-01 01:19:00,47.8,41.3,29.81,WSW,253,4.0,7.0,78,0.00,,---,0.00,VWS V14.01,2013-04-01 05:19:00,
2013-04-01 01:20:00,47.9,41.4,29.82,NW,306,7.0,7.0,78,0.00,,---,0.00,VWS V14.01,2013-04-01 05:20:00,
2013-04-01 01:21:00,48.1,41.6,29.82,West,263,4.0,7.0,78,0.00,,---,0.00,VWS V14.01,2013-04-01 05:21:00,
2013-04-01 01:22:00,48.2,41.7,29.82,WSW,249,0.0,5.0,78,0.00,,---,0.00,VWS V14.01,2013-04-01 05:22:00,
2013-04-01 01:23:00,48.4,41.5,29.82,West,275,2.0,2.0,77,0.00,,---,0.00,VWS V14.01,2013-04-01 05:23:00,
2013-04-01 01:24:00,48.5,41.6,29.82,WSW,252,0.0,5.0,77,0.00,,---,0.00,VWS V14.01,2013-04-01 05:24:00,
2013-04-01 01:25:00,48.6,41.7,29.82,WSW,252,0.0,0.0,77,0.00,,---,0.00,VWS V14.01,2013-04-01 05:25:00,
2013-04-01 01:26:00,48.6,41.7,29.82,WSW,247,2.0,3.0,77,0.00,,---,0.00,VWS V14.01,2013-04-01 05:26:00,
2013-04-01 01:27:00,48.7,41.5,29.82,WSW,248,0.0,2.0,76,0.00,,---,0.00,VWS V14.01,2013-04-01 05:27:00,
2013-04-01 01:28:00,48.7,41.5,29.82,WSW,248,1.0,1.0,76,0.00,,---,0.00,VWS V14.01,2013-04-01 05:28:00,
2013-04-01 01:29:00,48.7,41.5,29.82,WSW,252,1.0,1.0,76,0.00,,---,0.00,VWS V14.01,2013-04-01 05:29:00,
2013-04-01 01:30:00,48.7,41.5,29.82,WSW,255,2.0,3.0,76,0.00,,---,0.00,VWS V14.01,2013-04-01 05:30:00,
2013-04-01 01:31:00,48.7,41.5,29.82,WSW,255,2.0,4.0,76,0.00,,---,0.00,VWS V14.01,2013-04-01 05:31:00,
2013-04-01 01:32:00,48.7,41.5,29.82,WNW,285,0.0,4.0,76,0.00,,---,0.00,VWS V14.01,2013-04-01 05:32:00,
2013-04-01 01:33:00,48.7,41.5,29.82,WNW,294,0.0,1.0,76,0.00,,---,0.00,VWS V14.01,2013-04-01 05:33:00,
2013-04-01 01:34:00,48.7,41.5,29.83,WNW,294,0.0,0.0,76,0.00,,---,0.00,VWS V14.01,2013-04-01 05:34:00,
2013-04-01 01:35:00,48.6,41.4,29.83,WNW,294,0.0,1.0,76,0.00,,---,0.00,VWS V14.01,2013-04-01 05:35:00,
2013-04-01 01:36:00,48.6,41.4,29.82,WNW,294,0.0,0.0,76,0.00,,---,0.00,VWS V14.01,2013-04-01 05:36:00,
2013-04-01 01:37:00,48.5,41.3,29.83,WNW,290,0.0,0.0,76,0.00,,---,0.00,VWS V14.01,2013-04-01 05:37:00,
2013-04-01 01:38:00,48.5,41.6,29.83,WNW,290,0.0,1.0,77,0.00,,---,0.00,VWS V14.01,2013-04-01 05:38:00,
2013-04-01 01:39:00,48.4,41.5,29.83,WNW,290,0.0,0.0,77,0.00,,---,0.00,VWS V14.01,2013-04-01 05:39:00,
2013-04-01 01:40:00,48.4,41.9,29.82,NNW,331,1.0,5.0,78,0.00,,---,0.00,VWS V14.01,2013-04-01 05:40:00,
2013-04-01 01:41:00,48.4,41.9,29.82,NNW,330,0.0,1.0,78,0.00,,---,0.00,VWS V14.01,2013-04-01 05:41:00,
2013-04-01 01:42:00,48.4,41.9,29.83,NNW,330,0.0,0.0,78,0.00,,---,0.00,VWS V14.01,2013-04-01 05:42:00,
2013-04-01 01:43:00,48.4,41.9,29.82,NNW,330,0.0,2.0,78,0.00,,---,0.00,VWS V14.01,2013-04-01 05:43:00,
2013-04-01 01:44:00,48.4,41.9,29.82,NNW,330,0.0,0.0,78,0.00,,---,0.00,VWS V14.01,2013-04-01 05:44:00,
2013-04-01 01:45:00,48.4,41.9,29.82,WNW,291,0.0,2.0,78,0.00,,---,0.00,VWS V14.01,2013-04-01 05:45:00,
2013-04-01 01:46:00,48.4,41.9,29.82,WNW,298,3.0,5.0,78,0.00,,---,0.00,VWS V14.01,2013-04-01 05:46:00,
2013-04-01 01:47:00,48.4,41.9,29.82,WNW,300,0.0,2.0,78,0.00,,---,0.00,VWS V14.01,2013-04-01 05:47:00,
2013-04-01 01:48:00,48.5,42.0,29.83,WNW,300,0.0,0.0,78,0.00,,---,0.00,VWS V14.01,2013-04-01 05:48:00,
2013-04-01 01:49:00,48.5,42.0,29.82,WNW,300,0.0,1.0,78,0.00,,---,0.00,VWS V14.01,2013-04-01 05:49:00,
2013-04-01 01:50:00,48.5,42.0,29.83,WNW,296,0.0,2.0,78,0.00,,---,0.00,VWS V14.01,2013-04-01 05:50:00,
2013-04-01 01:51:00,48.5,42.0,29.83,West,276,1.0,5.0,78,0.00,,---,0.00,VWS V14.01,2013-04-01 05:51:00,
2013-04-01 01:52:00,48.5,42.0,29.83,West,277,0.0,1.0,78,0.00,,---,0.00,VWS V14.01,2013-04-01 05:52:00,
2013-04-01 01:53:00,48.5,42.0,29.83,West,269,1.0,2.0,78,0.00,,---,0.00,VWS V14.01,2013-04-01 05:53:00,
2013-04-01 01:54:00,48.5,42.0,29.83,West,269,0.0,1.0,78,0.00,,---,0.00,VWS V14.01,2013-04-01 05:54:00,
2013-04-01 01:55:00,48.5,42.0,29.83,West,269,0.0,1.0,78,0.00,,---,0.00,VWS V14.01,2013-04-01 05:55:00,
2013-04-01 01:56:00,48.4,41.9,29.83,West,269,0.0,0.0,78,0.00,,---,0.00,VWS V14.01,2013-04-01 05:56:00,
2013-04-01 01:57:00,48.4,41.9,29.83,NW,313,2.0,5.0,78,0.00,,---,0.00,VWS V14.01,2013-04-01 05:57:00,
2013-04-01 01:58:00,48.4,41.9,29.83,WSW,239,0.0,2.0,78,0.00,,---,0.00,VWS V14.01,2013-04-01 05:58:00,
2013-04-01 01:59:00,48.4,41.9,29.83,SW,236,2.0,4.0,78,0.00,,---,0.00,VWS V14.01,2013-04-01 05:59:00,
2013-04-01 02:00:00,48.3,41.8,29.83,SW,236,0.0,1.0,78,0.00,,---,0.00,VWS V14.01,2013-04-01 06:00:00,
2013-04-01 02:01:00,48.3,41.8,29.83,SW,236,0.0,1.0,78,0.00,,---,0.00,VWS V14.01,2013-04-01 06:01:00,
2013-04-01 02:02:00,48.2,41.7,29.83,SW,236,0.0,0.0,78,0.00,,---,0.00,VWS V14.01,2013-04-01 06:02:00,
2013-04-01 02:03:00,48.2,41.7,29.83,SW,236,0.0,0.0,78,0.00,,---,0.00,VWS V14.01,2013-04-01 06:03:00,
2013-04-01 02:04:00,48.2,41.7,29.83,SW,236,0.0,0.0,78,0.00,,---,0.00,VWS V14.01,2013-04-01 06:04:00,
2013-04-01 02:05:00,48.1,41.6,29.83,SW,236,0.0,1.0,78,0.00,,---,0.00,VWS V14.01,2013-04-01 06:05:00,
2013-04-01 02:06:00,48.1,41.6,29.83,SW,236,0.0,0.0,78,0.00,,---,0.00,VWS V14.01,2013-04-01 06:06:00,
2013-04-01 02:07:00,48.1,41.9,29.83,SW,236,0.0,0.0,79,0.00,,---,0.00,VWS V14.01,2013-04-01 06:07:00,
2013-04-01 02:08:00,48.1,41.9,29.83,SW,236,0.0,0.0,79,0.00,,---,0.00,VWS V14.01,2013-04-01 06:08:00,
2013-04-01 02:09:00,48.0,41.8,29.83,SW,236,0.0,1.0,79,0.00,,---,0.00,VWS V14.01,2013-04-01 06:09:00,
2013-04-01 02:10:00,48.0,41.8,29.83,SW,236,0.0,0.0,79,0.00,,---,0.00,VWS V14.01,2013-04-01 06:10:00,
2013-04-01 02:11:00,47.9,41.7,29.83,SW,236,0.0,0.0,79,0.00,,---,0.00,VWS V14.01,2013-04-01 06:11:00,
2013-04-01 02:12:00,47.9,41.7,29.83,SW,236,0.0,0.0,79,0.00,,---,0.00,VWS V14.01,2013-04-01 06:12:00,
2013-04-01 02:13:00,47.9,41.7,29.83,SW,236,0.0,1.0,79,0.00,,---,0.00,VWS V14.01,2013-04-01 06:13:00,
2013-04-01 02:14:00,47.8,41.6,29.83,SW,236,0.0,1.0,79,0.00,,---,0.00,VWS V14.01,2013-04-01 06:14:00,
2013-04-01 02:15:00,47.8,41.6,29.83,SW,236,0.0,0.0,79,0.00,,---,0.00,VWS V14.01,2013-04-01 06:15:00,
2013-04-01 02:16:00,47.7,41.5,29.83,SW,236,0.0,0.0,79,0.00,,---,0.00,VWS V14.01,2013-04-01 06:16:00,
2013-04-01 02:17:00,47.7,41.5,29.83,SW,236,0.0,1.0,79,0.00,,---,0.00,VWS V14.01,2013-04-01 06:17:00,
2013-04-01 02:18:00,47.6,41.4,29.83,SW,236,0.0,0.0,79,0.00,,---,0.00,VWS V14.01,2013-04-01 06:18:00,
2013-04-01 02:19:00,47.6,41.4,29.83,SW,236,0.0,0.0,79,0.00,,---,0.00,VWS V14.01,2013-04-01 06:19:00,
2013-04-01 02:20:00,47.5,41.3,29.83,SW,236,0.0,0.0,79,0.00,,---,0.00,VWS V14.01,2013-04-01 06:20:00,
2013-04-01 02:21:00,47.5,41.3,29.83,SW,236,0.0,0.0,79,0.00,,---,0.00,VWS V14.01,2013-04-01 06:21:00,
2013-04-01 02:22:00,47.4,41.2,29.83,SW,236,0.0,0.0,79,0.00,,---,0.00,VWS V14.01,2013-04-01 06:22:00,
2013-04-01 02:23:00,47.4,41.2,29.83,SW,236,0.0,0.0,79,0.00,,---,0.00,VWS V14.01,2013-04-01 06:23:00,
2013-04-01 02:24:00,47.4,41.2,29.84,SW,236,0.0,0.0,79,0.00,,---,0.00,VWS V14.01,2013-04-01 06:24:00,
2013-04-01 02:25:00,47.3,41.5,29.84,SW,236,0.0,1.0,80,0.00,,---,0.00,VWS V14.01,2013-04-01 06:25:00,
2013-04-01 02:26:00,47.3,41.5,29.84,SW,236,0.0,0.0,80,0.00,,---,0.00,VWS V14.01,2013-04-01 06:26:00,
2013-04-01 02:27:00,47.2,41.4,29.84,SW,236,0.0,0.0,80,0.00,,---,0.00,VWS V14.01,2013-04-01 06:27:00,
2013-04-01 02:28:00,47.2,41.4,29.84,SW,236,0.0,0.0,80,0.00,,---,0.00,VWS V14.01,2013-04-01 06:28:00,
2013-04-01 02:29:00,47.1,41.3,29.84,SW,236,0.0,0.0,80,0.00,,---,0.00,VWS V14.01,2013-04-01 06:29:00,
2013-04-01 02:30:00,47.1,41.3,29.84,SW,236,0.0,0.0,80,0.00,,---,0.00,VWS V14.01,2013-04-01 06:30:00,
2013-04-01 02:31:00,47.0,41.2,29.84,SW,236,0.0,1.0,80,0.00,,---,0.00,VWS V14.01,2013-04-01 06:31:00,
2013-04-01 02:32:00,47.0,41.2,29.84,SW,236,0.0,0.0,80,0.00,,---,0.00,VWS V14.01,2013-04-01 06:32:00,
2013-04-01 02:33:00,47.0,41.2,29.83,SW,236,0.0,1.0,80,0.00,,---,0.00,VWS V14.01,2013-04-01 06:33:00,
2013-04-01 02:34:00,46.9,41.1,29.83,SW,236,0.0,0.0,80,0.00,,---,0.00,VWS V14.01,2013-04-01 06:34:00,
2013-04-01 02:35:00,46.9,41.4,29.83,SW,236,0.0,0.0,81,0.00,,---,0.00,VWS V14.01,2013-04-01 06:35:00,
2013-04-01 02:36:00,46.9,41.4,29.84,SW,236,0.0,0.0,81,0.00,,---,0.00,VWS V14.01,2013-04-01 06:36:00,
2013-04-01 02:37:00,46.9,41.4,29.83,SW,236,0.0,0.0,81,0.00,,---,0.00,VWS V14.01,2013-04-01 06:37:00,
2013-04-01 02:38:00,46.9,41.1,29.83,SW,236,0.0,0.0,80,0.00,,---,0.00,VWS V14.01,2013-04-01 06:38:00,
2013-04-01 02:39:00,46.8,41.3,29.83,SW,236,0.0,1.0,81,0.00,,---,0.00,VWS V14.01,2013-04-01 06:39:00,
2013-04-01 02:40:00,46.8,41.3,29.83,SW,236,0.0,0.0,81,0.00,,---,0.00,VWS V14.01,2013-04-01 06:40:00,
2013-04-01 02:41:00,46.8,41.3,29.83,SW,236,0.0,0.0,81,0.00,,---,0.00,VWS V14.01,2013-04-01 06:41:00,
2013-04-01 02:42:00,46.7,41.2,29.83,SW,236,0.0,0.0,81,0.00,,---,0.00,VWS V14.01,2013-04-01 06:42:00,
2013-04-01 02:43:00,46.7,41.2,29.83,SW,236,0.0,0.0,81,0.00,,---,0.00,VWS V14.01,2013-04-01 06:43:00,
2013-04-01 02:44:00,46.6,41.1,29.83,SW,236,0.0,0.0,81,0.00,,---,0.00,VWS V14.01,2013-04-01 06:44:00,
2013-04-01 02:45:00,46.6,41.1,29.83,SW,236,0.0,0.0,81,0.00,,---,0.00,VWS V14.01,2013-04-01 06:45:00,
2013-04-01 02:46:00,46.5,41.0,29.83,SW,236,0.0,0.0,81,0.00,,---,0.00,VWS V14.01,2013-04-01 06:46:00,
2013-04-01 02:47:00,46.5,41.0,29.83,SW,236,0.0,0.0,81,0.00,,---,0.00,VWS V14.01,2013-04-01 06:47:00,
2013-04-01 02:48:00,46.4,40.9,29.84,SW,236,0.0,0.0,81,0.00,,---,0.00,VWS V14.01,2013-04-01 06:48:00,
2013-04-01 02:49:00,46.4,40.9,29.83,SW,236,0.0,0.0,81,0.00,,---,0.00,VWS V14.01,2013-04-01 06:49:00,
2013-04-01 02:50:00,46.3,40.8,29.84,SW,236,0.0,0.0,81,0.00,,---,0.00,VWS V14.01,2013-04-01 06:50:00,
2013-04-01 02:51:00,46.3,40.8,29.83,SW,236,0.0,0.0,81,0.00,,---,0.00,VWS V14.01,2013-04-01 06:51:00,
2013-04-01 02:52:00,46.3,40.8,29.83,SW,236,0.0,0.0,81,0.00,,---,0.00,VWS V14.01,2013-04-01 06:52:00,
2013-04-01 02:53:00,46.2,40.7,29.83,SW,236,0.0,0.0,81,0.00,,---,0.00,VWS V14.01,2013-04-01 06:53:00,
2013-04-01 02:54:00,46.1,40.9,29.83,SW,236,0.0,0.0,82,0.00,,---,0.00,VWS V14.01,2013-04-01 06:54:00,
2013-04-01 02:55:00,46.1,40.9,29.83,SW,236,0.0,0.0,82,0.00,,---,0.00,VWS V14.01,2013-04-01 06:55:00,
2013-04-01 02:56:00,46.1,40.9,29.83,SW,236,0.0,0.0,82,0.00,,---,0.00,VWS V14.01,2013-04-01 06:56:00,
2013-04-01 02:57:00,46.0,40.8,29.83,SW,236,0.0,0.0,82,0.00,,---,0.00,VWS V14.01,2013-04-01 06:57:00,
2013-04-01 02:58:00,46.0,40.8,29.83,SW,236,0.0,0.0,82,0.00,,---,0.00,VWS V14.01,2013-04-01 06:58:00,
2013-04-01 02:59:00,45.9,40.7,29.83,SW,236,0.0,0.0,82,0.00,,---,0.00,VWS V14.01,2013-04-01 06:59:00,
2013-04-01 03:00:00,45.9,40.7,29.84,SW,236,0.0,0.0,82,0.00,,---,0.00,VWS V14.01,2013-04-01 07:00:00,
2013-04-01 03:01:00,45.9,40.7,29.84,SW,236,0.0,0.0,82,0.00,,---,0.00,VWS V14.01,2013-04-01 07:01:00,
2013-04-01 03:02:00,45.8,40.6,29.84,SW,236,0.0,0.0,82,0.00,,---,0.00,VWS V14.01,2013-04-01 07:02:00,
2013-04-01 03:03:00,45.8,40.6,29.84,SW,236,0.0,0.0,82,0.00,,---,0.00,VWS V14.01,2013-04-01 07:03:00,
2013-04-01 03:04:00,45.8,40.6,29.84,SW,236,0.0,0.0,82,0.00,,---,0.00,VWS V14.01,2013-04-01 07:04:00,
2013-04-01 03:05:00,45.7,40.5,29.84,SW,236,0.0,0.0,82,0.00,,---,0.00,VWS V14.01,2013-04-01 07:05:00,
2013-04-01 03:06:00,45.7,40.5,29.84,SW,236,0.0,0.0,82,0.00,,---,0.00,VWS V14.01,2013-04-01 07:06:00,
2013-04-01 03:07:00,45.6,40.4,29.84,SW,236,0.0,0.0,82,0.00,,---,0.00,VWS V14.01,2013-04-01 07:07:00,
2013-04-01 03:08:00,45.6,40.4,29.84,SW,236,0.0,1.0,82,0.00,,---,0.00,VWS V14.01,2013-04-01 07:08:00,
2013-04-01 03:09:00,45.6,40.7,29.84,SW,236,0.0,0.0,83,0.00,,---,0.00,VWS V14.01,2013-04-01 07:09:00,
2013-04-01 03:10:00,45.6,40.4,29.84,SW,236,0.0,1.0,82,0.00,,---,0.00,VWS V14.01,2013-04-01 07:10:00,
2013-04-01 03:11:00,45.5,40.3,29.84,SW,236,0.0,0.0,82,0.00,,---,0.00,VWS V14.01,2013-04-01 07:11:00,
2013-04-01 03:12:00,45.6,40.4,29.84,SW,236,0.0,0.0,82,0.00,,---,0.00,VWS V14.01,2013-04-01 07:12:00,
2013-04-01 03:13:00,45.5,40.3,29.84,SW,236,0.0,1.0,82,0.00,,---,0.00,VWS V14.01,2013-04-01 07:13:00,
2013-04-01 03:14:00,45.5,40.3,29.84,SW,236,0.0,0.0,82,0.00,,---,0.00,VWS V14.01,2013-04-01 07:14:00,
2013-04-01 03:15:00,45.5,40.3,29.84,SW,236,0.0,0.0,82,0.00,,---,0.00,VWS V14.01,2013-04-01 07:15:00,
2013-04-01 03:16:00,45.5,40.3,29.84,West,270,0.0,4.0,82,0.00,,---,0.00,VWS V14.01,2013-04-01 07:16:00,
2013-04-01 03:17:00,45.5,40.3,29.84,West,270,0.0,0.0,82,0.00,,---,0.00,VWS V14.01,2013-04-01 07:17:00,
2013-04-01 03:18:00,45.4,40.2,29.84,West,270,0.0,0.0,82,0.00,,---,0.00,VWS V14.01,2013-04-01 07:18:00,
2013-04-01 03:19:00,45.4,40.2,29.84,West,270,0.0,0.0,82,0.00,,---,0.00,VWS V14.01,2013-04-01 07:19:00,
2013-04-01 03:20:00,45.4,40.2,29.84,West,270,0.0,0.0,82,0.00,,---,0.00,VWS V14.01,2013-04-01 07:20:00,
2013-04-01 03:21:00,45.3,40.1,29.84,WNW,303,1.0,3.0,82,0.00,,---,0.00,VWS V14.01,2013-04-01 07:21:00,
2013-04-01 03:22:00,45.3,40.1,29.84,WNW,303,0.0,2.0,82,0.00,,---,0.00,VWS V14.01,2013-04-01 07:22:00,
2013-04-01 03:23:00,45.3,40.1,29.84,WNW,303,0.0,0.0,82,0.00,,---,0.00,VWS V14.01,2013-04-01 07:23:00,
2013-04-01 03:24:00,45.2,40.0,29.84,WNW,303,0.0,0.0,82,0.00,,---,0.00,VWS V14.01,2013-04-01 07:24:00,
2013-04-01 03:25:00,45.2,40.0,29.84,WNW,303,0.0,1.0,82,0.00,,---,0.00,VWS V14.01,2013-04-01 07:25:00,
2013-04-01 03:26:00,45.2,40.0,29.84,NW,304,2.0,2.0,82,0.00,,---,0.00,VWS V14.01,2013-04-01 07:26:00,
2013-04-01 03:27:00,45.2,40.0,29.85,NW,304,0.0,3.0,82,0.00,,---,0.00,VWS V14.01,2013-04-01 07:27:00,
2013-04-01 03:28:00,45.1,39.9,29.84,NW,304,0.0,1.0,82,0.00,,---,0.00,VWS V14.01,2013-04-01 07:28:00,
2013-04-01 03:29:00,45.1,39.9,29.85,NW,304,0.0,0.0,82,0.00,,---,0.00,VWS V14.01,2013-04-01 07:29:00,
2013-04-01 03:30:00,45.1,39.9,29.85,WNW,303,0.0,1.0,82,0.00,,---,0.00,VWS V14.01,2013-04-01 07:30:00,
2013-04-01 03:31:00,45.0,39.8,29.85,NW,318,2.0,3.0,82,0.00,,---,0.00,VWS V14.01,2013-04-01 07:31:00,
2013-04-01 03:32:00,45.0,39.5,29.85,NW,316,3.0,4.0,81,0.00,,---,0.00,VWS V14.01,2013-04-01 07:32:00,
2013-04-01 03:33:00,45.1,39.9,29.85,NW,313,0.0,3.0,82,0.00,,---,0.00,VWS V14.01,2013-04-01 07:33:00,
2013-04-01 03:34:00,45.1,39.9,29.85,NW,313,0.0,0.0,82,0.00,,---,0.00,VWS V14.01,2013-04-01 07:34:00,
2013-04-01 03:35:00,45.1,39.9,29.85,NNW,327,3.0,4.0,82,0.00,,---,0.00,VWS V14.01,2013-04-01 07:35:00,
2013-04-01 03:36:00,45.1,39.6,29.85,NW,325,0.0,4.0,81,0.00,,---,0.00,VWS V14.01,2013-04-01 07:36:00,
2013-04-01 03:37:00,45.1,39.6,29.85,NW,325,0.0,1.0,81,0.00,,---,0.00,VWS V14.01,2013-04-01 07:37:00,
2013-04-01 03:38:00,45.2,39.7,29.85,NW,325,0.0,1.0,81,0.00,,---,0.00,VWS V14.01,2013-04-01 07:38:00,
2013-04-01 03:39:00,45.2,39.7,29.85,NW,325,0.0,0.0,81,0.00,,---,0.00,VWS V14.01,2013-04-01 07:39:00,
2013-04-01 03:40:00,45.2,39.7,29.85,NW,305,3.0,5.0,81,0.00,,---,0.00,VWS V14.01,2013-04-01 07:40:00,
2013-04-01 03:41:00,45.3,39.8,29.85,West,267,0.0,3.0,81,0.00,,---,0.00,VWS V14.01,2013-04-01 07:41:00,
2013-04-01 03:42:00,45.3,39.8,29.85,WNW,283,1.0,2.0,81,0.00,,---,0.00,VWS V14.01,2013-04-01 07:42:00,
2013-04-01 03:43:00,45.3,39.5,29.85,NNW,331,0.0,4.0,80,0.00,,---,0.00,VWS V14.01,2013-04-01 07:43:00,
2013-04-01 03:44:00,45.3,39.5,29.85,NW,324,0.0,2.0,80,0.00,,---,0.00,VWS V14.01,2013-04-01 07:44:00,
2013-04-01 03:45:00,45.3,39.5,29.85,NW,324,0.0,0.0,80,0.00,,---,0.00,VWS V14.01,2013-04-01 07:45:00,
2013-04-01 03:46:00,45.3,39.2,29.85,NE,42,0.0,1.0,79,0.00,,---,0.00,VWS V14.01,2013-04-01 07:46:00,
2013-04-01 03:47:00,45.3,39.2,29.85,NW,308,3.0,4.0,79,0.00,,---,0.00,VWS V14.01,2013-04-01 07:47:00,
2013-04-01 03:48:00,45.2,39.1,29.84,NW,305,0.0,4.0,79,0.00,,---,0.00,VWS V14.01,2013-04-01 07:48:00,
2013-04-01 03:49:00,45.3,38.9,29.84,WNW,296,0.0,1.0,78,0.00,,---,0.00,VWS V14.01,2013-04-01 07:49:00,
2013-04-01 03:50:00,45.2,38.8,29.85,WNW,296,0.0,0.0,78,0.00,,---,0.00,VWS V14.01,2013-04-01 07:50:00,
2013-04-01 03:51:00,45.2,38.8,29.85,NW,313,0.0,3.0,78,0.00,,---,0.00,VWS V14.01,2013-04-01 07:51:00,
2013-04-01 03:52:00,45.2,38.8,29.84,NW,312,0.0,0.0,78,0.00,,---,0.00,VWS V14.01,2013-04-01 07:52:00,
2013-04-01 03:53:00,45.2,38.8,29.84,NW,312,0.0,0.0,78,0.00,,---,0.00,VWS V14.01,2013-04-01 07:53:00,
2013-04-01 03:54:00,45.1,38.7,29.84,NW,313,1.0,1.0,78,0.00,,---,0.00,VWS V14.01,2013-04-01 07:54:00,
2013-04-01 03:55:00,45.1,38.7,29.85,NW,315,0.0,3.0,78,0.00,,---,0.00,VWS V14.01,2013-04-01 07:55:00,
2013-04-01 03:56:00,45.1,38.7,29.85,NW,315,3.0,5.0,78,0.00,,---,0.00,VWS V14.01,2013-04-01 07:56:00,
2013-04-01 03:57:00,45.1,38.7,29.85,NW,311,0.0,3.0,78,0.00,,---,0.00,VWS V14.01,2013-04-01 07:57:00,
2013-04-01 03:58:00,45.1,38.7,29.85,NW,315,0.0,3.0,78,0.00,,---,0.00,VWS V14.01,2013-04-01 07:58:00,
2013-04-01 03:59:00,45.1,38.7,29.85,NNW,348,2.0,4.0,78,0.00,,---,0.00,VWS V14.01,2013-04-01 07:59:00,
2013-04-01 04:00:00,45.1,38.7,29.85,NNW,329,0.0,1.0,78,0.00,,---,0.00,VWS V14.01,2013-04-01 08:00:00,
2013-04-01 04:01:00,45.2,38.8,29.85,NW,325,0.0,0.0,78,0.00,,---,0.00,VWS V14.01,2013-04-01 08:01:00,
2013-04-01 04:02:00,45.1,38.7,29.85,West,266,3.0,3.0,78,0.00,,---,0.00,VWS V14.01,2013-04-01 08:02:00,
2013-04-01 04:03:00,45.1,38.3,29.85,WNW,291,1.0,5.0,77,0.00,,---,0.00,VWS V14.01,2013-04-01 08:03:00,
2013-04-01 04:04:00,45.1,38.3,29.86,WNW,291,0.0,2.0,77,0.00,,---,0.00,VWS V14.01,2013-04-01 08:04:00,
2013-04-01 04:05:00,45.1,38.3,29.86,WNW,291,0.0,0.0,77,0.00,,---,0.00,VWS V14.01,2013-04-01 08:05:00,
2013-04-01 04:06:00,45.1,38.7,29.86,WNW,298,0.0,4.0,78,0.00,,---,0.00,VWS V14.01,2013-04-01 08:06:00,
2013-04-01 04:07:00,45.0,38.2,29.85,NW,308,2.0,4.0,77,0.00,,---,0.00,VWS V14.01,2013-04-01 08:07:00,
2013-04-01 04:08:00,45.1,38.3,29.86,NW,308,0.0,2.0,77,0.00,,---,0.00,VWS V14.01,2013-04-01 08:08:00,
2013-04-01 04:09:00,45.0,38.2,29.85,West,273,0.0,3.0,77,0.00,,---,0.00,VWS V14.01,2013-04-01 08:09:00,
2013-04-01 04:10:00,45.0,38.2,29.86,West,273,0.0,0.0,77,0.00,,---,0.00,VWS V14.01,2013-04-01 08:10:00,
2013-04-01 04:11:00,45.0,38.2,29.86,West,281,0.0,2.0,77,0.00,,---,0.00,VWS V14.01,2013-04-01 08:11:00,
2013-04-01 04:12:00,45.0,38.2,29.86,West,281,0.0,1.0,77,0.00,,---,0.00,VWS V14.01,2013-04-01 08:12:00,
2013-04-01 04:13:00,44.9,38.1,29.86,West,281,0.0,0.0,77,0.00,,---,0.00,VWS V14.01,2013-04-01 08:13:00,
2013-04-01 04:14:00,44.8,38.0,29.86,WNW,289,0.0,4.0,77,0.00,,---,0.00,VWS V14.01,2013-04-01 08:14:00,
2013-04-01 04:15:00,44.7,37.9,29.86,West,276,1.0,1.0,77,0.00,,---,0.00,VWS V14.01,2013-04-01 08:15:00,
2013-04-01 04:16:00,44.7,37.9,29.86,WSW,258,1.0,5.0,77,0.00,,---,0.00,VWS V14.01,2013-04-01 08:16:00,
2013-04-01 04:17:00,44.7,37.9,29.86,NW,311,4.0,4.0,77,0.00,,---,0.00,VWS V14.01,2013-04-01 08:17:00,
2013-04-01 04:18:00,44.6,37.8,29.86,NW,305,0.0,4.0,77,0.00,,---,0.00,VWS V14.01,2013-04-01 08:18:00,
2013-04-01 04:19:00,44.5,37.4,29.86,WNW,303,0.0,3.0,76,0.00,,---,0.00,VWS V14.01,2013-04-01 08:19:00,
2013-04-01 04:23:00,44.3,36.9,29.86,NW,313,0.0,0.0,75,0.00,,---,0.00,VWS V14.01,2013-04-01 08:23:00,
2013-04-01 04:24:00,44.3,36.9,29.86,NW,310,0.0,2.0,75,0.00,,---,0.00,VWS V14.01,2013-04-01 08:24:00,
2013-04-01 04:29:00,44.1,36.7,29.87,NW,306,0.0,0.0,75,0.00,,---,0.00,VWS V14.01,2013-04-01 08:29:00,
2013-04-01 04:30:00,44.0,36.6,29.87,NW,304,2.0,2.0,75,0.00,,---,0.00,VWS V14.01,2013-04-01 08:30:00,
2013-04-01 04:31:00,44.0,36.6,29.87,NW,321,0.0,2.0,75,0.00,,---,0.00,VWS V14.01,2013-04-01 08:31:00,
2013-04-01 04:32:00,43.9,36.2,29.87,WNW,294,0.0,2.0,74,0.00,,---,0.00,VWS V14.01,2013-04-01 08:32:00,
2013-04-01 04:33:00,43.9,36.2,29.87,WNW,295,0.0,1.0,74,0.00,,---,0.00,VWS V14.01,2013-04-01 08:33:00,
2013-04-01 04:34:00,43.8,36.4,29.87,NW,325,0.0,1.0,75,0.00,,---,0.00,VWS V14.01,2013-04-01 08:34:00,
2013-04-01 04:35:00,43.8,36.4,29.87,NNW,328,0.0,2.0,75,0.00,,---,0.00,VWS V14.01,2013-04-01 08:35:00,
2013-04-01 04:36:00,43.7,36.0,29.87,NW,309,3.0,7.0,74,0.00,,---,0.00,VWS V14.01,2013-04-01 08:36:00,
2013-04-01 04:37:00,43.7,36.0,29.87,NNW,343,0.0,3.0,74,0.00,,---,0.00,VWS V14.01,2013-04-01 08:37:00,
2013-04-01 04:38:00,43.6,35.9,29.87,NNW,343,0.0,1.0,74,0.00,,---,0.00,VWS V14.01,2013-04-01 08:38:00,
2013-04-01 04:39:00,43.6,35.9,29.87,NW,321,4.0,8.0,74,0.00,,---,0.00,VWS V14.01,2013-04-01 08:39:00,
2013-04-01 04:40:00,43.6,35.9,29.87,NW,304,0.0,8.0,74,0.00,,---,0.00,VWS V14.01,2013-04-01 08:40:00,
2013-04-01 04:41:00,43.5,35.8,29.87,NNW,330,1.0,3.0,74,0.00,,---,0.00,VWS V14.01,2013-04-01 08:41:00,
2013-04-01 04:42:00,43.5,35.8,29.87,NNW,331,0.0,2.0,74,0.00,,---,0.00,VWS V14.01,2013-04-01 08:42:00,
2013-04-01 04:43:00,43.5,35.8,29.87,West,281,3.0,6.0,74,0.00,,---,0.00,VWS V14.01,2013-04-01 08:43:00,
2013-04-01 04:44:00,43.4,35.7,29.87,NW,326,0.0,4.0,74,0.00,,---,0.00,VWS V14.01,2013-04-01 08:44:00,
2013-04-01 04:45:00,43.4,35.7,29.87,NW,323,1.0,5.0,74,0.00,,---,0.00,VWS V14.01,2013-04-01 08:45:00,
2013-04-01 04:46:00,43.4,35.7,29.87,NW,323,0.0,5.0,74,0.00,,---,0.00,VWS V14.01,2013-04-01 08:46:00,
2013-04-01 04:47:00,43.4,35.7,29.88,WNW,296,0.0,3.0,74,0.00,,---,0.00,VWS V14.01,2013-04-01 08:47:00,
2013-04-01 04:48:00,43.3,35.6,29.88,WNW,300,0.0,1.0,74,0.00,,---,0.00,VWS V14.01,2013-04-01 08:48:00,
2013-04-01 04:49:00,43.3,35.6,29.88,WNW,292,0.0,4.0,74,0.00,,---,0.00,VWS V14.01,2013-04-01 08:49:00,
2013-04-01 04:50:00,43.2,35.5,29.88,NNW,336,0.0,4.0,74,0.00,,---,0.00,VWS V14.01,2013-04-01 08:50:00,
2013-04-01 04:51:00,43.2,35.5,29.88,NW,323,0.0,3.0,74,0.00,,---,0.00,VWS V14.01,2013-04-01 08:51:00,
2013-04-01 04:52:00,43.1,35.4,29.88,NNE,22,7.0,7.0,74,0.00,,---,0.00,VWS V14.01,2013-04-01 08:52:00,
2013-04-01 04:53:00,43.1,35.4,29.88,North,5,1.0,7.0,74,0.00,,---,0.00,VWS V14.01,2013-04-01 08:53:00,
2013-04-01 04:54:00,43.0,35.0,29.88,NW,317,0.0,3.0,73,0.00,,---,0.00,VWS V14.01,2013-04-01 08:54:00,
2013-04-01 04:55:00,42.9,34.8,29.88,NW,319,0.0,3.0,73,0.00,,---,0.00,VWS V14.01,2013-04-01 08:55:00,
2013-04-01 04:56:00,42.8,34.4,29.89,North,351,0.0,3.0,72,0.00,,---,0.00,VWS V14.01,2013-04-01 08:56:00,
2013-04-01 04:57:00,42.8,34.4,29.89,NNW,347,0.0,1.0,72,0.00,,---,0.00,VWS V14.01,2013-04-01 08:57:00,
2013-04-01 04:58:00,42.7,34.3,29.89,NNW,347,0.0,0.0,72,0.00,,---,0.00,VWS V14.01,2013-04-01 08:58:00,
2013-04-01 04:59:00,42.7,34.3,29.89,NNW,347,0.0,0.0,72,0.00,,---,0.00,VWS V14.01,2013-04-01 08:59:00,
2013-04-01 05:00:00,42.6,34.2,29.89,NNW,347,0.0,0.0,72,0.00,,---,0.00,VWS V14.01,2013-04-01 09:00:00,
2013-04-01 05:01:00,42.5,34.1,29.89,NW,323,0.0,2.0,72,0.00,,---,0.00,VWS V14.01,2013-04-01 09:01:00,
2013-04-01 05:02:00,42.4,34.0,29.89,NW,314,3.0,3.0,72,0.00,,---,0.00,VWS V14.01,2013-04-01 09:02:00,
2013-04-01 05:03:00,42.3,33.9,29.89,NW,313,2.0,3.0,72,0.00,,---,0.00,VWS V14.01,2013-04-01 09:03:00,
2013-04-01 05:04:00,42.3,33.9,29.89,WNW,301,0.0,3.0,72,0.00,,---,0.00,VWS V14.01,2013-04-01 09:04:00,
2013-04-01 05:05:00,42.2,34.2,29.89,WNW,289,2.0,2.0,73,0.00,,---,0.00,VWS V14.01,2013-04-01 09:05:00,
2013-04-01 05:06:00,42.2,34.2,29.89,West,263,0.0,4.0,73,0.00,,---,0.00,VWS V14.01,2013-04-01 09:06:00,
2013-04-01 05:07:00,42.1,34.4,29.89,West,277,2.0,2.0,74,0.00,,---,0.00,VWS V14.01,2013-04-01 09:07:00,
2013-04-01 05:08:00,42.0,34.3,29.89,NW,315,3.0,4.0,74,0.00,,---,0.00,VWS V14.01,2013-04-01 09:08:00,
2013-04-01 05:09:00,41.9,34.2,29.89,NW,315,0.0,3.0,74,0.00,,---,0.00,VWS V14.01,2013-04-01 09:09:00,
2013-04-01 05:10:00,41.8,34.1,29.89,NW,321,0.0,3.0,74,0.00,,---,0.00,VWS V14.01,2013-04-01 09:10:00,
2013-04-01 05:11:00,41.8,33.1,29.89,NW,324,2.0,6.0,71,0.00,,---,0.00,VWS V14.01,2013-04-01 09:11:00,
2013-04-01 05:12:00,41.7,32.7,29.90,NW,311,1.0,2.0,70,0.00,,---,0.00,VWS V14.01,2013-04-01 09:12:00,
2013-04-01 05:13:00,41.7,32.3,29.90,NW,312,2.0,2.0,69,0.00,,---,0.00,VWS V14.01,2013-04-01 09:13:00,
2013-04-01 05:14:00,41.6,32.2,29.90,NW,320,1.0,2.0,69,0.00,,---,0.00,VWS V14.01,2013-04-01 09:14:00,
2013-04-01 05:15:00,41.5,32.1,29.90,NW,320,0.0,1.0,69,0.00,,---,0.00,VWS V14.01,2013-04-01 09:15:00,
2013-04-01 05:16:00,41.5,31.7,29.90,NW,317,0.0,2.0,68,0.00,,---,0.00,VWS V14.01,2013-04-01 09:16:00,
2013-04-01 05:17:00,41.4,31.3,29.90,WNW,300,3.0,4.0,67,0.00,,---,0.00,VWS V14.01,2013-04-01 09:17:00,
2013-04-01 05:18:00,41.3,30.8,29.90,WNW,299,2.0,6.0,66,0.00,,---,0.00,VWS V14.01,2013-04-01 09:18:00,
2013-04-01 05:19:00,41.3,30.4,29.90,WNW,298,0.0,3.0,65,0.00,,---,0.00,VWS V14.01,2013-04-01 09:19:00,
2013-04-01 05:20:00,41.2,30.3,29.90,WNW,301,2.0,9.0,65,0.00,,---,0.00,VWS V14.01,2013-04-01 09:20:00,
2013-04-01 05:21:00,41.1,30.2,29.90,NNW,327,2.0,9.0,65,0.00,,---,0.00,VWS V14.01,2013-04-01 09:21:00,
2013-04-01 05:22:00,41.1,29.9,29.90,NW,316,6.0,6.0,64,0.00,,---,0.00,VWS V14.01,2013-04-01 09:22:00,
2013-04-01 05:23:00,41.0,29.4,29.90,NW,319,1.0,6.0,63,0.00,,---,0.00,VWS V14.01,2013-04-01 09:23:00,
2013-04-01 05:24:00,41.0,29.4,29.90,NW,314,4.0,9.0,63,0.00,,---,0.00,VWS V14.01,2013-04-01 09:24:00,
2013-04-01 05:25:00,41.0,29.0,29.90,NW,309,1.0,6.0,62,0.00,,---,0.00,VWS V14.01,2013-04-01 09:25:00,
2013-04-01 05:26:00,40.9,28.5,29.91,North,355,6.0,7.0,61,0.00,,---,0.00,VWS V14.01,2013-04-01 09:26:00,
2013-04-01 05:27:00,40.9,28.5,29.90,NNW,333,2.0,9.0,61,0.00,,---,0.00,VWS V14.01,2013-04-01 09:27:00,
2013-04-01 05:28:00,40.9,28.5,29.90,WNW,301,2.0,4.0,61,0.00,,---,0.00,VWS V14.01,2013-04-01 09:28:00,
2013-04-01 05:29:00,40.8,28.4,29.91,NNW,342,5.0,5.0,61,0.00,,---,0.00,VWS V14.01,2013-04-01 09:29:00,
2013-04-01 05:30:00,40.7,28.3,29.90,NW,317,0.0,6.0,61,0.00,,---,0.00,VWS V14.01,2013-04-01 09:30:00,
2013-04-01 05:31:00,40.7,28.3,29.90,NW,320,0.0,2.0,61,0.00,,---,0.00,VWS V14.01,2013-04-01 09:31:00,
2013-04-01 05:32:00,40.7,28.3,29.90,NW,319,0.0,3.0,61,0.00,,---,0.00,VWS V14.01,2013-04-01 09:32:00,
2013-04-01 05:33:00,40.6,28.6,29.90,NW,318,1.0,1.0,62,0.00,,---,0.00,VWS V14.01,2013-04-01 09:33:00,
2013-04-01 05:34:00,40.6,28.6,29.90,NW,318,0.0,2.0,62,0.00,,---,0.00,VWS V14.01,2013-04-01 09:34:00,
2013-04-01 05:35:00,40.5,28.5,29.90,NW,318,0.0,0.0,62,0.00,,---,0.00,VWS V14.01,2013-04-01 09:35:00,
2013-04-01 05:36:00,40.5,28.5,29.90,NW,318,0.0,0.0,62,0.00,,---,0.00,VWS V14.01,2013-04-01 09:36:00,
2013-04-01 05:37:00,40.4,28.4,29.90,WNW,294,2.0,3.0,62,0.00,,---,0.00,VWS V14.01,2013-04-01 09:37:00,
2013-04-01 05:38:00,40.3,28.3,29.90,WNW,294,0.0,2.0,62,0.00,,---,0.00,VWS V14.01,2013-04-01 09:38:00,
2013-04-01 05:39:00,40.3,28.7,29.90,WNW,294,0.0,2.0,63,0.00,,---,0.00,VWS V14.01,2013-04-01 09:39:00,
2013-04-01 05:40:00,40.3,28.7,29.90,WNW,293,2.0,5.0,63,0.00,,---,0.00,VWS V14.01,2013-04-01 09:40:00,
2013-04-01 05:41:00,40.2,29.0,29.90,WNW,298,0.0,2.0,64,0.00,,---,0.00,VWS V14.01,2013-04-01 09:41:00,
2013-04-01 05:42:00,40.2,29.0,29.90,WNW,287,2.0,4.0,64,0.00,,---,0.00,VWS V14.01,2013-04-01 09:42:00,
2013-04-01 05:43:00,40.2,29.0,29.90,WNW,292,2.0,3.0,64,0.00,,---,0.00,VWS V14.01,2013-04-01 09:43:00,
2013-04-01 05:44:00,40.2,29.0,29.90,WNW,292,0.0,2.0,64,0.00,,---,0.00,VWS V14.01,2013-04-01 09:44:00,
2013-04-01 05:45:00,40.1,28.9,29.90,WNW,296,2.0,2.0,64,0.00,,---,0.00,VWS V14.01,2013-04-01 09:45:00,
2013-04-01 05:46:00,40.1,29.3,29.90,WNW,296,1.0,2.0,65,0.00,,---,0.00,VWS V14.01,2013-04-01 09:46:00,
2013-04-01 05:47:00,40.1,29.3,29.90,WNW,296,0.0,1.0,65,0.00,,---,0.00,VWS V14.01,2013-04-01 09:47:00,
2013-04-01 05:48:00,40.0,29.2,29.90,WNW,296,0.0,0.0,65,0.00,,---,0.00,VWS V14.01,2013-04-01 09:48:00,
2013-04-01 05:49:00,40.0,29.6,29.90,NW,321,1.0,3.0,66,0.00,,---,0.00,VWS V14.01,2013-04-01 09:49:00,
2013-04-01 05:50:00,39.9,29.5,29.90,West,267,0.0,2.0,66,0.00,,---,0.00,VWS V14.01,2013-04-01 09:50:00,
2013-04-01 05:51:00,39.8,29.4,29.90,NNW,329,0.0,2.0,66,0.00,,---,0.00,VWS V14.01,2013-04-01 09:51:00,
2013-04-01 05:52:00,39.8,29.8,29.90,NW,315,0.0,2.0,67,0.00,,---,0.00,VWS V14.01,2013-04-01 09:52:00,
2013-04-01 05:53:00,39.7,29.7,29.90,NW,316,0.0,1.0,67,0.00,,---,0.00,VWS V14.01,2013-04-01 09:53:00,
2013-04-01 05:54:00,39.7,29.7,29.91,NW,317,5.0,5.0,67,0.00,,---,0.00,VWS V14.01,2013-04-01 09:54:00,
2013-04-01 05:55:00,39.7,29.7,29.90,WNW,297,3.0,7.0,67,0.00,,---,0.00,VWS V14.01,2013-04-01 09:55:00,
2013-04-01 05:56:00,39.6,29.6,29.91,WNW,302,1.0,4.0,67,0.00,,---,0.00,VWS V14.01,2013-04-01 09:56:00,
2013-04-01 05:57:00,39.6,29.6,29.91,NW,315,1.0,3.0,67,0.00,,---,0.00,VWS V14.01,2013-04-01 09:57:00,
2013-04-01 05:58:00,39.5,29.5,29.91,NW,306,4.0,6.0,67,0.00,,---,0.00,VWS V14.01,2013-04-01 09:58:00,
2013-04-01 05:59:00,39.5,29.1,29.91,NW,307,4.0,8.0,66,0.00,,---,0.00,VWS V14.01,2013-04-01 09:59:00,
2013-04-01 06:00:00,39.5,29.1,29.91,NNW,329,3.0,5.0,66,0.00,,---,0.00,VWS V14.01,2013-04-01 10:00:00,
2013-04-01 06:01:00,39.5,29.1,29.91,NW,319,1.0,6.0,66,0.00,,---,0.00,VWS V14.01,2013-04-01 10:01:00,
2013-04-01 06:02:00,39.5,29.1,29.91,NW,311,1.0,2.0,66,0.00,,---,0.00,VWS V14.01,2013-04-01 10:02:00,
2013-04-01 06:03:00,39.4,29.0,29.91,NW,311,0.0,3.0,66,0.00,,---,0.00,VWS V14.01,2013-04-01 10:03:00,
2013-04-01 06:04:00,39.4,29.0,29.91,NNW,332,1.0,5.0,66,0.00,,---,0.00,VWS V14.01,2013-04-01 10:04:00,
2013-04-01 06:05:00,39.4,29.0,29.91,WNW,291,2.0,2.0,66,0.00,,---,0.00,VWS V14.01,2013-04-01 10:05:00,
2013-04-01 06:06:00,39.3,28.9,29.91,WNW,301,2.0,4.0,66,0.00,,---,0.00,VWS V14.01,2013-04-01 10:06:00,
2013-04-01 06:07:00,39.3,28.9,29.91,NW,304,0.0,3.0,66,0.00,,---,0.00,VWS V14.01,2013-04-01 10:07:00,
2013-04-01 06:08:00,39.3,28.9,29.91,WSW,254,1.0,2.0,66,0.00,,---,0.00,VWS V14.01,2013-04-01 10:08:00,
2013-04-01 06:09:00,39.2,28.8,29.91,NW,312,0.0,2.0,66,0.00,,---,0.00,VWS V14.01,2013-04-01 10:09:00,
2013-04-01 06:10:00,39.2,28.8,29.91,NW,317,2.0,4.0,66,0.00,,---,0.00,VWS V14.01,2013-04-01 10:10:00,
2013-04-01 06:11:00,39.2,28.8,29.91,WNW,297,3.0,6.0,66,0.00,,---,0.00,VWS V14.01,2013-04-01 10:11:00,
2013-04-01 06:12:00,39.1,28.7,29.91,West,268,0.0,3.0,66,0.00,,---,0.00,VWS V14.01,2013-04-01 10:12:00,
2013-04-01 06:13:00,39.1,28.7,29.91,WNW,289,3.0,3.0,66,0.00,,---,0.00,VWS V14.01,2013-04-01 10:13:00,
2013-04-01 06:14:00,39.1,28.7,29.91,WNW,289,0.0,3.0,66,0.00,,---,0.00,VWS V14.01,2013-04-01 10:14:00,
2013-04-01 06:15:00,39.0,28.6,29.91,WNW,300,0.0,1.0,66,0.00,,---,0.00,VWS V14.01,2013-04-01 10:15:00,
2013-04-01 06:16:00,39.0,28.6,29.91,WNW,302,0.0,2.0,66,0.00,,---,0.00,VWS V14.01,2013-04-01 10:16:00,
2013-04-01 06:17:00,39.0,28.6,29.91,NW,311,1.0,2.0,66,0.00,,---,0.00,VWS V14.01,2013-04-01 10:17:00,
2013-04-01 06:18:00,38.9,28.5,29.91,NW,321,0.0,3.0,66,0.00,,---,0.00,VWS V14.01,2013-04-01 10:18:00,
2013-04-01 06:19:00,38.9,28.5,29.91,NW,314,0.0,0.0,66,0.00,,---,0.00,VWS V14.01,2013-04-01 10:19:00,
2013-04-01 06:20:00,38.9,28.9,29.91,NW,304,0.0,3.0,67,0.00,,---,0.00,VWS V14.01,2013-04-01 10:20:00,
2013-04-01 06:21:00,38.9,28.9,29.91,NW,315,0.0,3.0,67,0.00,,---,0.00,VWS V14.01,2013-04-01 10:21:00,
2013-04-01 06:22:00,38.8,28.8,29.91,NNW,329,2.0,6.0,67,0.00,,---,0.00,VWS V14.01,2013-04-01 10:22:00,
2013-04-01 06:23:00,38.8,28.8,29.91,North,360,2.0,4.0,67,0.00,,---,0.00,VWS V14.01,2013-04-01 10:23:00,
2013-04-01 06:24:00,38.8,28.8,29.92,North,360,0.0,2.0,67,0.00,,---,0.00,VWS V14.01,2013-04-01 10:24:00,
2013-04-01 06:25:00,38.8,28.8,29.92,NW,304,2.0,6.0,67,0.00,,---,0.00,VWS V14.01,2013-04-01 10:25:00,
2013-04-01 06:26:00,38.8,28.8,29.92,NW,306,0.0,3.0,67,0.00,,---,0.00,VWS V14.01,2013-04-01 10:26:00,
2013-04-01 06:27:00,38.8,28.8,29.92,NW,310,0.0,2.0,67,0.00,,---,0.00,VWS V14.01,2013-04-01 10:27:00,
2013-04-01 06:28:00,38.7,28.7,29.92,NW,311,1.0,3.0,67,0.00,,---,0.00,VWS V14.01,2013-04-01 10:28:00,
2013-04-01 06:29:00,38.7,28.7,29.92,NW,311,0.0,1.0,67,0.00,,---,0.00,VWS V14.01,2013-04-01 10:29:00,
2013-04-01 06:30:00,38.7,29.1,29.92,NW,319,1.0,2.0,68,0.00,,---,0.00,VWS V14.01,2013-04-01 10:30:00,
2013-04-01 06:31:00,38.7,29.1,29.92,NW,325,0.0,4.0,68,0.00,,---,0.00,VWS V14.01,2013-04-01 10:31:00,
2013-04-01 06:32:00,38.7,29.1,29.92,NW,304,1.0,6.0,68,0.00,,---,0.00,VWS V14.01,2013-04-01 10:32:00,
2013-04-01 06:33:00,38.7,29.1,29.93,WNW,299,0.0,2.0,68,0.00,,---,0.00,VWS V14.01,2013-04-01 10:33:00,
2013-04-01 06:34:00,38.6,29.0,29.93,NW,306,0.0,2.0,68,0.00,,---,0.00,VWS V14.01,2013-04-01 10:34:00,
2013-04-01 06:35:00,38.7,29.1,29.93,WNW,292,2.0,2.0,68,0.00,,---,0.00,VWS V14.01,2013-04-01 10:35:00,
2013-04-01 06:36:00,38.6,29.0,29.93,WNW,296,0.0,2.0,68,0.00,,---,0.00,VWS V14.01,2013-04-01 10:36:00,
2013-04-01 06:37:00,38.6,29.0,29.93,West,277,0.0,0.0,68,0.00,,---,0.00,VWS V14.01,2013-04-01 10:37:00,
2013-04-01 06:38:00,38.6,29.0,29.93,NW,324,0.0,3.0,68,0.00,,---,0.00,VWS V14.01,2013-04-01 10:38:00,
2013-04-01 06:39:00,38.6,29.0,29.93,NW,323,0.0,1.0,68,0.00,,---,0.00,VWS V14.01,2013-04-01 10:39:00,
2013-04-01 06:40:00,38.5,28.9,29.93,NW,323,0.0,0.0,68,0.00,,---,0.00,VWS V14.01,2013-04-01 10:40:00,
2013-04-01 06:41:00,38.5,28.9,29.93,NW,317,0.0,4.0,68,0.00,,---,0.00,VWS V14.01,2013-04-01 10:41:00,
2013-04-01 06:42:00,38.5,28.9,29.93,NW,317,0.0,1.0,68,0.00,,---,0.00,VWS V14.01,2013-04-01 10:42:00,
2013-04-01 06:43:00,38.4,29.1,29.93,NW,317,0.0,0.0,69,0.00,,---,0.00,VWS V14.01,2013-04-01 10:43:00,
2013-04-01 06:44:00,38.4,29.1,29.93,NW,316,0.0,2.0,69,0.00,,---,0.00,VWS V14.01,2013-04-01 10:44:00,
2013-04-01 06:45:00,38.4,29.1,29.93,NW,316,0.0,0.0,69,0.00,,---,0.00,VWS V14.01,2013-04-01 10:45:00,
2013-04-01 06:46:00,38.4,29.1,29.93,WNW,292,3.0,4.0,69,0.00,,---,0.00,VWS V14.01,2013-04-01 10:46:00,
2013-04-01 06:47:00,38.3,29.0,29.93,WNW,298,0.0,6.0,69,0.00,,---,0.00,VWS V14.01,2013-04-01 10:47:00,
2013-04-01 06:48:00,38.3,29.0,29.93,WNW,298,0.0,0.0,69,0.00,,---,0.00,VWS V14.01,2013-04-01 10:48:00,
2013-04-01 06:49:00,38.3,29.0,29.93,WNW,292,2.0,2.0,69,0.00,,---,0.00,VWS V14.01,2013-04-01 10:49:00,
2013-04-01 06:50:00,38.2,28.9,29.93,NW,304,0.0,6.0,69,0.00,,---,0.00,VWS V14.01,2013-04-01 10:50:00,
2013-04-01 06:51:00,38.2,29.3,29.93,NW,306,1.0,2.0,70,0.00,,---,0.00,VWS V14.01,2013-04-01 10:51:00,
2013-04-01 06:52:00,38.2,29.3,29.93,NW,308,0.0,3.0,70,0.00,,---,0.00,VWS V14.01,2013-04-01 10:52:00,
2013-04-01 06:53:00,38.2,29.3,29.93,NW,308,0.0,0.0,70,0.00,,---,0.00,VWS V14.01,2013-04-01 10:53:00,
2013-04-01 06:54:00,38.1,29.2,29.93,NW,323,2.0,3.0,70,0.00,,---,0.00,VWS V14.01,2013-04-01 10:54:00,
2013-04-01 06:55:00,38.1,29.2,29.93,NW,321,0.0,4.0,70,0.00,,---,0.00,VWS V14.01,2013-04-01 10:55:00,
2013-04-01 06:56:00,38.1,29.2,29.93,WNW,296,1.0,1.0,70,0.00,,---,0.00,VWS V14.01,2013-04-01 10:56:00,
2013-04-01 06:57:00,38.1,29.2,29.93,NW,319,0.0,4.0,70,0.00,,---,0.00,VWS V14.01,2013-04-01 10:57:00,
2013-04-01 06:58:00,38.1,29.2,29.93,NW,319,0.0,0.0,70,0.00,,---,0.00,VWS V14.01,2013-04-01 10:58:00,
2013-04-01 06:59:00,38.1,29.2,29.93,NW,319,0.0,0.0,70,0.00,,---,0.00,VWS V14.01,2013-04-01 10:59:00,
2013-04-01 07:00:00,38.1,29.2,29.93,WNW,292,1.0,4.0,70,0.00,,---,0.00,VWS V14.01,2013-04-01 11:00:00,
2013-04-01 07:01:00,38.1,29.2,29.93,WNW,292,0.0,1.0,70,0.00,,---,0.00,VWS V14.01,2013-04-01 11:01:00,
2013-04-01 07:02:00,38.1,29.2,29.93,WNW,292,0.0,1.0,70,0.00,,---,0.00,VWS V14.01,2013-04-01 11:02:00,
2013-04-01 07:03:00,38.1,29.5,29.93,WNW,292,0.0,0.0,71,0.00,,---,0.00,VWS V14.01,2013-04-01 11:03:00,
2013-04-01 07:04:00,38.1,29.5,29.94,WNW,292,0.0,0.0,71,0.00,,---,0.00,VWS V14.01,2013-04-01 11:04:00,
2013-04-01 07:05:00,38.1,29.5,29.94,WNW,292,0.0,1.0,71,0.00,,---,0.00,VWS V14.01,2013-04-01 11:05:00,
2013-04-01 07:06:00,38.1,29.5,29.94,WNW,292,0.0,1.0,71,0.00,,---,0.00,VWS V14.01,2013-04-01 11:06:00,
2013-04-01 07:07:00,38.1,29.5,29.94,WNW,292,2.0,3.0,71,0.00,,---,0.00,VWS V14.01,2013-04-01 11:07:00,
2013-04-01 07:08:00,38.1,29.5,29.94,WNW,292,0.0,2.0,71,0.00,,---,0.00,VWS V14.01,2013-04-01 11:08:00,
2013-04-01 07:09:00,38.0,29.5,29.94,NW,309,3.0,3.0,71,0.00,,---,0.00,VWS V14.01,2013-04-01 11:09:00,
2013-04-01 07:10:00,38.1,29.5,29.94,NW,308,0.0,3.0,71,0.00,,---,0.00,VWS V14.01,2013-04-01 11:10:00,
2013-04-01 07:11:00,38.1,29.5,29.94,NW,307,0.0,2.0,71,0.00,,---,0.00,VWS V14.01,2013-04-01 11:11:00,
2013-04-01 07:12:00,38.1,29.5,29.94,NW,314,3.0,4.0,71,0.00,,---,0.00,VWS V14.01,2013-04-01 11:12:00,
2013-04-01 07:14:00,38.1,29.5,29.94,WNW,302,1.0,1.0,71,0.00,,---,0.00,VWS V14.01,2013-04-01 11:14:00,
2013-04-01 07:15:00,38.1,29.5,29.94,WNW,302,0.0,1.0,71,0.00,,---,0.00,VWS V14.01,2013-04-01 11:15:00,
2013-04-01 07:16:00,38.1,29.5,29.94,NW,305,0.0,3.0,71,0.00,,---,0.00,VWS V14.01,2013-04-01 11:16:00,
2013-04-01 07:17:00,38.1,29.5,29.94,WNW,296,2.0,2.0,71,0.00,,---,0.00,VWS V14.01,2013-04-01 11:17:00,
2013-04-01 07:18:00,38.1,29.5,29.94,NW,323,0.0,3.0,71,0.00,,---,0.00,VWS V14.01,2013-04-01 11:18:00,
2013-04-01 07:19:00,38.1,29.5,29.94,NW,306,4.0,4.0,71,0.00,,---,0.00,VWS V14.01,2013-04-01 11:19:00,
2013-04-01 07:20:00,38.2,29.6,29.94,NW,315,0.0,4.0,71,0.00,,---,0.00,VWS V14.01,2013-04-01 11:20:00,
2013-04-01 07:21:00,38.1,29.5,29.94,NW,313,0.0,2.0,71,0.00,,---,0.00,VWS V14.01,2013-04-01 11:21:00,
2013-04-01 07:22:00,38.1,29.5,29.94,NW,309,0.0,3.0,71,0.00,,---,0.00,VWS V14.01,2013-04-01 11:22:00,
2013-04-01 07:23:00,38.2,29.6,29.94,NW,309,0.0,0.0,71,0.00,,---,0.00,VWS V14.01,2013-04-01 11:23:00,
2013-04-01 07:24:00,38.2,29.6,29.94,NW,309,1.0,1.0,71,0.00,,---,0.00,VWS V14.01,2013-04-01 11:24:00,
2013-04-01 07:25:00,38.2,29.6,29.95,NW,309,1.0,1.0,71,0.00,,---,0.00,VWS V14.01,2013-04-01 11:25:00,
2013-04-01 07:26:00,38.2,29.6,29.95,NW,309,0.0,1.0,71,0.00,,---,0.00,VWS V14.01,2013-04-01 11:26:00,
2013-04-01 07:27:00,38.2,29.6,29.95,NW,309,0.0,0.0,71,0.00,,---,0.00,VWS V14.01,2013-04-01 11:27:00,
2013-04-01 07:28:00,38.2,30.0,29.95,NW,305,4.0,4.0,72,0.00,,---,0.00,VWS V14.01,2013-04-01 11:28:00,
2013-04-01 07:29:00,38.2,30.0,29.95,NW,305,0.0,4.0,72,0.00,,---,0.00,VWS V14.01,2013-04-01 11:29:00,
2013-04-01 07:30:00,38.2,30.0,29.95,NNW,334,2.0,2.0,72,0.00,,---,0.00,VWS V14.01,2013-04-01 11:30:00,
2013-04-01 07:31:00,38.2,30.0,29.96,NNW,334,0.0,2.0,72,0.00,,---,0.00,VWS V14.01,2013-04-01 11:31:00,
2013-04-01 07:32:00,38.2,30.0,29.96,NNW,332,0.0,1.0,72,0.00,,---,0.00,VWS V14.01,2013-04-01 11:32:00,
2013-04-01 07:33:00,38.2,30.0,29.96,NNW,331,0.0,0.0,72,0.00,,---,0.00,VWS V14.01,2013-04-01 11:33:00,
2013-04-01 07:34:00,38.2,30.0,29.96,NW,326,0.0,2.0,72,0.00,,---,0.00,VWS V14.01,2013-04-01 11:34:00,
2013-04-01 07:35:00,38.2,30.0,29.96,NW,326,0.0,2.0,72,0.00,,---,0.00,VWS V14.01,2013-04-01 11:35:00,
2013-04-01 07:36:00,38.2,30.0,29.96,NW,326,0.0,0.0,72,0.00,,---,0.00,VWS V14.01,2013-04-01 11:36:00,
2013-04-01 07:37:00,38.2,30.0,29.96,NW,306,0.0,5.0,72,0.00,,---,0.00,VWS V14.01,2013-04-01 11:37:00,
2013-04-01 07:38:00,38.2,30.0,29.96,NNW,333,0.0,2.0,72,0.00,,---,0.00,VWS V14.01,2013-04-01 11:38:00,
2013-04-01 07:39:00,38.2,30.0,29.96,NNW,333,0.0,0.0,72,0.00,,---,0.00,VWS V14.01,2013-04-01 11:39:00,
2013-04-01 07:40:00,38.2,30.0,29.96,NNE,13,5.0,5.0,72,0.00,,---,0.00,VWS V14.01,2013-04-01 11:40:00,
2013-04-01 07:41:00,38.3,30.1,29.96,NW,319,2.0,6.0,72,0.00,,---,0.00,VWS V14.01,2013-04-01 11:41:00,
2013-04-01 07:42:00,38.3,30.1,29.96,NNW,339,0.0,4.0,72,0.00,,---,0.00,VWS V14.01,2013-04-01 11:42:00,
2013-04-01 07:43:00,38.3,29.7,29.96,WNW,302,0.0,3.0,71,0.00,,---,0.00,VWS V14.01,2013-04-01 11:43:00,
2013-04-01 07:44:00,38.3,30.1,29.96,NW,306,2.0,2.0,72,0.00,,---,0.00,VWS V14.01,2013-04-01 11:44:00,
2013-04-01 07:45:00,38.3,30.1,29.96,NW,309,0.0,3.0,72,0.00,,---,0.00,VWS V14.01,2013-04-01 11:45:00,
2013-04-01 07:46:00,38.3,30.1,29.97,NW,309,0.0,0.0,72,0.00,,---,0.00,VWS V14.01,2013-04-01 11:46:00,
2013-04-01 07:47:00,38.3,30.1,29.97,North,360,0.0,2.0,72,0.00,,---,0.00,VWS V14.01,2013-04-01 11:47:00,
2013-04-01 07:48:00,38.3,30.1,29.97,NNW,345,1.0,1.0,72,0.00,,---,0.00,VWS V14.01,2013-04-01 11:48:00,
2013-04-01 07:49:00,38.4,30.2,29.97,NNW,345,0.0,1.0,72,0.00,,---,0.00,VWS V14.01,2013-04-01 11:49:00,
2013-04-01 07:50:00,38.4,30.2,29.97,NNW,347,0.0,0.0,72,0.00,,---,0.00,VWS V14.01,2013-04-01 11:50:00,
2013-04-01 07:51:00,38.4,30.2,29.97,WNW,300,0.0,2.0,72,0.00,,---,0.00,VWS V14.01,2013-04-01 11:51:00,
2013-04-01 07:52:00,38.4,30.2,29.97,WNW,302,0.0,3.0,72,0.00,,---,0.00,VWS V14.01,2013-04-01 11:52:00,
2013-04-01 07:53:00,38.4,30.2,29.97,WNW,302,1.0,1.0,72,0.00,,---,0.00,VWS V14.01,2013-04-01 11:53:00,
2013-04-01 07:54:00,38.4,30.2,29.98,WNW,296,2.0,4.0,72,0.00,,---,0.00,VWS V14.01,2013-04-01 11:54:00,
2013-04-01 07:55:00,38.4,30.2,29.98,NW,304,0.0,4.0,72,0.00,,---,0.00,VWS V14.01,2013-04-01 11:55:00,
2013-04-01 07:56:00,38.4,30.2,29.97,NW,304,0.0,0.0,72,0.00,,---,0.00,VWS V14.01,2013-04-01 11:56:00,
2013-04-01 07:57:00,38.4,30.2,29.97,NW,307,1.0,3.0,72,0.00,,---,0.00,VWS V14.01,2013-04-01 11:57:00,
2013-04-01 07:58:00,38.5,30.3,29.97,NW,315,2.0,4.0,72,0.00,,---,0.00,VWS V14.01,2013-04-01 11:58:00,
2013-04-01 07:59:00,38.5,30.3,29.98,NW,315,0.0,2.0,72,0.00,,---,0.00,VWS V14.01,2013-04-01 11:59:00,
2013-04-01 08:00:00,38.5,30.3,29.98,NW,315,0.0,0.0,72,0.00,,---,0.00,VWS V14.01,2013-04-01 12:00:00,
2013-04-01 08:01:00,38.5,30.3,29.98,NNW,342,2.0,3.0,72,0.00,,---,0.00,VWS V14.01,2013-04-01 12:01:00,
2013-04-01 08:02:00,38.5,30.3,29.98,NW,323,1.0,2.0,72,0.00,,---,0.00,VWS V14.01,2013-04-01 12:02:00,
2013-04-01 08:03:00,38.5,30.3,29.98,West,272,0.0,2.0,72,0.00,,---,0.00,VWS V14.01,2013-04-01 12:03:00,
2013-04-01 08:04:00,38.5,30.3,29.98,West,273,0.0,0.0,72,0.00,,---,0.00,VWS V14.01,2013-04-01 12:04:00,
2013-04-01 08:05:00,38.5,30.3,29.98,West,273,0.0,0.0,72,0.00,,---,0.00,VWS V14.01,2013-04-01 12:05:00,
2013-04-01 08:06:00,38.5,30.3,29.98,NW,307,3.0,3.0,72,0.00,,---,0.00,VWS V14.01,2013-04-01 12:06:00,
2013-04-01 08:07:00,38.5,30.3,29.98,North,9,4.0,4.0,72,0.00,,---,0.00,VWS V14.01,2013-04-01 12:07:00,
2013-04-01 08:08:00,38.5,30.3,29.98,NNE,13,0.0,4.0,72,0.00,,---,0.00,VWS V14.01,2013-04-01 12:08:00,
2013-04-01 08:09:00,38.5,30.3,29.98,North,355,0.0,0.0,72,0.00,,---,0.00,VWS V14.01,2013-04-01 12:09:00,
2013-04-01 08:10:00,38.5,30.3,29.98,NW,325,0.0,4.0,72,0.00,,---,0.00,VWS V14.01,2013-04-01 12:10:00,
2013-04-01 08:11:00,38.5,30.3,29.98,NW,322,0.0,1.0,72,0.00,,---,0.00,VWS V14.01,2013-04-01 12:11:00,
2013-04-01 08:12:00,38.5,30.3,29.98,NNW,330,1.0,1.0,72,0.00,,---,0.00,VWS V14.01,2013-04-01 12:12:00,
2013-04-01 08:13:00,38.5,30.3,29.98,NNW,342,0.0,5.0,72,0.00,,---,0.00,VWS V14.01,2013-04-01 12:13:00,
2013-04-01 08:14:00,38.5,30.3,29.98,NNW,333,0.0,1.0,72,0.00,,---,0.00,VWS V14.01,2013-04-01 12:14:00,
2013-04-01 08:15:00,38.6,30.4,29.98,NNW,333,0.0,0.0,72,0.00,,---,0.00,VWS V14.01,2013-04-01 12:15:00,
2013-04-01 08:16:00,38.6,30.4,29.98,NNW,333,0.0,0.0,72,0.00,,---,0.00,VWS V14.01,2013-04-01 12:16:00,
2013-04-01 08:17:00,38.6,30.4,29.98,NNW,333,0.0,0.0,72,0.00,,---,0.00,VWS V14.01,2013-04-01 12:17:00,
2013-04-01 08:18:00,38.6,30.4,29.99,NNW,333,4.0,4.0,72,0.00,,---,0.00,VWS V14.01,2013-04-01 12:18:00,
2013-04-01 08:19:00,38.6,30.4,29.98,North,355,0.0,5.0,72,0.00,,---,0.00,VWS V14.01,2013-04-01 12:19:00,
2013-04-01 08:20:00,38.6,30.4,29.99,NNE,17,1.0,3.0,72,0.00,,---,0.00,VWS V14.01,2013-04-01 12:20:00,
2013-04-01 08:21:00,38.6,30.4,29.99,North,355,0.0,3.0,72,0.00,,---,0.00,VWS V14.01,2013-04-01 12:21:00,
2013-04-01 08:22:00,38.7,30.5,29.99,WNW,286,0.0,3.0,72,0.00,,---,0.00,VWS V14.01,2013-04-01 12:22:00,
2013-04-01 08:23:00,38.7,30.5,29.99,NW,325,3.0,5.0,72,0.00,,---,0.00,VWS V14.01,2013-04-01 12:23:00,
2013-04-01 08:24:00,38.7,30.5,29.99,NNW,327,0.0,3.0,72,0.00,,---,0.00,VWS V14.01,2013-04-01 12:24:00,
2013-04-01 08:25:00,38.7,30.5,29.99,NW,323,2.0,3.0,72,0.00,,---,0.00,VWS V14.01,2013-04-01 12:25:00,
2013-04-01 08:26:00,38.7,30.5,30.00,WNW,300,2.0,3.0,72,0.00,,---,0.00,VWS V14.01,2013-04-01 12:26:00,
2013-04-01 08:27:00,38.7,30.5,30.00,NW,311,0.0,4.0,72,0.00,,---,0.00,VWS V14.01,2013-04-01 12:27:00,
2013-04-01 08:28:00,38.7,30.5,30.00,NW,311,2.0,4.0,72,0.00,,---,0.00,VWS V14.01,2013-04-01 12:28:00,
2013-04-01 08:29:00,38.7,30.5,30.00,WNW,289,0.0,5.0,72,0.00,,---,0.00,VWS V14.01,2013-04-01 12:29:00,
2013-04-01 08:30:00,38.7,30.5,30.00,NNW,332,0.0,4.0,72,0.00,,---,0.00,VWS V14.01,2013-04-01 12:30:00,
2013-04-01 08:31:00,38.7,30.5,30.00,NNW,331,0.0,1.0,72,0.00,,---,0.00,VWS V14.01,2013-04-01 12:31:00,
2013-04-01 08:32:00,38.7,30.5,30.00,WNW,286,0.0,4.0,72,0.00,,---,0.00,VWS V14.01,2013-04-01 12:32:00,
2013-04-01 08:33:00,38.8,30.6,30.00,WNW,286,1.0,1.0,72,0.00,,---,0.00,VWS V14.01,2013-04-01 12:33:00,
2013-04-01 08:34:00,38.7,30.5,30.00,WNW,286,0.0,2.0,72,0.00,,---,0.00,VWS V14.01,2013-04-01 12:34:00,
2013-04-01 08:35:00,38.7,30.5,30.00,WNW,293,1.0,1.0,72,0.00,,---,0.00,VWS V14.01,2013-04-01 12:35:00,
2013-04-01 08:36:00,38.7,30.5,30.00,NE,51,0.0,1.0,72,0.00,,---,0.00,VWS V14.01,2013-04-01 12:36:00,
2013-04-01 08:37:00,38.7,30.5,30.00,WSW,241,0.0,3.0,72,0.00,,---,0.00,VWS V14.01,2013-04-01 12:37:00,
2013-04-01 08:38:00,38.7,30.5,30.00,NW,319,0.0,4.0,72,0.00,,---,0.00,VWS V14.01,2013-04-01 12:38:00,
2013-04-01 08:39:00,38.7,30.5,30.00,NW,319,0.0,0.0,72,0.00,,---,0.00,VWS V14.01,2013-04-01 12:39:00,
2013-04-01 08:40:00,38.7,30.5,30.00,NW,319,0.0,1.0,72,0.00,,---,0.00,VWS V14.01,2013-04-01 12:40:00,
2013-04-01 08:41:00,38.7,30.5,30.00,NW,319,0.0,0.0,72,0.00,,---,0.00,VWS V14.01,2013-04-01 12:41:00,
2013-04-01 08:42:00,38.7,30.8,30.00,North,351,3.0,3.0,73,0.00,,---,0.00,VWS V14.01,2013-04-01 12:42:00,
2013-04-01 08:43:00,38.7,30.8,30.00,NNW,344,4.0,5.0,73,0.00,,---,0.00,VWS V14.01,2013-04-01 12:43:00,
2013-04-01 08:44:00,38.7,30.5,30.00,NNW,333,1.0,4.0,72,0.00,,---,0.00,VWS V14.01,2013-04-01 12:44:00,
2013-04-01 08:45:00,38.6,30.4,29.99,NNE,19,1.0,5.0,72,0.00,,---,0.00,VWS V14.01,2013-04-01 12:45:00,
2013-04-01 08:46:00,38.6,30.4,29.99,NNE,20,2.0,5.0,72,0.00,,---,0.00,VWS V14.01,2013-04-01 12:46:00,
2013-04-01 08:47:00,38.6,30.7,30.00,NNE,20,0.0,2.0,73,0.00,,---,0.00,VWS V14.01,2013-04-01 12:47:00,
2013-04-01 08:48:00,38.6,30.7,30.00,NNE,20,0.0,0.0,73,0.00,,---,0.00,VWS V14.01,2013-04-01 12:48:00,
2013-04-01 08:49:00,38.6,30.7,30.00,WNW,292,2.0,2.0,73,0.00,,---,0.00,VWS V14.01,2013-04-01 12:49:00,
2013-04-01 08:50:00,38.7,30.8,30.00,WNW,293,0.0,2.0,73,0.00,,---,0.00,VWS V14.01,2013-04-01 12:50:00,
2013-04-01 08:51:00,38.7,30.8,30.00,WNW,294,1.0,3.0,73,0.00,,---,0.00,VWS V14.01,2013-04-01 12:51:00,
2013-04-01 08:52:00,38.7,30.8,30.00,WNW,295,0.0,1.0,73,0.00,,---,0.00,VWS V14.01,2013-04-01 12:52:00,
2013-04-01 08:53:00,38.7,30.8,30.00,North,360,1.0,4.0,73,0.00,,---,0.00,VWS V14.01,2013-04-01 12:53:00,
2013-04-01 08:54:00,38.7,30.8,30.00,North,360,1.0,4.0,73,0.00,,---,0.00,VWS V14.01,2013-04-01 12:54:00,
2013-04-01 08:55:00,38.7,30.8,30.00,NNW,334,0.0,3.0,73,0.00,,---,0.00,VWS V14.01,2013-04-01 12:55:00,
2013-04-01 08:56:00,38.7,30.8,30.00,NW,321,2.0,4.0,73,0.00,,---,0.00,VWS V14.01,2013-04-01 12:56:00,
2013-04-01 08:57:00,38.7,30.5,30.00,NNW,336,0.0,4.0,72,0.00,,---,0.00,VWS V14.01,2013-04-01 12:57:00,
2013-04-01 08:58:00,38.7,30.8,30.00,NNW,329,0.0,1.0,73,0.00,,---,0.00,VWS V14.01,2013-04-01 12:58:00,
2013-04-01 08:59:00,38.8,30.9,30.00,NNW,332,0.0,0.0,73,0.00,,---,0.00,VWS V14.01,2013-04-01 12:59:00,
2013-04-01 09:00:00,38.8,30.9,30.00,NNW,332,0.0,0.0,73,0.00,,---,0.00,VWS V14.01,2013-04-01 13:00:00,
2013-04-01 09:01:00,38.8,30.9,30.00,NW,314,1.0,3.0,73,0.00,,---,0.00,VWS V14.01,2013-04-01 13:01:00,
2013-04-01 09:02:00,38.8,30.9,30.00,North,9,3.0,3.0,73,0.00,,---,0.00,VWS V14.01,2013-04-01 13:02:00,
2013-04-01 09:03:00,38.8,30.9,30.00,NW,308,0.0,4.0,73,0.00,,---,0.00,VWS V14.01,2013-04-01 13:03:00,
2013-04-01 09:04:00,38.8,30.9,30.00,NNW,342,3.0,9.0,73,0.00,,---,0.00,VWS V14.01,2013-04-01 13:04:00,
2013-04-01 09:05:00,38.8,30.9,30.00,NNW,342,3.0,9.0,73,0.00,,---,0.00,VWS V14.01,2013-04-01 13:05:00,
2013-04-01 09:06:00,38.7,30.8,30.00,NNW,336,3.0,5.0,73,0.00,,---,0.00,VWS V14.01,2013-04-01 13:06:00,
2013-04-01 09:07:00,38.7,30.8,30.00,NNW,346,4.0,6.0,73,0.00,,---,0.00,VWS V14.01,2013-04-01 13:07:00,
2013-04-01 09:08:00,38.7,30.8,30.00,North,355,5.0,7.0,73,0.00,,---,0.00,VWS V14.01,2013-04-01 13:08:00,
2013-04-01 09:09:00,38.7,30.8,30.00,NNW,340,0.0,5.0,73,0.00,,---,0.00,VWS V14.01,2013-04-01 13:09:00,
2013-04-01 09:10:00,38.7,30.8,30.00,NNW,340,0.0,5.0,73,0.00,,---,0.00,VWS V14.01,2013-04-01 13:10:00,
2013-04-01 09:11:00,38.7,31.1,30.00,NNW,343,3.0,5.0,74,0.00,,---,0.00,VWS V14.01,2013-04-01 13:11:00,
2013-04-01 09:12:00,38.6,30.7,30.00,North,5,0.0,5.0,73,0.00,,---,0.00,VWS V14.01,2013-04-01 13:12:00,
2013-04-01 09:13:00,38.6,31.0,30.00,NW,326,0.0,4.0,74,0.00,,---,0.00,VWS V14.01,2013-04-01 13:13:00,
2013-04-01 09:14:00,38.6,31.0,30.00,NNW,327,0.0,1.0,74,0.00,,---,0.00,VWS V14.01,2013-04-01 13:14:00,
2013-04-01 09:15:00,38.6,31.0,30.00,NNW,327,0.0,1.0,74,0.00,,---,0.00,VWS V14.01,2013-04-01 13:15:00,
2013-04-01 09:16:00,38.6,31.0,30.00,NNW,333,1.0,1.0,74,0.00,,---,0.00,VWS V14.01,2013-04-01 13:16:00,
2013-04-01 09:17:00,38.6,31.0,30.00,North,349,4.0,5.0,74,0.00,,---,0.00,VWS V14.01,2013-04-01 13:17:00,
2013-04-01 09:18:00,38.6,31.0,30.00,NNW,331,0.0,9.0,74,0.00,,---,0.00,VWS V14.01,2013-04-01 13:18:00,
2013-04-01 09:19:00,38.6,31.0,30.00,NNE,19,4.0,6.0,74,0.00,,---,0.00,VWS V14.01,2013-04-01 13:19:00,
2013-04-01 09:20:00,38.6,31.0,30.00,NNE,19,4.0,6.0,74,0.00,,---,0.00,VWS V14.01,2013-04-01 13:20:00,
2013-04-01 09:21:00,38.6,30.7,30.00,North,355,4.0,9.0,73,0.00,,---,0.00,VWS V14.01,2013-04-01 13:21:00,
2013-04-01 09:22:00,38.5,30.6,30.00,North,360,4.0,8.0,73,0.00,,---,0.00,VWS V14.01,2013-04-01 13:22:00,
2013-04-01 09:23:00,38.4,30.5,30.00,North,355,9.0,9.0,73,0.00,,---,0.00,VWS V14.01,2013-04-01 13:23:00,
2013-04-01 09:24:00,38.2,30.3,30.01,North,355,7.0,10.0,73,0.00,,---,0.00,VWS V14.01,2013-04-01 13:24:00,
2013-04-01 09:25:00,38.2,30.3,30.01,North,355,7.0,10.0,73,0.00,,---,0.00,VWS V14.01,2013-04-01 13:25:00,
2013-04-01 09:26:00,38.2,30.3,30.01,NNW,345,4.0,7.0,73,0.00,,---,0.00,VWS V14.01,2013-04-01 13:26:00,
2013-04-01 09:27:00,38.1,30.2,30.01,North,360,0.0,5.0,73,0.00,,---,0.00,VWS V14.01,2013-04-01 13:27:00,
2013-04-01 09:28:00,38.0,30.5,30.01,North,5,5.0,5.0,74,0.00,,---,0.00,VWS V14.01,2013-04-01 13:28:00,
2013-04-01 09:29:00,38.0,30.8,30.01,NNE,16,5.0,9.0,75,0.00,,---,0.00,VWS V14.01,2013-04-01 13:29:00,
2013-04-01 09:30:00,38.0,30.8,30.01,NNE,16,5.0,9.0,75,0.00,,---,0.00,VWS V14.01,2013-04-01 13:30:00,
2013-04-01 09:31:00,37.9,30.7,30.01,North,5,4.0,9.0,75,0.00,,---,0.00,VWS V14.01,2013-04-01 13:31:00,
2013-04-01 09:32:00,37.8,30.9,30.01,NNW,330,2.0,7.0,76,0.00,,---,0.00,VWS V14.01,2013-04-01 13:32:00,
2013-04-01 09:33:00,37.7,30.8,30.01,NNW,348,2.0,3.0,76,0.00,,---,0.00,VWS V14.01,2013-04-01 13:33:00,
2013-04-01 09:34:00,37.6,31.1,30.01,NNW,338,2.0,6.0,77,0.00,,---,0.00,VWS V14.01,2013-04-01 13:34:00,
2013-04-01 09:35:00,37.6,31.1,30.01,NNW,338,2.0,6.0,77,0.00,,---,0.00,VWS V14.01,2013-04-01 13:35:00,
2013-04-01 09:36:00,37.6,31.4,30.01,North,5,1.0,7.0,78,0.00,,---,0.00,VWS V14.01,2013-04-01 13:36:00,
2013-04-01 09:37:00,37.5,31.3,30.01,NW,315,2.0,2.0,78,0.00,,---,0.00,VWS V14.01,2013-04-01 13:37:00,
2013-04-01 09:38:00,37.5,31.6,30.01,North,349,3.0,3.0,79,0.00,,---,0.00,VWS V14.01,2013-04-01 13:38:00,
2013-04-01 09:39:00,37.5,31.6,30.01,North,5,6.0,6.0,79,0.00,,---,0.00,VWS V14.01,2013-04-01 13:39:00,
2013-04-01 09:40:00,37.5,31.6,30.01,North,5,6.0,6.0,79,0.00,,---,0.00,VWS V14.01,2013-04-01 13:40:00,
2013-04-01 09:41:00,37.4,31.8,30.01,NNW,345,2.0,7.0,80,0.00,,---,0.00,VWS V14.01,2013-04-01 13:41:00,
2013-04-01 09:42:00,37.4,31.8,30.01,NNE,30,1.0,4.0,80,0.00,,---,0.00,VWS V14.01,2013-04-01 13:42:00,
2013-04-01 09:43:00,37.4,31.8,30.01,WNW,302,0.0,2.0,80,0.00,,---,0.00,VWS V14.01,2013-04-01 13:43:00,
2013-04-01 09:44:00,37.4,32.1,30.01,North,349,1.0,3.0,81,0.00,,---,0.00,VWS V14.01,2013-04-01 13:44:00,
2013-04-01 09:45:00,37.4,32.1,30.01,North,349,1.0,3.0,81,0.00,,---,0.00,VWS V14.01,2013-04-01 13:45:00,
2013-04-01 09:46:00,37.5,32.2,30.01,NNW,327,2.0,4.0,81,0.00,,---,0.00,VWS V14.01,2013-04-01 13:46:00,
2013-04-01 09:47:00,37.5,32.2,30.01,WNW,288,0.0,4.0,81,0.00,,---,0.00,VWS V14.01,2013-04-01 13:47:00,
2013-04-01 09:48:00,37.5,32.2,30.01,NNE,15,0.0,1.0,81,0.00,,---,0.00,VWS V14.01,2013-04-01 13:48:00,
2013-04-01 09:49:00,37.6,32.6,30.02,North,5,6.0,7.0,82,0.00,,---,0.00,VWS V14.01,2013-04-01 13:49:00,
2013-04-01 09:50:00,37.6,32.6,30.02,North,5,6.0,7.0,82,0.00,,---,0.00,VWS V14.01,2013-04-01 13:50:00,
2013-04-01 09:51:00,37.5,32.2,30.01,North,349,2.0,6.0,81,0.00,,---,0.00,VWS V14.01,2013-04-01 13:51:00,
2013-04-01 09:52:00,37.5,31.9,30.01,NNW,345,0.0,4.0,80,0.00,,---,0.00,VWS V14.01,2013-04-01 13:52:00,
2013-04-01 09:53:00,37.5,32.2,30.01,North,355,1.0,3.0,81,0.00,,---,0.00,VWS V14.01,2013-04-01 13:53:00,
2013-04-01 09:54:00,37.5,32.2,30.01,North,9,0.0,1.0,81,0.00,,---,0.00,VWS V14.01,2013-04-01 13:54:00,
2013-04-01 09:55:00,37.5,32.2,30.01,North,9,0.0,1.0,81,0.00,,---,0.00,VWS V14.01,2013-04-01 13:55:00,
2013-04-01 09:56:00,37.6,32.3,30.01,NW,309,0.0,4.0,81,0.00,,---,0.00,VWS V14.01,2013-04-01 13:56:00,
2013-04-01 09:57:00,37.6,32.3,30.01,NNW,333,2.0,5.0,81,0.00,,---,0.00,VWS V14.01,2013-04-01 13:57:00,
2013-04-01 09:58:00,37.6,32.0,30.01,North,360,2.0,4.0,80,0.00,,---,0.00,VWS V14.01,2013-04-01 13:58:00,
2013-04-01 09:59:00,37.7,32.1,30.01,NW,323,0.0,5.0,80,0.00,,---,0.00,VWS V14.01,2013-04-01 13:59:00,
2013-04-01 10:00:00,37.7,32.1,30.01,NW,323,0.0,5.0,80,0.00,,---,0.00,VWS V14.01,2013-04-01 14:00:00,
2013-04-01 10:01:00,37.7,32.1,30.01,NW,323,0.0,1.0,80,0.00,,---,0.00,VWS V14.01,2013-04-01 14:01:00,
2013-04-01 10:02:00,37.7,31.8,30.01,NW,306,1.0,4.0,79,0.00,,---,0.00,VWS V14.01,2013-04-01 14:02:00,
2013-04-01 10:03:00,37.7,31.8,30.01,NW,306,0.0,2.0,79,0.00,,---,0.00,VWS V14.01,2013-04-01 14:03:00,
2013-04-01 10:04:00,37.9,32.3,30.01,NW,306,0.0,0.0,80,0.00,,---,0.00,VWS V14.01,2013-04-01 14:04:00,
2013-04-01 10:05:00,37.9,32.3,30.01,NW,306,0.0,0.0,80,0.00,,---,0.00,VWS V14.01,2013-04-01 14:05:00,
2013-04-01 10:06:00,38.0,32.4,30.01,NW,306,0.0,1.0,80,0.00,,---,0.00,VWS V14.01,2013-04-01 14:06:00,
2013-04-01 10:07:00,38.1,32.2,30.01,NW,306,0.0,0.0,79,0.00,,---,0.00,VWS V14.01,2013-04-01 14:07:00,
2013-04-01 10:08:00,38.1,32.2,30.02,NW,306,0.0,0.0,79,0.00,,---,0.00,VWS V14.01,2013-04-01 14:08:00,
2013-04-01 10:09:00,38.4,32.5,30.02,NNW,333,0.0,4.0,79,0.00,,---,0.00,VWS V14.01,2013-04-01 14:09:00,
2013-04-01 10:10:00,38.4,32.5,30.02,NNW,333,0.0,4.0,79,0.00,,---,0.00,VWS V14.01,2013-04-01 14:10:00,
2013-04-01 10:11:00,38.4,32.2,30.02,NNW,333,0.0,1.0,78,0.00,,---,0.00,VWS V14.01,2013-04-01 14:11:00,
2013-04-01 10:12:00,38.5,32.2,30.02,NW,311,0.0,4.0,78,0.00,,---,0.00,VWS V14.01,2013-04-01 14:12:00,
2013-04-01 10:13:00,38.6,32.0,30.02,WNW,296,2.0,2.0,77,0.00,,---,0.00,VWS V14.01,2013-04-01 14:13:00,
2013-04-01 10:14:00,38.6,32.0,30.02,WNW,296,0.0,2.0,77,0.00,,---,0.00,VWS V14.01,2013-04-01 14:14:00,
2013-04-01 10:15:00,38.8,32.2,30.01,NNW,331,0.0,2.0,77,0.00,,---,0.00,VWS V14.01,2013-04-01 14:15:00,
2013-04-01 10:16:00,38.8,32.2,30.01,NNW,331,0.0,2.0,77,0.00,,---,0.00,VWS V14.01,2013-04-01 14:16:00,
2013-04-01 10:17:00,38.9,32.3,30.01,WNW,301,1.0,3.0,77,0.00,,---,0.00,VWS V14.01,2013-04-01 14:17:00,
2013-04-01 10:18:00,39.1,32.5,30.02,NW,304,0.0,1.0,77,0.00,,---,0.00,VWS V14.01,2013-04-01 14:18:00,
2013-04-01 10:19:00,39.2,32.6,30.02,WNW,296,0.0,3.0,77,0.00,,---,0.00,VWS V14.01,2013-04-01 14:19:00,
2013-04-01 10:20:00,39.4,32.5,30.02,NNW,342,2.0,6.0,76,0.00,,---,0.00,VWS V14.01,2013-04-01 14:20:00,
2013-04-01 10:21:00,39.4,32.5,30.02,NNW,342,2.0,6.0,76,0.00,,---,0.00,VWS V14.01,2013-04-01 14:21:00,
2013-04-01 10:22:00,39.4,31.8,30.02,NW,325,0.0,4.0,74,0.00,,---,0.00,VWS V14.01,2013-04-01 14:22:00,
2013-04-01 10:23:00,39.4,31.5,30.02,NNW,329,0.0,1.0,73,0.00,,---,0.00,VWS V14.01,2013-04-01 14:23:00,
2013-04-01 10:24:00,39.5,31.9,30.02,NW,320,1.0,3.0,74,0.00,,---,0.00,VWS V14.01,2013-04-01 14:24:00,
2013-04-01 10:25:00,39.5,31.9,30.02,WNW,297,0.0,0.0,74,0.00,,---,0.00,VWS V14.01,2013-04-01 14:25:00,
2013-04-01 10:26:00,39.5,31.9,30.02,WNW,297,0.0,0.0,74,0.00,,---,0.00,VWS V14.01,2013-04-01 14:26:00,
2013-04-01 10:27:00,39.5,31.9,30.02,WNW,297,0.0,0.0,74,0.00,,---,0.00,VWS V14.01,2013-04-01 14:27:00,
2013-04-01 10:28:00,39.5,31.9,30.02,WNW,288,4.0,4.0,74,0.00,,---,0.00,VWS V14.01,2013-04-01 14:28:00,
2013-04-01 10:29:00,39.6,32.0,30.02,WNW,294,1.0,4.0,74,0.00,,---,0.00,VWS V14.01,2013-04-01 14:29:00,
2013-04-01 10:30:00,39.6,32.0,30.02,NW,319,0.0,2.0,74,0.00,,---,0.00,VWS V14.01,2013-04-01 14:30:00,
2013-04-01 10:31:00,39.6,31.7,30.02,NW,319,0.0,0.0,73,0.00,,---,0.00,VWS V14.01,2013-04-01 14:31:00,
2013-04-01 10:32:00,39.6,31.7,30.02,WSW,242,0.0,3.0,73,0.00,,---,0.00,VWS V14.01,2013-04-01 14:32:00,
2013-04-01 10:33:00,39.6,31.7,30.02,WSW,242,0.0,1.0,73,0.00,,---,0.00,VWS V14.01,2013-04-01 14:33:00,
2013-04-01 10:34:00,39.6,31.7,30.02,North,5,0.0,4.0,73,0.00,,---,0.00,VWS V14.01,2013-04-01 14:34:00,
2013-04-01 10:35:00,39.6,32.0,30.02,WNW,301,0.0,4.0,74,0.00,,---,0.00,VWS V14.01,2013-04-01 14:35:00,
2013-04-01 10:36:00,39.6,31.7,30.02,NW,307,3.0,3.0,73,0.00,,---,0.00,VWS V14.01,2013-04-01 14:36:00,
2013-04-01 10:37:00,39.6,31.7,30.02,WNW,294,3.0,4.0,73,0.00,,---,0.00,VWS V14.01,2013-04-01 14:37:00,
2013-04-01 10:38:00,39.6,31.7,30.02,WNW,294,3.0,4.0,73,0.00,,---,0.00,VWS V14.01,2013-04-01 14:38:00,
2013-04-01 10:39:00,39.6,31.7,30.02,WNW,293,0.0,3.0,73,0.00,,---,0.00,VWS V14.01,2013-04-01 14:39:00,
2013-04-01 10:40:00,39.6,31.7,30.03,WNW,293,0.0,1.0,73,0.00,,---,0.00,VWS V14.01,2013-04-01 14:40:00,
2013-04-01 10:41:00,39.5,31.6,30.02,NW,315,0.0,4.0,73,0.00,,---,0.00,VWS V14.01,2013-04-01 14:41:00,
2013-04-01 10:42:00,39.5,31.6,30.03,NNE,30,0.0,2.0,73,0.00,,---,0.00,VWS V14.01,2013-04-01 14:42:00,
2013-04-01 10:43:00,39.5,31.6,30.03,NNE,30,0.0,2.0,73,0.00,,---,0.00,VWS V14.01,2013-04-01 14:43:00,
2013-04-01 10:44:00,39.5,31.2,30.02,NNE,26,0.0,0.0,72,0.00,,---,0.00,VWS V14.01,2013-04-01 14:44:00,
2013-04-01 10:45:00,39.5,31.6,30.03,WNW,289,0.0,3.0,73,0.00,,---,0.00,VWS V14.01,2013-04-01 14:45:00,
2013-04-01 10:46:00,39.5,31.6,30.03,WNW,289,0.0,1.0,73,0.00,,---,0.00,VWS V14.01,2013-04-01 14:46:00,
2013-04-01 10:47:00,39.6,31.7,30.03,NNW,332,0.0,4.0,73,0.00,,---,0.00,VWS V14.01,2013-04-01 14:47:00,
2013-04-01 10:48:00,39.6,31.7,30.03,NNW,332,0.0,4.0,73,0.00,,---,0.00,VWS V14.01,2013-04-01 14:48:00,
2013-04-01 10:49:00,39.6,31.7,30.03,WNW,302,2.0,2.0,73,0.00,,---,0.00,VWS V14.01,2013-04-01 14:49:00,
2013-04-01 10:50:00,39.7,31.8,30.03,NW,314,2.0,3.0,73,0.00,,---,0.00,VWS V14.01,2013-04-01 14:50:00,
2013-04-01 10:51:00,39.7,31.8,30.03,NW,310,0.0,4.0,73,0.00,,---,0.00,VWS V14.01,2013-04-01 14:51:00,
2013-04-01 10:52:00,39.9,31.6,30.03,North,355,1.0,4.0,72,0.00,,---,0.00,VWS V14.01,2013-04-01 14:52:00,
2013-04-01 10:53:00,39.9,31.6,30.03,North,355,1.0,4.0,72,0.00,,---,0.00,VWS V14.01,2013-04-01 14:53:00,
2013-04-01 10:54:00,40.0,31.7,30.03,North,355,0.0,2.0,72,0.00,,---,0.00,VWS V14.01,2013-04-01 14:54:00,
2013-04-01 10:55:00,40.1,31.8,30.03,North,360,1.0,1.0,72,0.00,,---,0.00,VWS V14.01,2013-04-01 14:55:00,
2013-04-01 10:56:00,40.2,32.6,30.03,NNE,27,3.0,3.0,74,0.00,,---,0.00,VWS V14.01,2013-04-01 14:56:00,
2013-04-01 10:57:00,40.4,31.8,30.03,WNW,297,0.0,3.0,71,0.00,,---,0.00,VWS V14.01,2013-04-01 14:57:00,
2013-04-01 10:58:00,40.4,31.8,30.03,WNW,297,0.0,3.0,71,0.00,,---,0.00,VWS V14.01,2013-04-01 14:58:00,
2013-04-01 10:59:00,40.4,31.8,30.03,North,5,0.0,2.0,71,0.00,,---,0.00,VWS V14.01,2013-04-01 14:59:00,
2013-04-01 11:00:00,40.5,31.9,30.03,NNW,344,1.0,1.0,71,0.00,,---,0.00,VWS V14.01,2013-04-01 15:00:00,
2013-04-01 11:01:00,40.5,31.9,30.03,NW,318,2.0,2.0,71,0.00,,---,0.00,VWS V14.01,2013-04-01 15:01:00,
2013-04-01 11:02:00,40.5,31.5,30.03,West,275,5.0,5.0,70,0.00,,---,0.00,VWS V14.01,2013-04-01 15:02:00,
2013-04-01 11:03:00,40.5,31.5,30.03,West,275,5.0,5.0,70,0.00,,---,0.00,VWS V14.01,2013-04-01 15:03:00,
2013-04-01 11:04:00,40.5,31.5,30.03,NW,306,3.0,6.0,70,0.00,,---,0.00,VWS V14.01,2013-04-01 15:04:00,
2013-04-01 11:05:00,40.4,30.7,30.03,NW,307,0.0,4.0,68,0.00,,---,0.00,VWS V14.01,2013-04-01 15:05:00,
2013-04-01 11:06:00,40.3,31.0,30.03,NW,304,3.0,3.0,69,0.00,,---,0.00,VWS V14.01,2013-04-01 15:06:00,
2013-04-01 11:07:00,40.2,31.2,30.03,NW,316,0.0,5.0,70,0.00,,---,0.00,VWS V14.01,2013-04-01 15:07:00,
2013-04-01 11:08:00,40.2,31.2,30.03,NW,316,0.0,5.0,70,0.00,,---,0.00,VWS V14.01,2013-04-01 15:08:00,
2013-04-01 11:09:00,40.2,30.9,30.04,NNE,19,0.0,4.0,69,0.00,,---,0.00,VWS V14.01,2013-04-01 15:09:00,
2013-04-01 11:10:00,40.2,31.2,30.04,NNW,343,1.0,2.0,70,0.00,,---,0.00,VWS V14.01,2013-04-01 15:10:00,
2013-04-01 11:11:00,40.2,30.9,30.04,NW,309,2.0,3.0,69,0.00,,---,0.00,VWS V14.01,2013-04-01 15:11:00,
2013-04-01 11:12:00,40.2,30.5,30.04,NNE,24,0.0,4.0,68,0.00,,---,0.00,VWS V14.01,2013-04-01 15:12:00,
2013-04-01 11:13:00,40.2,30.5,30.04,NNE,24,0.0,4.0,68,0.00,,---,0.00,VWS V14.01,2013-04-01 15:13:00,
2013-04-01 11:14:00,40.2,30.9,30.03,North,355,2.0,4.0,69,0.00,,---,0.00,VWS V14.01,2013-04-01 15:14:00,
2013-04-01 11:15:00,40.2,30.9,30.04,North,350,0.0,2.0,69,0.00,,---,0.00,VWS V14.01,2013-04-01 15:15:00,
2013-04-01 11:16:00,40.3,31.0,30.04,North,5,0.0,2.0,69,0.00,,---,0.00,VWS V14.01,2013-04-01 15:16:00,
2013-04-01 11:17:00,40.4,31.4,30.04,North,351,0.0,4.0,70,0.00,,---,0.00,VWS V14.01,2013-04-01 15:17:00,
2013-04-01 11:18:00,40.4,31.4,30.04,North,351,0.0,4.0,70,0.00,,---,0.00,VWS V14.01,2013-04-01 15:18:00,
2013-04-01 11:19:00,40.5,31.5,30.04,NNE,32,0.0,1.0,70,0.00,,---,0.00,VWS V14.01,2013-04-01 15:19:00,
2013-04-01 11:20:00,40.5,30.4,30.04,NNW,347,0.0,11.0,67,0.00,,---,0.00,VWS V14.01,2013-04-01 15:20:00,
2013-04-01 11:21:00,40.5,30.4,30.04,NNE,17,0.0,3.0,67,0.00,,---,0.00,VWS V14.01,2013-04-01 15:21:00,
2013-04-01 11:22:00,40.6,30.9,30.04,NNW,328,2.0,5.0,68,0.00,,---,0.00,VWS V14.01,2013-04-01 15:22:00,
2013-04-01 11:23:00,40.6,30.9,30.04,NNW,328,2.0,5.0,68,0.00,,---,0.00,VWS V14.01,2013-04-01 15:23:00,
2013-04-01 11:24:00,40.6,30.5,30.04,NW,308,0.0,4.0,67,0.00,,---,0.00,VWS V14.01,2013-04-01 15:24:00,
2013-04-01 11:25:00,40.6,30.5,30.04,NNW,336,1.0,5.0,67,0.00,,---,0.00,VWS V14.01,2013-04-01 15:25:00,
2013-04-01 11:26:00,40.6,30.9,30.04,NNW,327,3.0,4.0,68,0.00,,---,0.00,VWS V14.01,2013-04-01 15:26:00,
2013-04-01 11:27:00,40.5,30.4,30.04,North,5,1.0,4.0,67,0.00,,---,0.00,VWS V14.01,2013-04-01 15:27:00,
2013-04-01 11:28:00,40.5,30.4,30.04,North,5,1.0,4.0,67,0.00,,---,0.00,VWS V14.01,2013-04-01 15:28:00,
2013-04-01 11:29:00,40.5,30.4,30.04,NNW,348,3.0,3.0,67,0.00,,---,0.00,VWS V14.01,2013-04-01 15:29:00,
2013-04-01 11:30:00,40.5,30.8,30.04,NNE,24,0.0,4.0,68,0.00,,---,0.00,VWS V14.01,2013-04-01 15:30:00,
2013-04-01 11:31:00,40.6,30.9,30.04,NNW,333,3.0,3.0,68,0.00,,---,0.00,VWS V14.01,2013-04-01 15:31:00,
2013-04-01 11:32:00,40.6,31.2,30.04,NNE,24,0.0,4.0,69,0.00,,---,0.00,VWS V14.01,2013-04-01 15:32:00,
2013-04-01 11:33:00,40.7,31.0,30.04,NW,325,1.0,1.0,68,0.00,,---,0.00,VWS V14.01,2013-04-01 15:33:00,
2013-04-01 11:34:00,40.7,31.0,30.04,NW,325,1.0,1.0,68,0.00,,---,0.00,VWS V14.01,2013-04-01 15:34:00,
2013-04-01 11:35:00,40.8,32.1,30.04,NW,325,2.0,4.0,71,0.00,,---,0.00,VWS V14.01,2013-04-01 15:35:00,
2013-04-01 11:36:00,41.0,32.3,30.04,NW,304,0.0,3.0,71,0.00,,---,0.00,VWS V14.01,2013-04-01 15:36:00,
2013-04-01 11:37:00,41.2,32.5,30.04,NW,308,4.0,6.0,71,0.00,,---,0.00,VWS V14.01,2013-04-01 15:37:00,
2013-04-01 11:38:00,41.4,32.0,30.04,WNW,300,1.0,5.0,69,0.00,,---,0.00,VWS V14.01,2013-04-01 15:38:00,
2013-04-01 11:39:00,41.5,31.7,30.04,NNW,329,5.0,5.0,68,0.00,,---,0.00,VWS V14.01,2013-04-01 15:39:00,
2013-04-01 11:40:00,41.5,31.7,30.04,NNW,329,5.0,5.0,68,0.00,,---,0.00,VWS V14.01,2013-04-01 15:40:00,
2013-04-01 11:41:00,41.5,31.4,30.04,NW,316,0.0,5.0,67,0.00,,---,0.00,VWS V14.01,2013-04-01 15:41:00,
2013-04-01 11:42:00,41.5,31.4,30.04,North,360,4.0,4.0,67,0.00,,---,0.00,VWS V14.01,2013-04-01 15:42:00,
2013-04-01 11:43:00,41.5,31.4,30.04,WNW,282,3.0,4.0,67,0.00,,---,0.00,VWS V14.01,2013-04-01 15:43:00,
2013-04-01 11:44:00,41.6,32.6,30.04,WNW,295,0.0,1.0,70,0.00,,---,0.00,VWS V14.01,2013-04-01 15:44:00,
2013-04-01 11:45:00,41.6,32.6,30.04,WNW,295,0.0,1.0,70,0.00,,---,0.00,VWS V14.01,2013-04-01 15:45:00,
2013-04-01 11:46:00,41.7,33.0,30.04,NNW,345,4.0,4.0,71,0.00,,---,0.00,VWS V14.01,2013-04-01 15:46:00,
2013-04-01 11:47:00,41.9,32.5,30.04,North,360,0.0,4.0,69,0.00,,---,0.00,VWS V14.01,2013-04-01 15:47:00,
2013-04-01 11:48:00,42.0,32.6,30.04,North,360,0.0,1.0,69,0.00,,---,0.00,VWS V14.01,2013-04-01 15:48:00,
2013-04-01 11:49:00,42.1,32.7,30.04,NNE,19,2.0,3.0,69,0.00,,---,0.00,VWS V14.01,2013-04-01 15:49:00,
2013-04-01 11:50:00,42.2,32.4,30.04,NW,316,0.0,3.0,68,0.00,,---,0.00,VWS V14.01,2013-04-01 15:50:00,
2013-04-01 11:51:00,42.4,33.0,30.04,NE,42,0.0,2.0,69,0.00,,---,0.00,VWS V14.01,2013-04-01 15:51:00,
2013-04-01 11:52:00,42.5,33.1,30.04,ENE,58,0.0,4.0,69,0.00,,---,0.00,VWS V14.01,2013-04-01 15:52:00,
2013-04-01 11:53:00,42.7,33.2,30.04,NNE,27,0.0,2.0,69,0.00,,---,0.00,VWS V14.01,2013-04-01 15:53:00,
2013-04-01 11:54:00,42.7,32.2,30.04,NNW,327,1.0,6.0,66,0.00,,---,0.00,VWS V14.01,2013-04-01 15:54:00,
2013-04-01 11:55:00,42.7,31.8,30.04,NNW,336,0.0,5.0,65,0.00,,---,0.00,VWS V14.01,2013-04-01 15:55:00,
2013-04-01 11:56:00,42.7,31.8,30.04,NNW,336,0.0,5.0,65,0.00,,---,0.00,VWS V14.01,2013-04-01 15:56:00,
2013-04-01 11:57:00,42.7,32.2,30.04,NNW,329,1.0,3.0,66,0.00,,---,0.00,VWS V14.01,2013-04-01 15:57:00,
2013-04-01 11:58:00,42.6,31.7,30.04,WNW,296,4.0,6.0,65,0.00,,---,0.00,VWS V14.01,2013-04-01 15:58:00,
2013-04-01 11:59:00,42.5,31.2,30.04,NW,314,1.0,5.0,64,0.00,,---,0.00,VWS V14.01,2013-04-01 15:59:00,
2013-04-01 12:00:00,42.2,30.9,30.04,WNW,294,0.0,1.0,64,0.00,,---,0.00,VWS V14.01,2013-04-01 16:00:00,
2013-04-01 12:01:00,42.2,30.9,30.04,WNW,294,0.0,1.0,64,0.00,,---,0.00,VWS V14.01,2013-04-01 16:01:00,
2013-04-01 12:02:00,42.1,31.2,30.04,WNW,294,0.0,2.0,65,0.00,,---,0.00,VWS V14.01,2013-04-01 16:02:00,
2013-04-01 12:03:00,42.0,31.1,30.04,WNW,294,0.0,0.0,65,0.00,,---,0.00,VWS V14.01,2013-04-01 16:03:00,
2013-04-01 12:04:00,42.0,31.5,30.04,NW,306,3.0,3.0,66,0.00,,---,0.00,VWS V14.01,2013-04-01 16:04:00,
2013-04-01 12:05:00,41.9,31.4,30.04,SW,227,1.0,7.0,66,0.00,,---,0.00,VWS V14.01,2013-04-01 16:05:00,
2013-04-01 12:06:00,41.8,30.9,30.04,NW,317,0.0,4.0,65,0.00,,---,0.00,VWS V14.01,2013-04-01 16:06:00,
2013-04-01 12:07:00,41.7,31.2,30.05,NW,304,1.0,1.0,66,0.00,,---,0.00,VWS V14.01,2013-04-01 16:07:00,
2013-04-01 12:08:00,41.7,31.2,30.04,NW,306,0.0,3.0,66,0.00,,---,0.00,VWS V14.01,2013-04-01 16:08:00,
2013-04-01 12:09:00,41.8,31.7,30.04,NW,306,1.0,1.0,67,0.00,,---,0.00,VWS V14.01,2013-04-01 16:09:00,
2013-04-01 12:10:00,41.9,32.5,30.04,NW,315,0.0,4.0,69,0.00,,---,0.00,VWS V14.01,2013-04-01 16:10:00,
2013-04-01 12:11:00,42.0,31.9,30.04,WNW,298,2.0,3.0,67,0.00,,---,0.00,VWS V14.01,2013-04-01 16:11:00,
2013-04-01 12:12:00,42.2,32.4,30.04,WNW,291,2.0,3.0,68,0.00,,---,0.00,VWS V14.01,2013-04-01 16:12:00,
2013-04-01 12:13:00,42.2,32.4,30.04,WNW,291,2.0,3.0,68,0.00,,---,0.00,VWS V14.01,2013-04-01 16:13:00,
2013-04-01 12:14:00,42.4,32.2,30.04,NNW,340,2.0,2.0,67,0.00,,---,0.00,VWS V14.01,2013-04-01 16:14:00,
2013-04-01 12:15:00,42.5,32.0,30.04,NNW,329,4.0,4.0,66,0.00,,---,0.00,VWS V14.01,2013-04-01 16:15:00,
2013-04-01 12:16:00,42.7,32.5,30.04,NW,313,0.0,4.0,67,0.00,,---,0.00,VWS V14.01,2013-04-01 16:16:00,
2013-04-01 12:17:00,43.0,32.4,30.04,NNW,343,0.0,3.0,66,0.00,,---,0.00,VWS V14.01,2013-04-01 16:17:00,
2013-04-01 12:18:00,43.0,32.4,30.04,NNW,343,0.0,3.0,66,0.00,,---,0.00,VWS V14.01,2013-04-01 16:18:00,
2013-04-01 12:19:00,43.1,31.8,30.04,NW,319,0.0,3.0,64,0.00,,---,0.00,VWS V14.01,2013-04-01 16:19:00,
2013-04-01 12:20:00,43.2,31.9,30.04,NW,319,0.0,0.0,64,0.00,,---,0.00,VWS V14.01,2013-04-01 16:20:00,
2013-04-01 12:21:00,43.2,31.9,30.04,NW,313,4.0,5.0,64,0.00,,---,0.00,VWS V14.01,2013-04-01 16:21:00,
2013-04-01 12:22:00,43.1,31.0,30.04,WNW,288,1.0,4.0,62,0.00,,---,0.00,VWS V14.01,2013-04-01 16:22:00,
2013-04-01 12:23:00,43.1,31.0,30.04,WNW,288,1.0,4.0,62,0.00,,---,0.00,VWS V14.01,2013-04-01 16:23:00,
2013-04-01 12:24:00,43.0,30.9,30.04,NNW,337,6.0,6.0,62,0.00,,---,0.00,VWS V14.01,2013-04-01 16:24:00,
2013-04-01 12:25:00,42.9,30.0,30.04,North,360,4.0,6.0,60,0.00,,---,0.00,VWS V14.01,2013-04-01 16:25:00,
2013-04-01 12:26:00,42.8,29.5,30.04,NNW,347,0.0,4.0,59,0.00,,---,0.00,VWS V14.01,2013-04-01 16:26:00,
2013-04-01 12:27:00,42.7,29.0,30.04,North,350,0.0,3.0,58,0.00,,---,0.00,VWS V14.01,2013-04-01 16:27:00,
2013-04-01 12:28:00,42.7,29.0,30.04,North,350,0.0,3.0,58,0.00,,---,0.00,VWS V14.01,2013-04-01 16:28:00,
2013-04-01 12:29:00,42.7,29.0,30.04,NW,323,3.0,7.0,58,0.00,,---,0.00,VWS V14.01,2013-04-01 16:29:00,
2013-04-01 12:30:00,42.6,28.9,30.04,WNW,297,0.0,5.0,58,0.00,,---,0.00,VWS V14.01,2013-04-01 16:30:00,
2013-04-01 12:31:00,42.6,28.9,30.04,WNW,294,3.0,6.0,58,0.00,,---,0.00,VWS V14.01,2013-04-01 16:31:00,
2013-04-01 12:32:00,42.5,28.8,30.04,NW,315,2.0,6.0,58,0.00,,---,0.00,VWS V14.01,2013-04-01 16:32:00,
2013-04-01 12:33:00,42.7,30.2,30.04,North,355,0.0,1.0,61,0.00,,---,0.00,VWS V14.01,2013-04-01 16:33:00,
2013-04-01 12:34:00,42.7,30.2,30.04,North,355,0.0,1.0,61,0.00,,---,0.00,VWS V14.01,2013-04-01 16:34:00,
2013-04-01 12:35:00,42.8,30.3,30.04,North,355,1.0,5.0,61,0.00,,---,0.00,VWS V14.01,2013-04-01 16:35:00,
2013-04-01 12:36:00,42.8,28.6,30.04,NNW,346,1.0,3.0,57,0.00,,---,0.00,VWS V14.01,2013-04-01 16:36:00,
2013-04-01 12:37:00,42.9,28.7,30.04,WNW,284,4.0,4.0,57,0.00,,---,0.00,VWS V14.01,2013-04-01 16:37:00,
2013-04-01 12:38:00,42.8,29.1,30.04,NW,309,2.0,2.0,58,0.00,,---,0.00,VWS V14.01,2013-04-01 16:38:00,
2013-04-01 12:39:00,42.8,29.1,30.04,NW,309,2.0,2.0,58,0.00,,---,0.00,VWS V14.01,2013-04-01 16:39:00,
2013-04-01 12:40:00,42.8,28.6,30.04,NE,42,0.0,2.0,57,0.00,,---,0.00,VWS V14.01,2013-04-01 16:40:00,
2013-04-01 12:41:00,42.8,28.6,30.04,NNW,335,2.0,4.0,57,0.00,,---,0.00,VWS V14.01,2013-04-01 16:41:00,
2013-04-01 12:42:00,42.8,28.6,30.04,North,350,1.0,3.0,57,0.00,,---,0.00,VWS V14.01,2013-04-01 16:42:00,
2013-04-01 12:43:00,42.8,28.6,30.05,NNW,342,0.0,2.0,57,0.00,,---,0.00,VWS V14.01,2013-04-01 16:43:00,
2013-04-01 12:44:00,42.7,28.5,30.05,North,355,2.0,4.0,57,0.00,,---,0.00,VWS V14.01,2013-04-01 16:44:00,
2013-04-01 12:45:00,42.7,28.5,30.05,North,355,2.0,4.0,57,0.00,,---,0.00,VWS V14.01,2013-04-01 16:45:00,
2013-04-01 12:46:00,42.7,28.5,30.05,NW,313,3.0,4.0,57,0.00,,---,0.00,VWS V14.01,2013-04-01 16:46:00,
2013-04-01 12:47:00,42.7,28.1,30.05,NNW,341,0.0,4.0,56,0.00,,---,0.00,VWS V14.01,2013-04-01 16:47:00,
2013-04-01 12:48:00,42.7,28.1,30.05,ESE,103,0.0,2.0,56,0.00,,---,0.00,VWS V14.01,2013-04-01 16:48:00,
2013-04-01 12:49:00,42.9,30.0,30.05,WNW,301,2.0,2.0,60,0.00,,---,0.00,VWS V14.01,2013-04-01 16:49:00,
2013-04-01 12:50:00,42.9,30.0,30.05,WNW,301,2.0,2.0,60,0.00,,---,0.00,VWS V14.01,2013-04-01 16:50:00,
2013-04-01 12:51:00,43.1,29.3,30.05,North,5,0.0,3.0,58,0.00,,---,0.00,VWS V14.01,2013-04-01 16:51:00,
2013-04-01 12:52:00,43.3,30.0,30.05,North,355,0.0,1.0,59,0.00,,---,0.00,VWS V14.01,2013-04-01 16:52:00,
2013-04-01 12:53:00,43.6,31.0,30.05,NNW,342,3.0,3.0,61,0.00,,---,0.00,VWS V14.01,2013-04-01 16:53:00,
2013-04-01 12:54:00,44.1,28.1,30.05,WNW,292,2.0,6.0,53,0.00,,---,0.00,VWS V14.01,2013-04-01 16:54:00,
2013-04-01 12:55:00,44.1,28.1,30.05,WNW,292,2.0,6.0,53,0.00,,---,0.00,VWS V14.01,2013-04-01 16:55:00,
2013-04-01 12:56:00,44.3,28.3,30.05,NW,306,1.0,4.0,53,0.00,,---,0.00,VWS V14.01,2013-04-01 16:56:00,
2013-04-01 12:57:00,44.4,28.4,30.05,NW,309,2.0,3.0,53,0.00,,---,0.00,VWS V14.01,2013-04-01 16:57:00,
2013-04-01 12:58:00,44.7,29.5,30.05,NNW,332,5.0,8.0,55,0.00,,---,0.00,VWS V14.01,2013-04-01 16:58:00,
2013-04-01 12:59:00,44.8,27.3,30.04,West,269,0.0,9.0,50,0.00,,---,0.00,VWS V14.01,2013-04-01 16:59:00,
2013-04-01 13:00:00,44.8,27.3,30.04,West,269,0.0,9.0,50,0.00,,---,0.00,VWS V14.01,2013-04-01 17:00:00,
2013-04-01 13:01:00,44.8,27.8,30.04,West,275,4.0,6.0,51,0.00,,---,0.00,VWS V14.01,2013-04-01 17:01:00,
2013-04-01 13:02:00,44.9,28.4,30.04,North,5,2.0,7.0,52,0.00,,---,0.00,VWS V14.01,2013-04-01 17:02:00,
2013-04-01 13:03:00,44.9,28.4,30.05,NNE,24,2.0,3.0,52,0.00,,---,0.00,VWS V14.01,2013-04-01 17:03:00,
2013-04-01 13:04:00,44.9,27.9,30.05,NNE,13,1.0,10.0,51,0.00,,---,0.00,VWS V14.01,2013-04-01 17:04:00,
2013-04-01 13:05:00,44.9,27.9,30.05,NNE,13,1.0,10.0,51,0.00,,---,0.00,VWS V14.01,2013-04-01 17:05:00,
2013-04-01 13:06:00,44.8,28.3,30.05,NNE,24,3.0,4.0,52,0.00,,---,0.00,VWS V14.01,2013-04-01 17:06:00,
2013-04-01 13:07:00,44.7,28.2,30.05,NNW,333,4.0,7.0,52,0.00,,---,0.00,VWS V14.01,2013-04-01 17:07:00,
2013-04-01 13:08:00,44.7,28.2,30.05,NNE,33,0.0,5.0,52,0.00,,---,0.00,VWS V14.01,2013-04-01 17:08:00,
2013-04-01 13:09:00,44.8,28.7,30.05,West,279,5.0,7.0,53,0.00,,---,0.00,VWS V14.01,2013-04-01 17:09:00,
2013-04-01 13:10:00,44.8,28.7,30.05,West,279,5.0,7.0,53,0.00,,---,0.00,VWS V14.01,2013-04-01 17:10:00,
2013-04-01 13:11:00,44.8,27.3,30.05,North,9,7.0,12.0,50,0.00,,---,0.00,VWS V14.01,2013-04-01 17:11:00,
2013-04-01 13:12:00,44.8,26.8,30.05,North,350,2.0,7.0,49,0.00,,---,0.00,VWS V14.01,2013-04-01 17:12:00,
2013-04-01 13:13:00,44.8,27.3,30.05,NNW,333,0.0,4.0,50,0.00,,---,0.00,VWS V14.01,2013-04-01 17:13:00,
2013-04-01 13:14:00,44.8,28.7,30.05,NW,306,2.0,3.0,53,0.00,,---,0.00,VWS V14.01,2013-04-01 17:14:00,
2013-04-01 13:15:00,44.9,29.7,30.05,WNW,298,0.0,2.0,55,0.00,,---,0.00,VWS V14.01,2013-04-01 17:15:00,
2013-04-01 13:16:00,45.1,29.0,30.05,WNW,302,2.0,4.0,53,0.00,,---,0.00,VWS V14.01,2013-04-01 17:16:00,
2013-04-01 13:17:00,45.3,30.1,30.05,West,281,2.0,5.0,55,0.00,,---,0.00,VWS V14.01,2013-04-01 17:17:00,
2013-04-01 13:18:00,45.4,27.4,30.05,WNW,289,3.0,6.0,49,0.00,,---,0.00,VWS V14.01,2013-04-01 17:18:00,
2013-04-01 13:19:00,45.4,26.4,30.05,NW,323,5.0,5.0,47,0.00,,---,0.00,VWS V14.01,2013-04-01 17:19:00,
2013-04-01 13:20:00,45.2,26.7,30.05,NW,322,0.0,2.0,48,0.00,,---,0.00,VWS V14.01,2013-04-01 17:20:00,
2013-04-01 13:21:00,45.2,26.7,30.05,NW,322,0.0,2.0,48,0.00,,---,0.00,VWS V14.01,2013-04-01 17:21:00,
2013-04-01 13:22:00,45.2,27.2,30.05,NW,323,0.0,2.0,49,0.00,,---,0.00,VWS V14.01,2013-04-01 17:22:00,
2013-04-01 13:23:00,45.1,27.6,30.05,NNE,15,0.0,1.0,50,0.00,,---,0.00,VWS V14.01,2013-04-01 17:23:00,
2013-04-01 13:24:00,45.1,28.1,30.05,NNW,333,2.0,3.0,51,0.00,,---,0.00,VWS V14.01,2013-04-01 17:24:00,
2013-04-01 13:25:00,45.3,27.8,30.05,NNE,17,7.0,10.0,50,0.00,,---,0.00,VWS V14.01,2013-04-01 17:25:00,
2013-04-01 13:26:00,45.3,27.8,30.05,NNE,17,7.0,10.0,50,0.00,,---,0.00,VWS V14.01,2013-04-01 17:26:00,
2013-04-01 13:27:00,45.3,26.8,30.05,North,355,4.0,7.0,48,0.00,,---,0.00,VWS V14.01,2013-04-01 17:27:00,
2013-04-01 13:28:00,45.2,26.7,30.05,North,9,5.0,11.0,48,0.00,,---,0.00,VWS V14.01,2013-04-01 17:28:00,
2013-04-01 13:29:00,45.1,26.1,30.05,North,11,5.0,8.0,47,0.00,,---,0.00,VWS V14.01,2013-04-01 17:29:00,
2013-04-01 13:30:00,44.9,25.9,30.05,NNW,338,4.0,7.0,47,0.00,,---,0.00,VWS V14.01,2013-04-01 17:30:00,
2013-04-01 13:31:00,44.9,25.9,30.05,NNW,338,4.0,7.0,47,0.00,,---,0.00,VWS V14.01,2013-04-01 17:31:00,
2013-04-01 13:32:00,44.6,25.1,30.05,North,9,2.0,7.0,46,0.00,,---,0.00,VWS V14.01,2013-04-01 17:32:00,
2013-04-01 13:33:00,44.5,25.5,30.05,NNW,327,0.0,4.0,47,0.00,,---,0.00,VWS V14.01,2013-04-01 17:33:00,
2013-04-01 13:34:00,44.4,26.0,30.05,North,11,5.0,5.0,48,0.00,,---,0.00,VWS V14.01,2013-04-01 17:34:00,
2013-04-01 13:35:00,44.2,25.3,30.05,NNE,13,5.0,5.0,47,0.00,,---,0.00,VWS V14.01,2013-04-01 17:35:00,
2013-04-01 13:36:00,44.2,25.3,30.05,NNE,13,5.0,5.0,47,0.00,,---,0.00,VWS V14.01,2013-04-01 17:36:00,
2013-04-01 13:37:00,44.2,25.3,30.05,NNW,342,0.0,7.0,47,0.00,,---,0.00,VWS V14.01,2013-04-01 17:37:00,
2013-04-01 13:38:00,44.3,25.9,30.05,NNE,12,0.0,4.0,48,0.00,,---,0.00,VWS V14.01,2013-04-01 17:38:00,
2013-04-01 13:39:00,44.4,26.5,30.05,WSW,240,4.0,6.0,49,0.00,,---,0.00,VWS V14.01,2013-04-01 17:39:00,
2013-04-01 13:40:00,44.9,28.4,30.05,NW,304,1.0,4.0,52,0.00,,---,0.00,VWS V14.01,2013-04-01 17:40:00,
2013-04-01 13:41:00,44.9,28.4,30.05,NW,304,1.0,4.0,52,0.00,,---,0.00,VWS V14.01,2013-04-01 17:41:00,
2013-04-01 13:42:00,45.2,28.2,30.05,NNW,329,4.0,7.0,51,0.00,,---,0.00,VWS V14.01,2013-04-01 17:42:00,
2013-04-01 13:43:00,45.4,27.4,30.05,NNW,347,7.0,9.0,49,0.00,,---,0.00,VWS V14.01,2013-04-01 17:43:00,
2013-04-01 13:44:00,45.6,27.6,30.05,NNE,15,2.0,7.0,49,0.00,,---,0.00,VWS V14.01,2013-04-01 17:44:00,
2013-04-01 13:45:00,45.9,27.3,30.05,NNW,336,4.0,6.0,48,0.00,,---,0.00,VWS V14.01,2013-04-01 17:45:00,
2013-04-01 13:46:00,45.9,27.3,30.05,NNW,336,4.0,6.0,48,0.00,,---,0.00,VWS V14.01,2013-04-01 17:46:00,
2013-04-01 13:47:00,45.9,26.8,30.05,North,5,3.0,6.0,47,0.00,,---,0.00,VWS V14.01,2013-04-01 17:47:00,
2013-04-01 13:48:00,45.9,26.8,30.05,North,5,6.0,7.0,47,0.00,,---,0.00,VWS V14.01,2013-04-01 17:48:00,
2013-04-01 13:49:00,46.0,26.4,30.05,North,360,0.0,7.0,46,0.00,,---,0.00,VWS V14.01,2013-04-01 17:49:00,
2013-04-01 13:50:00,46.2,27.6,30.05,North,350,3.0,9.0,48,0.00,,---,0.00,VWS V14.01,2013-04-01 17:50:00,
2013-04-01 13:51:00,46.2,27.6,30.05,North,350,3.0,9.0,48,0.00,,---,0.00,VWS V14.01,2013-04-01 17:51:00,
2013-04-01 13:52:00,46.2,27.1,30.05,NNW,347,3.0,8.0,47,0.00,,---,0.00,VWS V14.01,2013-04-01 17:52:00,
2013-04-01 13:53:00,46.2,27.6,30.05,North,355,2.0,5.0,48,0.00,,---,0.00,VWS V14.01,2013-04-01 17:53:00,
2013-04-01 13:54:00,46.2,27.1,30.05,NNW,344,0.0,2.0,47,0.00,,---,0.00,VWS V14.01,2013-04-01 17:54:00,
2013-04-01 13:55:00,46.1,26.0,30.05,NNW,345,5.0,6.0,45,0.00,,---,0.00,VWS V14.01,2013-04-01 17:55:00,
2013-04-01 13:56:00,46.1,26.0,30.05,NNW,345,5.0,6.0,45,0.00,,---,0.00,VWS V14.01,2013-04-01 17:56:00,
2013-04-01 13:57:00,46.0,24.8,30.05,North,350,2.0,6.0,43,0.00,,---,0.00,VWS V14.01,2013-04-01 17:57:00,
2013-04-01 13:58:00,45.9,25.2,30.05,North,355,0.0,4.0,44,0.00,,---,0.00,VWS V14.01,2013-04-01 17:58:00,
2013-04-01 13:59:00,45.8,26.2,30.05,North,355,0.0,1.0,46,0.00,,---,0.00,VWS V14.01,2013-04-01 17:59:00,
2013-04-01 14:00:00,46.0,26.4,30.05,WNW,284,3.0,5.0,46,0.00,,---,0.00,VWS V14.01,2013-04-01 18:00:00,
2013-04-01 14:01:00,46.0,26.4,30.05,WNW,284,3.0,5.0,46,0.00,,---,0.00,VWS V14.01,2013-04-01 18:01:00,
2013-04-01 14:02:00,46.1,27.0,30.04,NNW,344,3.0,7.0,47,0.00,,---,0.00,VWS V14.01,2013-04-01 18:02:00,
2013-04-01 14:03:00,46.2,26.0,30.04,North,360,0.0,6.0,45,0.00,,---,0.00,VWS V14.01,2013-04-01 18:03:00,
2013-04-01 14:04:00,46.1,25.4,30.05,West,269,1.0,5.0,44,0.00,,---,0.00,VWS V14.01,2013-04-01 18:04:00,
2013-04-01 14:05:00,46.0,25.3,30.05,NW,311,7.0,7.0,44,0.00,,---,0.00,VWS V14.01,2013-04-01 18:05:00,
2013-04-01 14:06:00,46.0,25.3,30.05,NW,311,7.0,7.0,44,0.00,,---,0.00,VWS V14.01,2013-04-01 18:06:00,
2013-04-01 14:07:00,45.8,25.1,30.04,NNW,340,0.0,7.0,44,0.00,,---,0.00,VWS V14.01,2013-04-01 18:07:00,
2013-04-01 14:08:00,45.6,25.5,30.05,NW,304,0.0,5.0,45,0.00,,---,0.00,VWS V14.01,2013-04-01 18:08:00,
2013-04-01 14:09:00,45.5,25.9,30.04,NW,325,1.0,2.0,46,0.00,,---,0.00,VWS V14.01,2013-04-01 18:09:00,
2013-04-01 14:10:00,45.4,24.8,30.05,North,5,1.0,8.0,44,0.00,,---,0.00,VWS V14.01,2013-04-01 18:10:00,
2013-04-01 14:11:00,45.4,24.8,30.05,North,5,1.0,8.0,44,0.00,,---,0.00,VWS V14.01,2013-04-01 18:11:00,
2013-04-01 14:12:00,45.4,24.8,30.05,NW,319,1.0,3.0,44,0.00,,---,0.00,VWS V14.01,2013-04-01 18:12:00,
2013-04-01 14:13:00,45.4,26.4,30.05,WNW,298,0.0,3.0,47,0.00,,---,0.00,VWS V14.01,2013-04-01 18:13:00,
2013-04-01 14:14:00,45.5,27.5,30.05,NNW,336,0.0,3.0,49,0.00,,---,0.00,VWS V14.01,2013-04-01 18:14:00,
2013-04-01 14:15:00,45.9,25.8,30.05,NNW,340,0.0,5.0,45,0.00,,---,0.00,VWS V14.01,2013-04-01 18:15:00,
2013-04-01 14:16:00,45.9,25.8,30.05,NNW,340,0.0,5.0,45,0.00,,---,0.00,VWS V14.01,2013-04-01 18:16:00,
2013-04-01 14:17:00,46.0,25.3,30.05,North,11,1.0,5.0,44,0.00,,---,0.00,VWS V14.01,2013-04-01 18:17:00,
2013-04-01 14:18:00,46.0,25.9,30.05,NNW,347,1.0,3.0,45,0.00,,---,0.00,VWS V14.01,2013-04-01 18:18:00,
2013-04-01 14:19:00,46.0,25.3,30.05,NNW,336,1.0,6.0,44,0.00,,---,0.00,VWS V14.01,2013-04-01 18:19:00,
2013-04-01 14:20:00,45.8,24.6,30.05,NW,316,0.0,4.0,43,0.00,,---,0.00,VWS V14.01,2013-04-01 18:20:00,
2013-04-01 14:21:00,45.8,24.6,30.05,NW,316,0.0,4.0,43,0.00,,---,0.00,VWS V14.01,2013-04-01 18:21:00,
2013-04-01 14:22:00,45.7,25.6,30.05,NNE,19,4.0,8.0,45,0.00,,---,0.00,VWS V14.01,2013-04-01 18:22:00,
2013-04-01 14:23:00,45.8,25.7,30.05,NNW,339,1.0,7.0,45,0.00,,---,0.00,VWS V14.01,2013-04-01 18:23:00,
2013-04-01 14:24:00,45.8,26.2,30.05,NNE,19,1.0,1.0,46,0.00,,---,0.00,VWS V14.01,2013-04-01 18:24:00,
2013-04-01 14:25:00,46.2,28.1,30.05,NNW,331,4.0,5.0,49,0.00,,---,0.00,VWS V14.01,2013-04-01 18:25:00,
2013-04-01 14:26:00,46.2,28.1,30.05,NNW,331,4.0,5.0,49,0.00,,---,0.00,VWS V14.01,2013-04-01 18:26:00,
2013-04-01 14:27:00,46.4,27.3,30.05,North,360,3.0,6.0,47,0.00,,---,0.00,VWS V14.01,2013-04-01 18:27:00,
2013-04-01 14:28:00,46.5,26.9,30.05,NNW,346,2.0,6.0,46,0.00,,---,0.00,VWS V14.01,2013-04-01 18:28:00,
2013-04-01 14:29:00,46.5,26.3,30.05,North,11,6.0,6.0,45,0.00,,---,0.00,VWS V14.01,2013-04-01 18:29:00,
2013-04-01 14:30:00,46.5,25.8,30.05,NE,38,1.0,6.0,44,0.00,,---,0.00,VWS V14.01,2013-04-01 18:30:00,
2013-04-01 14:31:00,46.5,25.8,30.05,NE,38,1.0,6.0,44,0.00,,---,0.00,VWS V14.01,2013-04-01 18:31:00,
2013-04-01 14:32:00,46.5,26.3,30.05,NW,315,2.0,7.0,45,0.00,,---,0.00,VWS V14.01,2013-04-01 18:32:00,
2013-04-01 14:33:00,46.4,26.2,30.05,NNE,13,0.0,6.0,45,0.00,,---,0.00,VWS V14.01,2013-04-01 18:33:00,
2013-04-01 14:34:00,46.4,26.8,30.05,West,279,1.0,5.0,46,0.00,,---,0.00,VWS V14.01,2013-04-01 18:34:00,
2013-04-01 14:35:00,46.3,25.0,30.05,NNW,334,0.0,3.0,43,0.00,,---,0.00,VWS V14.01,2013-04-01 18:35:00,
2013-04-01 14:36:00,46.3,25.0,30.05,NNW,334,0.0,3.0,43,0.00,,---,0.00,VWS V14.01,2013-04-01 18:36:00,
2013-04-01 14:37:00,46.2,26.0,30.05,NW,308,4.0,4.0,45,0.00,,---,0.00,VWS V14.01,2013-04-01 18:37:00,
2013-04-01 14:38:00,46.2,25.0,30.05,West,266,3.0,8.0,43,0.00,,---,0.00,VWS V14.01,2013-04-01 18:38:00,
2013-04-01 14:39:00,46.2,25.5,30.05,WNW,292,4.0,6.0,44,0.00,,---,0.00,VWS V14.01,2013-04-01 18:39:00,
2013-04-01 14:40:00,46.2,25.0,30.05,West,274,4.0,7.0,43,0.00,,---,0.00,VWS V14.01,2013-04-01 18:40:00,
2013-04-01 14:41:00,46.2,25.0,30.05,West,274,4.0,7.0,43,0.00,,---,0.00,VWS V14.01,2013-04-01 18:41:00,
2013-04-01 14:42:00,46.2,23.8,30.04,WNW,296,3.0,5.0,41,0.00,,---,0.00,VWS V14.01,2013-04-01 18:42:00,
2013-04-01 14:43:00,46.2,24.4,30.05,North,5,1.0,4.0,42,0.00,,---,0.00,VWS V14.01,2013-04-01 18:43:00,
2013-04-01 14:44:00,46.3,25.6,30.05,NW,317,4.0,6.0,44,0.00,,---,0.00,VWS V14.01,2013-04-01 18:44:00,
2013-04-01 14:45:00,46.5,25.2,30.05,NW,325,5.0,10.0,43,0.00,,---,0.00,VWS V14.01,2013-04-01 18:45:00,
2013-04-01 14:46:00,46.5,25.2,30.05,NW,325,5.0,10.0,43,0.00,,---,0.00,VWS V14.01,2013-04-01 18:46:00,
2013-04-01 14:47:00,46.6,24.8,30.04,ESE,108,1.0,5.0,42,0.00,,---,0.00,VWS V14.01,2013-04-01 18:47:00,
2013-04-01 14:48:00,46.7,24.8,30.04,North,5,2.0,8.0,42,0.00,,---,0.00,VWS V14.01,2013-04-01 18:48:00,
2013-04-01 14:49:00,46.8,24.9,30.04,NW,306,5.0,9.0,42,0.00,,---,0.00,VWS V14.01,2013-04-01 18:49:00,
2013-04-01 14:50:00,47.0,25.1,30.04,NNW,348,1.0,4.0,42,0.00,,---,0.00,VWS V14.01,2013-04-01 18:50:00,
2013-04-01 14:51:00,47.0,25.1,30.04,NNW,348,1.0,4.0,42,0.00,,---,0.00,VWS V14.01,2013-04-01 18:51:00,
2013-04-01 14:52:00,47.0,24.5,30.04,NW,319,1.0,7.0,41,0.00,,---,0.00,VWS V14.01,2013-04-01 18:52:00,
2013-04-01 14:53:00,47.2,27.0,30.04,NW,317,0.0,1.0,45,0.00,,---,0.00,VWS V14.01,2013-04-01 18:53:00,
2013-04-01 14:54:00,47.3,27.0,30.04,North,350,4.0,4.0,45,0.00,,---,0.00,VWS V14.01,2013-04-01 18:54:00,
2013-04-01 14:55:00,47.5,25.6,30.04,NW,310,3.0,4.0,42,0.00,,---,0.00,VWS V14.01,2013-04-01 18:55:00,
2013-04-01 14:56:00,47.5,25.6,30.04,NW,310,3.0,4.0,42,0.00,,---,0.00,VWS V14.01,2013-04-01 18:56:00,
2013-04-01 14:57:00,47.7,27.4,30.04,NNW,332,3.0,7.0,45,0.00,,---,0.00,VWS V14.01,2013-04-01 18:57:00,
2013-04-01 14:58:00,47.9,25.4,30.04,NW,306,1.0,6.0,41,0.00,,---,0.00,VWS V14.01,2013-04-01 18:58:00,
2013-04-01 14:59:00,47.9,24.8,30.05,NNW,348,0.0,7.0,40,0.00,,---,0.00,VWS V14.01,2013-04-01 18:59:00,
2013-04-01 15:00:00,47.9,25.4,30.04,North,360,4.0,9.0,41,0.00,,---,0.00,VWS V14.01,2013-04-01 19:00:00,
2013-04-01 15:01:00,47.9,25.4,30.04,North,360,4.0,9.0,41,0.00,,---,0.00,VWS V14.01,2013-04-01 19:01:00,
2013-04-01 15:02:00,47.9,24.1,30.04,North,5,2.0,7.0,39,0.00,,---,0.00,VWS V14.01,2013-04-01 19:02:00,
2013-04-01 15:03:00,47.9,25.9,30.04,NNW,339,4.0,4.0,42,0.00,,---,0.00,VWS V14.01,2013-04-01 19:03:00,
2013-04-01 15:04:00,48.0,26.0,30.05,NW,325,5.0,5.0,42,0.00,,---,0.00,VWS V14.01,2013-04-01 19:04:00,
2013-04-01 15:05:00,48.2,26.8,30.04,NW,317,4.0,4.0,43,0.00,,---,0.00,VWS V14.01,2013-04-01 19:05:00,
2013-04-01 15:06:00,48.2,26.8,30.04,NW,317,4.0,4.0,43,0.00,,---,0.00,VWS V14.01,2013-04-01 19:06:00,
2013-04-01 15:07:00,48.2,26.2,30.04,NNW,348,1.0,5.0,42,0.00,,---,0.00,VWS V14.01,2013-04-01 19:07:00,
2013-04-01 15:08:00,48.2,26.8,30.05,NW,304,2.0,9.0,43,0.00,,---,0.00,VWS V14.01,2013-04-01 19:08:00,
2013-04-01 15:09:00,48.1,26.1,30.05,NNW,335,1.0,4.0,42,0.00,,---,0.00,VWS V14.01,2013-04-01 19:09:00,
2013-04-01 15:10:00,47.8,25.3,30.05,NNW,335,1.0,3.0,41,0.00,,---,0.00,VWS V14.01,2013-04-01 19:10:00,
2013-04-01 15:11:00,47.8,25.3,30.05,NNW,335,1.0,3.0,41,0.00,,---,0.00,VWS V14.01,2013-04-01 19:11:00,
2013-04-01 15:12:00,47.6,24.5,30.04,North,5,5.0,5.0,40,0.00,,---,0.00,VWS V14.01,2013-04-01 19:12:00,
2013-04-01 15:13:00,47.4,24.3,30.04,NNW,333,0.0,8.0,40,0.00,,---,0.00,VWS V14.01,2013-04-01 19:13:00,
2013-04-01 15:14:00,47.1,24.0,30.05,WNW,284,0.0,4.0,40,0.00,,---,0.00,VWS V14.01,2013-04-01 19:14:00,
2013-04-01 15:15:00,46.7,23.7,30.04,NNW,337,3.0,10.0,40,0.00,,---,0.00,VWS V14.01,2013-04-01 19:15:00,
2013-04-01 15:16:00,46.7,23.7,30.04,NNW,337,3.0,10.0,40,0.00,,---,0.00,VWS V14.01,2013-04-01 19:16:00,
2013-04-01 15:17:00,46.4,23.4,30.05,NNW,336,2.0,5.0,40,0.00,,---,0.00,VWS V14.01,2013-04-01 19:17:00,
2013-04-01 15:18:00,46.2,22.6,30.05,North,350,0.0,7.0,39,0.00,,---,0.00,VWS V14.01,2013-04-01 19:18:00,
2013-04-01 15:19:00,46.0,23.6,30.05,WNW,288,5.0,5.0,41,0.00,,---,0.00,VWS V14.01,2013-04-01 19:19:00,
2013-04-01 15:20:00,46.0,24.8,30.04,NNW,344,5.0,5.0,43,0.00,,---,0.00,VWS V14.01,2013-04-01 19:20:00,
2013-04-01 15:21:00,46.0,24.8,30.04,NNW,344,5.0,5.0,43,0.00,,---,0.00,VWS V14.01,2013-04-01 19:21:00,
2013-04-01 15:22:00,46.1,23.7,30.04,NW,306,0.0,5.0,41,0.00,,---,0.00,VWS V14.01,2013-04-01 19:22:00,
2013-04-01 15:23:00,46.1,23.7,30.05,NE,36,2.0,2.0,41,0.00,,---,0.00,VWS V14.01,2013-04-01 19:23:00,
2013-04-01 15:24:00,46.2,23.8,30.05,NW,313,0.0,5.0,41,0.00,,---,0.00,VWS V14.01,2013-04-01 19:24:00,
2013-04-01 15:25:00,46.2,23.8,30.05,NW,314,2.0,2.0,41,0.00,,---,0.00,VWS V14.01,2013-04-01 19:25:00,
2013-04-01 15:26:00,46.2,23.8,30.05,NW,314,2.0,2.0,41,0.00,,---,0.00,VWS V14.01,2013-04-01 19:26:00,
2013-04-01 15:27:00,46.2,23.2,30.05,NW,319,1.0,4.0,40,0.00,,---,0.00,VWS V14.01,2013-04-01 19:27:00,
2013-04-01 15:28:00,46.2,23.8,30.05,NNW,334,1.0,2.0,41,0.00,,---,0.00,VWS V14.01,2013-04-01 19:28:00,
2013-04-01 15:29:00,46.2,23.8,30.04,NNW,327,4.0,4.0,41,0.00,,---,0.00,VWS V14.01,2013-04-01 19:29:00,
2013-04-01 15:30:00,46.3,23.9,30.04,NNW,347,0.0,6.0,41,0.00,,---,0.00,VWS V14.01,2013-04-01 19:30:00,
2013-04-01 15:31:00,46.3,23.9,30.04,NNW,347,0.0,6.0,41,0.00,,---,0.00,VWS V14.01,2013-04-01 19:31:00,
2013-04-01 15:32:00,46.4,24.6,30.04,NW,314,5.0,6.0,42,0.00,,---,0.00,VWS V14.01,2013-04-01 19:32:00,
2013-04-01 15:33:00,46.5,23.5,30.05,West,264,1.0,5.0,40,0.00,,---,0.00,VWS V14.01,2013-04-01 19:33:00,
2013-04-01 15:34:00,46.6,24.8,30.04,North,355,8.0,8.0,42,0.00,,---,0.00,VWS V14.01,2013-04-01 19:34:00,
2013-04-01 15:35:00,46.7,23.7,30.05,WNW,302,2.0,4.0,40,0.00,,---,0.00,VWS V14.01,2013-04-01 19:35:00,
2013-04-01 15:36:00,46.7,23.7,30.05,WNW,302,2.0,4.0,40,0.00,,---,0.00,VWS V14.01,2013-04-01 19:36:00,
2013-04-01 15:37:00,46.8,24.9,30.05,NNW,348,0.0,6.0,42,0.00,,---,0.00,VWS V14.01,2013-04-01 19:37:00,
2013-04-01 15:38:00,46.8,24.4,30.05,NW,304,4.0,8.0,41,0.00,,---,0.00,VWS V14.01,2013-04-01 19:38:00,
2013-04-01 15:39:00,46.8,24.4,30.04,NW,309,6.0,8.0,41,0.00,,---,0.00,VWS V14.01,2013-04-01 19:39:00,
2013-04-01 15:40:00,46.5,22.9,30.04,NNW,332,0.0,4.0,39,0.00,,---,0.00,VWS V14.01,2013-04-01 19:40:00,
2013-04-01 15:41:00,46.5,22.9,30.04,NNW,332,0.0,4.0,39,0.00,,---,0.00,VWS V14.01,2013-04-01 19:41:00,
2013-04-01 15:42:00,46.4,22.8,30.04,NNW,330,1.0,2.0,39,0.00,,---,0.00,VWS V14.01,2013-04-01 19:42:00,
2013-04-01 15:43:00,46.2,23.8,30.04,WNW,289,0.0,4.0,41,0.00,,---,0.00,VWS V14.01,2013-04-01 19:43:00,
2013-04-01 15:44:00,46.2,24.4,30.04,NW,325,3.0,3.0,42,0.00,,---,0.00,VWS V14.01,2013-04-01 19:44:00,
2013-04-01 15:45:00,46.3,23.9,30.04,North,9,2.0,7.0,41,0.00,,---,0.00,VWS V14.01,2013-04-01 19:45:00,
2013-04-01 15:46:00,46.3,23.9,30.04,North,9,2.0,7.0,41,0.00,,---,0.00,VWS V14.01,2013-04-01 19:46:00,
2013-04-01 15:47:00,46.4,24.0,30.04,NE,47,5.0,7.0,41,0.00,,---,0.00,VWS V14.01,2013-04-01 19:47:00,
2013-04-01 15:48:00,46.5,24.7,30.04,North,9,7.0,8.0,42,0.00,,---,0.00,VWS V14.01,2013-04-01 19:48:00,
2013-04-01 15:49:00,46.6,24.2,30.04,North,360,3.0,7.0,41,0.00,,---,0.00,VWS V14.01,2013-04-01 19:49:00,
2013-04-01 15:50:00,46.8,24.4,30.04,NNE,15,5.0,7.0,41,0.00,,---,0.00,VWS V14.01,2013-04-01 19:50:00,
2013-04-01 15:51:00,46.8,24.4,30.04,NNE,15,5.0,7.0,41,0.00,,---,0.00,VWS V14.01,2013-04-01 19:51:00,
2013-04-01 15:52:00,46.9,23.9,30.04,NE,39,0.0,6.0,40,0.00,,---,0.00,VWS V14.01,2013-04-01 19:52:00,
2013-04-01 15:53:00,47.0,25.1,30.04,North,11,3.0,4.0,42,0.00,,---,0.00,VWS V14.01,2013-04-01 19:53:00,
2013-04-01 15:54:00,47.1,24.6,30.04,North,355,4.0,6.0,41,0.00,,---,0.00,VWS V14.01,2013-04-01 19:54:00,
2013-04-01 15:55:00,47.4,24.3,30.04,NNE,14,0.0,6.0,40,0.00,,---,0.00,VWS V14.01,2013-04-01 19:55:00,
2013-04-01 15:56:00,47.4,24.3,30.04,NNE,14,0.0,6.0,40,0.00,,---,0.00,VWS V14.01,2013-04-01 19:56:00,
2013-04-01 15:57:00,47.6,26.2,30.04,NNW,348,4.0,4.0,43,0.00,,---,0.00,VWS V14.01,2013-04-01 19:57:00,
2013-04-01 15:58:00,47.7,25.8,30.05,NW,305,4.0,7.0,42,0.00,,---,0.00,VWS V14.01,2013-04-01 19:58:00,
2013-04-01 15:59:00,47.8,25.3,30.04,NNW,348,8.0,10.0,41,0.00,,---,0.00,VWS V14.01,2013-04-01 19:59:00,
2013-04-01 16:00:00,47.5,23.2,30.05,NNW,327,1.0,9.0,38,0.00,,---,0.00,VWS V14.01,2013-04-01 20:00:00,
2013-04-01 16:01:00,47.5,23.2,30.05,NNW,327,1.0,9.0,38,0.00,,---,0.00,VWS V14.01,2013-04-01 20:01:00,
2013-04-01 16:02:00,47.3,24.2,30.05,NW,317,0.0,1.0,40,0.00,,---,0.00,VWS V14.01,2013-04-01 20:02:00,
2013-04-01 16:03:00,47.1,24.0,30.05,NW,325,0.0,2.0,40,0.00,,---,0.00,VWS V14.01,2013-04-01 20:03:00,
2013-04-01 16:04:00,47.0,22.7,30.05,NW,312,1.0,1.0,38,0.00,,---,0.00,VWS V14.01,2013-04-01 20:04:00,
2013-04-01 16:05:00,46.9,23.3,30.05,NNW,332,0.0,2.0,39,0.00,,---,0.00,VWS V14.01,2013-04-01 20:05:00,
2013-04-01 16:06:00,46.9,23.2,30.05,NNW,332,0.0,2.0,39,0.00,,---,0.00,VWS V14.01,2013-04-01 20:06:00,
2013-04-01 16:07:00,46.9,23.9,30.04,NNW,347,0.0,3.0,40,0.00,,---,0.00,VWS V14.01,2013-04-01 20:07:00,
2013-04-01 16:08:00,47.0,25.7,30.04,NW,319,0.0,4.0,43,0.00,,---,0.00,VWS V14.01,2013-04-01 20:08:00,
2013-04-01 16:09:00,47.1,24.6,30.04,NW,318,2.0,4.0,41,0.00,,---,0.00,VWS V14.01,2013-04-01 20:09:00,
2013-04-01 16:10:00,47.4,23.7,30.05,NNW,336,1.0,3.0,39,0.00,,---,0.00,VWS V14.01,2013-04-01 20:10:00,
2013-04-01 16:11:00,47.4,23.7,30.05,NNW,336,1.0,3.0,39,0.00,,---,0.00,VWS V14.01,2013-04-01 20:11:00,
2013-04-01 16:12:00,47.5,25.0,30.05,NNE,13,0.0,4.0,41,0.00,,---,0.00,VWS V14.01,2013-04-01 20:12:00,
2013-04-01 16:13:00,47.6,23.3,30.05,NNW,331,0.0,5.0,38,0.00,,---,0.00,VWS V14.01,2013-04-01 20:13:00,
2013-04-01 16:14:00,47.7,24.0,30.04,North,10,0.0,1.0,39,0.00,,---,0.00,VWS V14.01,2013-04-01 20:14:00,
2013-04-01 16:15:00,47.9,24.1,30.05,NW,314,0.0,3.0,39,0.00,,---,0.00,VWS V14.01,2013-04-01 20:15:00,
2013-04-01 16:16:00,47.9,24.1,30.05,NW,314,0.0,3.0,39,0.00,,---,0.00,VWS V14.01,2013-04-01 20:16:00,
2013-04-01 16:17:00,48.0,24.2,30.05,NW,314,0.0,1.0,39,0.00,,---,0.00,VWS V14.01,2013-04-01 20:17:00,
2013-04-01 16:18:00,48.1,25.5,30.04,West,270,0.0,4.0,41,0.00,,---,0.00,VWS V14.01,2013-04-01 20:18:00,
2013-04-01 16:19:00,48.3,24.5,30.05,NW,316,0.0,7.0,39,0.00,,---,0.00,VWS V14.01,2013-04-01 20:19:00,
2013-04-01 16:20:00,48.6,25.4,30.05,NW,319,0.0,3.0,40,0.00,,---,0.00,VWS V14.01,2013-04-01 20:20:00,
2013-04-01 16:21:00,48.6,25.4,30.05,NW,319,0.0,3.0,40,0.00,,---,0.00,VWS V14.01,2013-04-01 20:21:00,
2013-04-01 16:22:00,48.7,25.5,30.05,West,261,1.0,6.0,40,0.00,,---,0.00,VWS V14.01,2013-04-01 20:22:00,
2013-04-01 16:23:00,48.9,26.2,30.05,WNW,298,0.0,3.0,41,0.00,,---,0.00,VWS V14.01,2013-04-01 20:23:00,
2013-04-01 16:24:00,49.0,25.8,30.05,West,272,6.0,8.0,40,0.00,,---,0.00,VWS V14.01,2013-04-01 20:24:00,
2013-04-01 16:25:00,48.9,24.4,30.05,WNW,282,0.0,4.0,38,0.00,,---,0.00,VWS V14.01,2013-04-01 20:25:00,
2013-04-01 16:26:00,48.9,24.4,30.05,WNW,282,0.0,4.0,38,0.00,,---,0.00,VWS V14.01,2013-04-01 20:26:00,
2013-04-01 16:27:00,48.8,25.6,30.05,NW,321,5.0,5.0,40,0.00,,---,0.00,VWS V14.01,2013-04-01 20:27:00,
2013-04-01 16:28:00,48.6,24.2,30.05,NE,52,0.0,5.0,38,0.00,,---,0.00,VWS V14.01,2013-04-01 20:28:00,
2013-04-01 16:29:00,48.4,24.0,30.05,NNW,333,0.0,2.0,38,0.00,,---,0.00,VWS V14.01,2013-04-01 20:29:00,
2013-04-01 16:30:00,48.2,26.8,30.05,NNE,22,1.0,1.0,43,0.00,,---,0.00,VWS V14.01,2013-04-01 20:30:00,
2013-04-01 16:31:00,48.2,26.8,30.05,NNE,22,1.0,1.0,43,0.00,,---,0.00,VWS V14.01,2013-04-01 20:31:00,
2013-04-01 16:32:00,48.3,26.3,30.05,North,351,6.0,8.0,42,0.00,,---,0.00,VWS V14.01,2013-04-01 20:32:00,
2013-04-01 16:33:00,48.3,23.9,30.05,North,355,6.0,11.0,38,0.00,,---,0.00,VWS V14.01,2013-04-01 20:33:00,
2013-04-01 16:34:00,48.2,23.2,30.05,NE,54,0.0,7.0,37,0.00,,---,0.00,VWS V14.01,2013-04-01 20:34:00,
2013-04-01 16:35:00,48.1,23.7,30.05,NW,323,0.0,8.0,38,0.00,,---,0.00,VWS V14.01,2013-04-01 20:35:00,
2013-04-01 16:36:00,48.1,23.7,30.05,NW,323,0.0,8.0,38,0.00,,---,0.00,VWS V14.01,2013-04-01 20:36:00,
2013-04-01 16:37:00,48.0,24.9,30.05,NW,323,0.0,0.0,40,0.00,,---,0.00,VWS V14.01,2013-04-01 20:37:00,
2013-04-01 16:38:00,48.1,26.1,30.05,NNE,15,0.0,1.0,42,0.00,,---,0.00,VWS V14.01,2013-04-01 20:38:00,
2013-04-01 16:39:00,48.2,26.2,30.05,NW,321,3.0,3.0,42,0.00,,---,0.00,VWS V14.01,2013-04-01 20:39:00,
2013-04-01 16:40:00,48.4,23.3,30.05,NW,323,6.0,8.0,37,0.00,,---,0.00,VWS V14.01,2013-04-01 20:40:00,
2013-04-01 16:41:00,48.4,23.3,30.05,NW,323,6.0,8.0,37,0.00,,---,0.00,VWS V14.01,2013-04-01 20:41:00,
2013-04-01 16:42:00,48.4,22.7,30.05,WNW,302,0.0,7.0,36,0.00,,---,0.00,VWS V14.01,2013-04-01 20:42:00,
2013-04-01 16:43:00,48.3,24.5,30.05,WNW,284,0.0,4.0,39,0.00,,---,0.00,VWS V14.01,2013-04-01 20:43:00,
2013-04-01 16:44:00,48.3,25.1,30.05,NW,306,3.0,4.0,40,0.00,,---,0.00,VWS V14.01,2013-04-01 20:44:00,
2013-04-01 16:45:00,48.3,23.9,30.05,NW,321,1.0,4.0,38,0.00,,---,0.00,VWS V14.01,2013-04-01 20:45:00,
2013-04-01 16:46:00,48.3,23.9,30.05,NW,321,1.0,4.0,38,0.00,,---,0.00,VWS V14.01,2013-04-01 20:46:00,
2013-04-01 16:47:00,48.3,24.5,30.05,NW,309,0.0,3.0,39,0.00,,---,0.00,VWS V14.01,2013-04-01 20:47:00,
2013-04-01 16:48:00,48.4,25.2,30.05,WNW,288,0.0,5.0,40,0.00,,---,0.00,VWS V14.01,2013-04-01 20:48:00,
2013-04-01 16:49:00,48.5,25.3,30.05,NW,309,1.0,7.0,40,0.00,,---,0.00,VWS V14.01,2013-04-01 20:49:00,
2013-04-01 16:50:00,48.6,24.8,30.05,NW,317,3.0,3.0,39,0.00,,---,0.00,VWS V14.01,2013-04-01 20:50:00,
2013-04-01 16:51:00,48.6,24.8,30.05,NW,317,3.0,3.0,39,0.00,,---,0.00,VWS V14.01,2013-04-01 20:51:00,
2013-04-01 16:52:00,48.6,24.2,30.05,NNW,348,4.0,10.0,38,0.00,,---,0.00,VWS V14.01,2013-04-01 20:52:00,
2013-04-01 16:53:00,48.4,23.3,30.05,West,278,4.0,11.0,37,0.00,,---,0.00,VWS V14.01,2013-04-01 20:53:00,
2013-04-01 16:54:00,48.2,22.5,30.05,West,281,5.0,7.0,36,0.00,,---,0.00,VWS V14.01,2013-04-01 20:54:00,
2013-04-01 16:55:00,48.0,23.0,30.05,WSW,244,4.0,4.0,37,0.00,,---,0.00,VWS V14.01,2013-04-01 20:55:00,
2013-04-01 16:56:00,48.0,23.0,30.05,WSW,244,4.0,4.0,37,0.00,,---,0.00,VWS V14.01,2013-04-01 20:56:00,
2013-04-01 16:57:00,48.0,23.6,30.05,NNW,346,4.0,6.0,38,0.00,,---,0.00,VWS V14.01,2013-04-01 20:57:00,
2013-04-01 16:58:00,48.0,23.6,30.05,West,279,0.0,5.0,38,0.00,,---,0.00,VWS V14.01,2013-04-01 20:58:00,
2013-04-01 16:59:00,48.1,23.7,30.05,NW,315,1.0,4.0,38,0.00,,---,0.00,VWS V14.01,2013-04-01 20:59:00,
2013-04-01 17:00:00,48.1,23.7,30.05,NW,319,3.0,4.0,38,0.00,,---,0.00,VWS V14.01,2013-04-01 21:00:00,
2013-04-01 17:01:00,48.1,23.7,30.05,NW,319,3.0,4.0,38,0.00,,---,0.00,VWS V14.01,2013-04-01 21:01:00,
2013-04-01 17:02:00,47.9,23.5,30.05,NW,319,6.0,6.0,38,0.00,,---,0.00,VWS V14.01,2013-04-01 21:02:00,
2013-04-01 17:03:00,47.8,22.8,30.05,NW,318,3.0,6.0,37,0.00,,---,0.00,VWS V14.01,2013-04-01 21:03:00,
2013-04-01 17:04:00,47.7,24.0,30.05,WNW,302,1.0,6.0,39,0.00,,---,0.00,VWS V14.01,2013-04-01 21:04:00,
2013-04-01 17:05:00,47.7,23.4,30.05,SW,232,3.0,5.0,38,0.00,,---,0.00,VWS V14.01,2013-04-01 21:05:00,
2013-04-01 17:06:00,47.7,23.4,30.05,SW,232,3.0,5.0,38,0.00,,---,0.00,VWS V14.01,2013-04-01 21:06:00,
2013-04-01 17:07:00,47.7,23.4,30.05,WNW,289,2.0,3.0,38,0.00,,---,0.00,VWS V14.01,2013-04-01 21:07:00,
2013-04-01 17:08:00,47.8,24.1,30.05,West,275,4.0,7.0,39,0.00,,---,0.00,VWS V14.01,2013-04-01 21:08:00,
2013-04-01 17:09:00,47.9,22.9,30.05,WSW,246,1.0,6.0,37,0.00,,---,0.00,VWS V14.01,2013-04-01 21:09:00,
2013-04-01 17:10:00,47.9,22.9,30.05,WSW,250,6.0,8.0,37,0.00,,---,0.00,VWS V14.01,2013-04-01 21:10:00,
2013-04-01 17:11:00,47.9,22.9,30.05,WSW,250,6.0,8.0,37,0.00,,---,0.00,VWS V14.01,2013-04-01 21:11:00,
2013-04-01 17:12:00,47.9,22.9,30.05,WSW,257,1.0,7.0,37,0.00,,---,0.00,VWS V14.01,2013-04-01 21:12:00,
2013-04-01 17:13:00,47.9,23.5,30.05,WNW,290,2.0,6.0,38,0.00,,---,0.00,VWS V14.01,2013-04-01 21:13:00,
2013-04-01 17:14:00,47.9,23.5,30.05,NNW,345,4.0,5.0,38,0.00,,---,0.00,VWS V14.01,2013-04-01 21:14:00,
2013-04-01 17:15:00,48.1,23.7,30.05,West,263,1.0,8.0,38,0.00,,---,0.00,VWS V14.01,2013-04-01 21:15:00,
2013-04-01 17:16:00,48.1,23.7,30.05,West,263,1.0,8.0,38,0.00,,---,0.00,VWS V14.01,2013-04-01 21:16:00,
2013-04-01 17:17:00,48.2,23.8,30.05,NW,324,3.0,6.0,38,0.00,,---,0.00,VWS V14.01,2013-04-01 21:17:00,
2013-04-01 17:18:00,48.2,23.2,30.05,WNW,302,7.0,7.0,37,0.00,,---,0.00,VWS V14.01,2013-04-01 21:18:00,
2013-04-01 17:19:00,48.2,22.5,30.05,NW,315,1.0,7.0,36,0.00,,---,0.00,VWS V14.01,2013-04-01 21:19:00,
2013-04-01 17:20:00,48.2,23.8,30.05,West,273,3.0,4.0,38,0.00,,---,0.00,VWS V14.01,2013-04-01 21:20:00,
2013-04-01 17:21:00,48.2,23.8,30.05,West,273,3.0,4.0,38,0.00,,---,0.00,VWS V14.01,2013-04-01 21:21:00,
2013-04-01 17:22:00,48.3,23.9,30.04,NW,318,2.0,4.0,38,0.00,,---,0.00,VWS V14.01,2013-04-01 21:22:00,
2013-04-01 17:23:00,48.4,23.3,30.05,NW,325,7.0,8.0,37,0.00,,---,0.00,VWS V14.01,2013-04-01 21:23:00,
2013-04-01 17:24:00,48.5,22.8,30.05,WNW,291,3.0,10.0,36,0.00,,---,0.00,VWS V14.01,2013-04-01 21:24:00,
2013-04-01 17:25:00,48.5,22.8,30.05,WNW,289,2.0,6.0,36,0.00,,---,0.00,VWS V14.01,2013-04-01 21:25:00,
2013-04-01 17:26:00,48.5,22.8,30.05,WNW,289,2.0,6.0,36,0.00,,---,0.00,VWS V14.01,2013-04-01 21:26:00,
2013-04-01 17:27:00,48.5,23.4,30.05,NW,317,3.0,6.0,37,0.00,,---,0.00,VWS V14.01,2013-04-01 21:27:00,
2013-04-01 17:28:00,48.5,22.8,30.05,WNW,288,1.0,4.0,36,0.00,,---,0.00,VWS V14.01,2013-04-01 21:28:00,
2013-04-01 17:29:00,48.5,23.4,30.05,WSW,246,0.0,4.0,37,0.00,,---,0.00,VWS V14.01,2013-04-01 21:29:00,
2013-04-01 17:30:00,48.4,22.7,30.05,NNW,344,1.0,5.0,36,0.00,,---,0.00,VWS V14.01,2013-04-01 21:30:00,
2013-04-01 17:31:00,48.4,22.7,30.05,NNW,344,1.0,5.0,36,0.00,,---,0.00,VWS V14.01,2013-04-01 21:31:00,
2013-04-01 17:32:00,48.3,22.6,30.04,WNW,303,3.0,6.0,36,0.00,,---,0.00,VWS V14.01,2013-04-01 21:32:00,
2013-04-01 17:33:00,48.3,23.2,30.04,NNW,336,0.0,5.0,37,0.00,,---,0.00,VWS V14.01,2013-04-01 21:33:00,
2013-04-01 17:34:00,48.3,22.6,30.05,NW,323,3.0,6.0,36,0.00,,---,0.00,VWS V14.01,2013-04-01 21:34:00,
2013-04-01 17:35:00,48.4,23.3,30.05,North,349,2.0,6.0,37,0.00,,---,0.00,VWS V14.01,2013-04-01 21:35:00,
2013-04-01 17:36:00,48.4,23.3,30.05,North,349,2.0,6.0,37,0.00,,---,0.00,VWS V14.01,2013-04-01 21:36:00,
2013-04-01 17:37:00,48.3,23.9,30.05,WNW,301,0.0,3.0,38,0.00,,---,0.00,VWS V14.01,2013-04-01 21:37:00,
2013-04-01 17:38:00,48.3,23.9,30.05,NW,304,0.0,1.0,38,0.00,,---,0.00,VWS V14.01,2013-04-01 21:38:00,
2013-04-01 17:39:00,48.3,23.9,30.05,NNW,327,1.0,3.0,38,0.00,,---,0.00,VWS V14.01,2013-04-01 21:39:00,
2013-04-01 17:40:00,48.3,23.3,30.05,NW,309,1.0,5.0,37,0.00,,---,0.00,VWS V14.01,2013-04-01 21:40:00,
2013-04-01 17:41:00,48.3,23.2,30.05,NW,309,1.0,5.0,37,0.00,,---,0.00,VWS V14.01,2013-04-01 21:41:00,
2013-04-01 17:42:00,48.3,22.6,30.05,NW,309,0.0,2.0,36,0.00,,---,0.00,VWS V14.01,2013-04-01 21:42:00,
2013-04-01 17:43:00,48.2,23.8,30.05,NW,309,0.0,0.0,38,0.00,,---,0.00,VWS V14.01,2013-04-01 21:43:00,
2013-04-01 17:44:00,48.2,24.4,30.05,NW,312,3.0,5.0,39,0.00,,---,0.00,VWS V14.01,2013-04-01 21:44:00,
2013-04-01 17:45:00,48.2,23.8,30.05,NNW,340,7.0,7.0,38,0.00,,---,0.00,VWS V14.01,2013-04-01 21:45:00,
2013-04-01 17:46:00,48.2,23.8,30.05,NNW,340,7.0,7.0,38,0.00,,---,0.00,VWS V14.01,2013-04-01 21:46:00,
2013-04-01 17:47:00,48.1,22.4,30.05,NW,326,0.0,7.0,36,0.00,,---,0.00,VWS V14.01,2013-04-01 21:47:00,
2013-04-01 17:48:00,48.0,23.0,30.05,WNW,292,0.0,3.0,37,0.00,,---,0.00,VWS V14.01,2013-04-01 21:48:00,
2013-04-01 17:49:00,47.9,22.9,30.05,North,351,2.0,2.0,37,0.00,,---,0.00,VWS V14.01,2013-04-01 21:49:00,
2013-04-01 17:50:00,47.6,22.0,30.05,NW,321,3.0,6.0,36,0.00,,---,0.00,VWS V14.01,2013-04-01 21:50:00,
2013-04-01 17:51:00,47.6,22.0,30.05,NW,321,3.0,6.0,36,0.00,,---,0.00,VWS V14.01,2013-04-01 21:51:00,
2013-04-01 17:52:00,47.3,21.7,30.05,North,355,0.0,3.0,36,0.00,,---,0.00,VWS V14.01,2013-04-01 21:52:00,
2013-04-01 17:53:00,47.2,22.9,30.05,WNW,297,1.0,3.0,38,0.00,,---,0.00,VWS V14.01,2013-04-01 21:53:00,
2013-04-01 17:54:00,46.9,22.6,30.05,NNW,331,1.0,4.0,38,0.00,,---,0.00,VWS V14.01,2013-04-01 21:54:00,
2013-04-01 17:55:00,46.7,23.1,30.05,North,5,4.0,5.0,39,0.00,,---,0.00,VWS V14.01,2013-04-01 21:55:00,
2013-04-01 17:56:00,46.7,23.1,30.05,North,5,4.0,5.0,39,0.00,,---,0.00,VWS V14.01,2013-04-01 21:56:00,
2013-04-01 17:57:00,46.6,22.4,30.05,NW,321,0.0,9.0,38,0.00,,---,0.00,VWS V14.01,2013-04-01 21:57:00,
2013-04-01 17:58:00,46.6,23.0,30.05,NW,326,0.0,1.0,39,0.00,,---,0.00,VWS V14.01,2013-04-01 21:58:00,
2013-04-01 17:59:00,46.5,23.5,30.05,NW,326,0.0,1.0,40,0.00,,---,0.00,VWS V14.01,2013-04-01 21:59:00,
2013-04-01 18:00:00,46.5,22.3,30.05,NNW,328,2.0,8.0,38,0.00,,---,0.00,VWS V14.01,2013-04-01 22:00:00,
2013-04-01 18:01:00,46.5,22.3,30.05,NNW,328,2.0,8.0,38,0.00,,---,0.00,VWS V14.01,2013-04-01 22:01:00,
2013-04-01 18:02:00,46.4,22.2,30.05,NW,314,1.0,9.0,38,0.00,,---,0.00,VWS V14.01,2013-04-01 22:02:00,
2013-04-01 18:03:00,46.3,22.1,30.05,WNW,298,3.0,3.0,38,0.00,,---,0.00,VWS V14.01,2013-04-01 22:03:00,
2013-04-01 18:04:00,46.2,22.0,30.05,West,279,1.0,4.0,38,0.00,,---,0.00,VWS V14.01,2013-04-01 22:04:00,
2013-04-01 18:05:00,46.0,21.8,30.05,NW,319,0.0,6.0,38,0.00,,---,0.00,VWS V14.01,2013-04-01 22:05:00,
2013-04-01 18:06:00,46.0,21.8,30.05,NW,319,0.0,6.0,38,0.00,,---,0.00,VWS V14.01,2013-04-01 22:06:00,
2013-04-01 18:07:00,46.0,23.0,30.05,NW,322,1.0,5.0,40,0.00,,---,0.00,VWS V14.01,2013-04-01 22:07:00,
2013-04-01 18:08:00,46.0,22.5,30.05,NW,307,1.0,2.0,39,0.00,,---,0.00,VWS V14.01,2013-04-01 22:08:00,
2013-04-01 18:09:00,46.1,22.5,30.05,NW,306,3.0,7.0,39,0.00,,---,0.00,VWS V14.01,2013-04-01 22:09:00,
2013-04-01 18:10:00,46.1,22.5,30.05,NE,42,2.0,3.0,39,0.00,,---,0.00,VWS V14.01,2013-04-01 22:10:00,
2013-04-01 18:11:00,46.1,22.5,30.05,NE,42,2.0,3.0,39,0.00,,---,0.00,VWS V14.01,2013-04-01 22:11:00,
2013-04-01 18:12:00,46.3,22.1,30.05,NNW,327,1.0,6.0,38,0.00,,---,0.00,VWS V14.01,2013-04-01 22:12:00,
2013-04-01 18:13:00,46.4,22.8,30.05,NNW,336,3.0,5.0,39,0.00,,---,0.00,VWS V14.01,2013-04-01 22:13:00,
2013-04-01 18:14:00,46.5,22.3,30.05,North,350,3.0,10.0,38,0.00,,---,0.00,VWS V14.01,2013-04-01 22:14:00,
2013-04-01 18:15:00,46.6,21.7,30.05,NNW,336,5.0,11.0,37,0.00,,---,0.00,VWS V14.01,2013-04-01 22:15:00,
2013-04-01 18:16:00,46.6,21.7,30.05,NNW,336,5.0,11.0,37,0.00,,---,0.00,VWS V14.01,2013-04-01 22:16:00,
2013-04-01 18:17:00,46.6,21.7,30.05,NNW,344,3.0,8.0,37,0.00,,---,0.00,VWS V14.01,2013-04-01 22:17:00,
2013-04-01 18:18:00,46.5,21.6,30.05,NNW,331,1.0,5.0,37,0.00,,---,0.00,VWS V14.01,2013-04-01 22:18:00,
2013-04-01 18:19:00,46.5,21.6,30.05,WNW,301,1.0,7.0,37,0.00,,---,0.00,VWS V14.01,2013-04-01 22:19:00,
2013-04-01 18:20:00,46.5,22.3,30.05,NNW,331,0.0,0.0,38,0.00,,---,0.00,VWS V14.01,2013-04-01 22:20:00,
2013-04-01 18:21:00,46.5,22.3,30.05,NNW,331,0.0,0.0,38,0.00,,---,0.00,VWS V14.01,2013-04-01 22:21:00,
2013-04-01 18:22:00,46.5,22.9,30.05,NNW,331,0.0,2.0,39,0.00,,---,0.00,VWS V14.01,2013-04-01 22:22:00,
2013-04-01 18:23:00,46.6,22.4,30.06,NNW,330,2.0,9.0,38,0.00,,---,0.00,VWS V14.01,2013-04-01 22:23:00,
2013-04-01 18:24:00,46.5,21.6,30.06,North,11,4.0,5.0,37,0.00,,---,0.00,VWS V14.01,2013-04-01 22:24:00,
2013-04-01 18:25:00,46.5,21.0,30.06,NNW,334,5.0,8.0,36,0.00,,---,0.00,VWS V14.01,2013-04-01 22:25:00,
2013-04-01 18:26:00,46.5,21.0,30.06,NNW,334,5.0,8.0,36,0.00,,---,0.00,VWS V14.01,2013-04-01 22:26:00,
2013-04-01 18:27:00,46.4,21.6,30.06,NE,44,0.0,5.0,37,0.00,,---,0.00,VWS V14.01,2013-04-01 22:27:00,
2013-04-01 18:28:00,46.4,21.6,30.05,NNW,340,2.0,4.0,37,0.00,,---,0.00,VWS V14.01,2013-04-01 22:28:00,
2013-04-01 18:29:00,46.3,21.5,30.05,NE,40,2.0,5.0,37,0.00,,---,0.00,VWS V14.01,2013-04-01 22:29:00,
2013-04-01 18:30:00,46.3,22.1,30.05,West,281,7.0,7.0,38,0.00,,---,0.00,VWS V14.01,2013-04-01 22:30:00,
2013-04-01 18:31:00,46.3,22.1,30.05,West,281,7.0,7.0,38,0.00,,---,0.00,VWS V14.01,2013-04-01 22:31:00,
2013-04-01 18:32:00,46.3,21.5,30.05,West,279,3.0,7.0,37,0.00,,---,0.00,VWS V14.01,2013-04-01 22:32:00,
2013-04-01 18:33:00,46.3,21.5,30.05,NW,311,3.0,5.0,37,0.00,,---,0.00,VWS V14.01,2013-04-01 22:33:00,
2013-04-01 18:34:00,46.4,22.2,30.05,NW,317,1.0,4.0,38,0.00,,---,0.00,VWS V14.01,2013-04-01 22:34:00,
2013-04-01 18:35:00,46.4,21.6,30.05,NNW,336,0.0,5.0,37,0.00,,---,0.00,VWS V14.01,2013-04-01 22:35:00,
2013-04-01 18:36:00,46.4,21.6,30.05,NNW,336,0.0,5.0,37,0.00,,---,0.00,VWS V14.01,2013-04-01 22:36:00,
2013-04-01 18:37:00,46.4,21.6,30.05,NNW,327,1.0,4.0,37,0.00,,---,0.00,VWS V14.01,2013-04-01 22:37:00,
2013-04-01 18:38:00,46.5,22.3,30.06,West,279,1.0,2.0,38,0.00,,---,0.00,VWS V14.01,2013-04-01 22:38:00,
2013-04-01 18:39:00,46.5,22.3,30.05,East,88,1.0,5.0,38,0.00,,---,0.00,VWS V14.01,2013-04-01 22:39:00,
2013-04-01 18:40:00,46.5,21.6,30.05,North,355,1.0,5.0,37,0.00,,---,0.00,VWS V14.01,2013-04-01 22:40:00,
2013-04-01 18:41:00,46.5,21.6,30.05,North,355,1.0,5.0,37,0.00,,---,0.00,VWS V14.01,2013-04-01 22:41:00,
2013-04-01 18:42:00,46.5,21.0,30.06,NNE,13,3.0,10.0,36,0.00,,---,0.00,VWS V14.01,2013-04-01 22:42:00,
2013-04-01 18:43:00,46.4,21.6,30.05,NNW,334,3.0,4.0,37,0.00,,---,0.00,VWS V14.01,2013-04-01 22:43:00,
2013-04-01 18:44:00,46.4,21.6,30.05,West,277,2.0,5.0,37,0.00,,---,0.00,VWS V14.01,2013-04-01 22:44:00,
2013-04-01 18:45:00,46.4,21.6,30.06,WNW,288,1.0,6.0,37,0.00,,---,0.00,VWS V14.01,2013-04-01 22:45:00,
2013-04-01 18:46:00,46.4,21.6,30.06,WNW,288,1.0,6.0,37,0.00,,---,0.00,VWS V14.01,2013-04-01 22:46:00,
2013-04-01 18:47:00,46.3,22.1,30.06,WNW,291,0.0,1.0,38,0.00,,---,0.00,VWS V14.01,2013-04-01 22:47:00,
2013-04-01 18:48:00,46.3,22.1,30.06,NNE,29,0.0,1.0,38,0.00,,---,0.00,VWS V14.01,2013-04-01 22:48:00,
2013-04-01 18:49:00,46.3,22.1,30.06,NNW,348,0.0,3.0,38,0.00,,---,0.00,VWS V14.01,2013-04-01 22:49:00,
2013-04-01 18:50:00,46.2,22.0,30.06,WNW,302,0.0,6.0,38,0.00,,---,0.00,VWS V14.01,2013-04-01 22:50:00,
2013-04-01 18:51:00,46.2,22.0,30.06,WNW,302,0.0,6.0,38,0.00,,---,0.00,VWS V14.01,2013-04-01 22:51:00,
2013-04-01 18:52:00,46.2,22.6,30.06,NW,310,0.0,4.0,39,0.00,,---,0.00,VWS V14.01,2013-04-01 22:52:00,
2013-04-01 18:53:00,46.2,22.6,30.06,NW,310,0.0,1.0,39,0.00,,---,0.00,VWS V14.01,2013-04-01 22:53:00,
2013-04-01 18:54:00,46.2,22.6,30.06,NW,314,0.0,5.0,39,0.00,,---,0.00,VWS V14.01,2013-04-01 22:54:00,
2013-04-01 18:55:00,46.2,22.6,30.06,WNW,302,9.0,9.0,39,0.00,,---,0.00,VWS V14.01,2013-04-01 22:55:00,
2013-04-01 18:56:00,46.2,22.6,30.06,WNW,302,9.0,9.0,39,0.00,,---,0.00,VWS V14.01,2013-04-01 22:56:00,
2013-04-01 18:57:00,46.1,21.3,30.06,NW,312,4.0,9.0,37,0.00,,---,0.00,VWS V14.01,2013-04-01 22:57:00,
2013-04-01 18:58:00,46.1,21.3,30.06,West,271,4.0,4.0,37,0.00,,---,0.00,VWS V14.01,2013-04-01 22:58:00,
2013-04-01 18:59:00,46.1,20.6,30.06,NW,306,2.0,5.0,36,0.00,,---,0.00,VWS V14.01,2013-04-01 22:59:00,
2013-04-01 19:00:00,45.9,19.8,30.06,WNW,290,0.0,5.0,35,0.00,,---,0.00,VWS V14.01,2013-04-01 23:00:00,
2013-04-01 19:01:00,45.9,19.8,30.06,WNW,290,0.0,5.0,35,0.00,,---,0.00,VWS V14.01,2013-04-01 23:01:00,
2013-04-01 19:02:00,45.8,20.4,30.06,West,269,0.0,3.0,36,0.00,,---,0.00,VWS V14.01,2013-04-01 23:02:00,
2013-04-01 19:03:00,45.7,20.3,30.06,WNW,300,3.0,12.0,36,0.00,,---,0.00,VWS V14.01,2013-04-01 23:03:00,
2013-04-01 19:04:00,45.6,20.2,30.06,WSW,252,2.0,3.0,36,0.00,,---,0.00,VWS V14.01,2013-04-01 23:04:00,
2013-04-01 19:05:00,45.4,20.0,30.06,NW,309,4.0,6.0,36,0.00,,---,0.00,VWS V14.01,2013-04-01 23:05:00,
2013-04-01 19:06:00,45.4,20.0,30.06,NW,309,4.0,6.0,36,0.00,,---,0.00,VWS V14.01,2013-04-01 23:06:00,
2013-04-01 19:07:00,45.3,19.9,30.06,NW,315,3.0,5.0,36,0.00,,---,0.00,VWS V14.01,2013-04-01 23:07:00,
2013-04-01 19:08:00,45.2,20.5,30.06,North,355,7.0,7.0,37,0.00,,---,0.00,VWS V14.01,2013-04-01 23:08:00,
2013-04-01 19:09:00,45.2,21.1,30.06,NNE,15,0.0,7.0,38,0.00,,---,0.00,VWS V14.01,2013-04-01 23:09:00,
2013-04-01 19:10:00,45.2,21.1,30.06,NNW,329,2.0,4.0,38,0.00,,---,0.00,VWS V14.01,2013-04-01 23:10:00,
2013-04-01 19:11:00,45.2,21.1,30.06,NNW,329,2.0,4.0,38,0.00,,---,0.00,VWS V14.01,2013-04-01 23:11:00,
2013-04-01 19:12:00,45.2,20.5,30.06,NW,304,0.0,4.0,37,0.00,,---,0.00,VWS V14.01,2013-04-01 23:12:00,
2013-04-01 19:13:00,45.1,20.4,30.06,WNW,300,0.0,1.0,37,0.00,,---,0.00,VWS V14.01,2013-04-01 23:13:00,
2013-04-01 19:14:00,45.2,20.5,30.06,NW,315,0.0,2.0,37,0.00,,---,0.00,VWS V14.01,2013-04-01 23:14:00,
2013-04-01 19:15:00,45.1,20.4,30.06,NW,319,0.0,4.0,37,0.00,,---,0.00,VWS V14.01,2013-04-01 23:15:00,
2013-04-01 19:16:00,45.1,20.4,30.06,NW,319,0.0,4.0,37,0.00,,---,0.00,VWS V14.01,2013-04-01 23:16:00,
2013-04-01 19:17:00,45.1,20.4,30.06,NNW,330,3.0,6.0,37,0.00,,---,0.00,VWS V14.01,2013-04-01 23:17:00,
2013-04-01 19:18:00,45.1,20.4,30.06,NW,309,2.0,3.0,37,0.00,,---,0.00,VWS V14.01,2013-04-01 23:18:00,
2013-04-01 19:19:00,45.0,20.3,30.06,NW,305,0.0,3.0,37,0.00,,---,0.00,VWS V14.01,2013-04-01 23:19:00,
2013-04-01 19:20:00,45.0,20.3,30.06,North,360,0.0,4.0,37,0.00,,---,0.00,VWS V14.01,2013-04-01 23:20:00,
2013-04-01 19:21:00,45.0,20.3,30.06,North,360,0.0,4.0,37,0.00,,---,0.00,VWS V14.01,2013-04-01 23:21:00,
2013-04-01 19:22:00,45.0,20.3,30.06,NW,317,0.0,1.0,37,0.00,,---,0.00,VWS V14.01,2013-04-01 23:22:00,
2013-04-01 19:23:00,45.0,20.9,30.06,NW,315,0.0,6.0,38,0.00,,---,0.00,VWS V14.01,2013-04-01 23:23:00,
2013-04-01 19:24:00,44.9,20.9,30.06,NW,319,4.0,4.0,38,0.00,,---,0.00,VWS V14.01,2013-04-01 23:24:00,
2013-04-01 19:25:00,44.8,20.8,30.06,NNW,346,2.0,4.0,38,0.00,,---,0.00,VWS V14.01,2013-04-01 23:25:00,
2013-04-01 19:26:00,44.8,20.8,30.06,NNW,346,2.0,4.0,38,0.00,,---,0.00,VWS V14.01,2013-04-01 23:26:00,
2013-04-01 19:27:00,44.6,20.6,30.06,NE,49,2.0,3.0,38,0.00,,---,0.00,VWS V14.01,2013-04-01 23:27:00,
2013-04-01 19:28:00,44.6,20.6,30.06,NNW,329,3.0,3.0,38,0.00,,---,0.00,VWS V14.01,2013-04-01 23:28:00,
2013-04-01 19:29:00,44.5,20.5,30.06,NW,320,0.0,4.0,38,0.00,,---,0.00,VWS V14.01,2013-04-01 23:29:00,
2013-04-01 19:30:00,44.3,20.3,30.06,NW,325,2.0,5.0,38,0.00,,---,0.00,VWS V14.01,2013-04-01 23:30:00,
2013-04-01 19:31:00,44.3,20.3,30.06,NW,325,2.0,5.0,38,0.00,,---,0.00,VWS V14.01,2013-04-01 23:31:00,
2013-04-01 19:32:00,44.3,20.3,30.06,NW,315,3.0,4.0,38,0.00,,---,0.00,VWS V14.01,2013-04-01 23:32:00,
2013-04-01 19:33:00,44.2,20.8,30.06,NW,324,0.0,3.0,39,0.00,,---,0.00,VWS V14.01,2013-04-01 23:33:00,
2013-04-01 19:34:00,44.1,20.1,30.06,NNW,336,0.0,6.0,38,0.00,,---,0.00,VWS V14.01,2013-04-01 23:34:00,
2013-04-01 19:35:00,44.0,20.6,30.06,NNW,333,0.0,5.0,39,0.00,,---,0.00,VWS V14.01,2013-04-01 23:35:00,
2013-04-01 19:36:00,44.0,20.6,30.06,NNW,333,0.0,5.0,39,0.00,,---,0.00,VWS V14.01,2013-04-01 23:36:00,
2013-04-01 19:37:00,44.0,20.6,30.06,NW,323,5.0,7.0,39,0.00,,---,0.00,VWS V14.01,2013-04-01 23:37:00,
2013-04-01 19:38:00,43.9,20.6,30.06,NNE,22,1.0,6.0,39,0.00,,---,0.00,VWS V14.01,2013-04-01 23:38:00,
2013-04-01 19:39:00,43.8,20.5,30.06,North,349,0.0,3.0,39,0.00,,---,0.00,VWS V14.01,2013-04-01 23:39:00,
2013-04-01 19:40:00,43.7,21.0,30.06,NNW,342,0.0,4.0,40,0.00,,---,0.00,VWS V14.01,2013-04-01 23:40:00,
2013-04-01 19:41:00,43.7,21.0,30.06,NNW,342,0.0,4.0,40,0.00,,---,0.00,VWS V14.01,2013-04-01 23:41:00,
2013-04-01 19:42:00,43.7,21.0,30.06,NW,317,0.0,5.0,40,0.00,,---,0.00,VWS V14.01,2013-04-01 23:42:00,
2013-04-01 19:43:00,43.6,20.3,30.06,North,360,0.0,2.0,39,0.00,,---,0.00,VWS V14.01,2013-04-01 23:43:00,
2013-04-01 19:44:00,43.6,20.9,30.06,North,360,0.0,1.0,40,0.00,,---,0.00,VWS V14.01,2013-04-01 23:44:00,
2013-04-01 19:45:00,43.5,20.8,30.06,North,360,1.0,2.0,40,0.00,,---,0.00,VWS V14.01,2013-04-01 23:45:00,
2013-04-01 19:46:00,43.5,20.8,30.06,North,360,1.0,2.0,40,0.00,,---,0.00,VWS V14.01,2013-04-01 23:46:00,
2013-04-01 19:47:00,43.5,20.8,30.06,NW,322,2.0,7.0,40,0.00,,---,0.00,VWS V14.01,2013-04-01 23:47:00,
2013-04-01 19:48:00,43.4,20.7,30.07,NNW,342,0.0,6.0,40,0.00,,---,0.00,VWS V14.01,2013-04-01 23:48:00,
2013-04-01 19:49:00,43.4,20.7,30.07,North,10,0.0,2.0,40,0.00,,---,0.00,VWS V14.01,2013-04-01 23:49:00,
2013-04-01 19:50:00,43.3,21.2,30.07,NW,313,3.0,4.0,41,0.00,,---,0.00,VWS V14.01,2013-04-01 23:50:00,
2013-04-01 19:51:00,43.3,21.2,30.07,NW,313,3.0,4.0,41,0.00,,---,0.00,VWS V14.01,2013-04-01 23:51:00,
2013-04-01 19:52:00,43.2,21.1,30.07,NNE,20,0.0,3.0,41,0.00,,---,0.00,VWS V14.01,2013-04-01 23:52:00,
2013-04-01 19:53:00,43.2,21.1,30.06,North,5,7.0,8.0,41,0.00,,---,0.00,VWS V14.01,2013-04-01 23:53:00,
2013-04-01 19:54:00,43.1,20.4,30.06,NNW,347,0.0,7.0,40,0.00,,---,0.00,VWS V14.01,2013-04-01 23:54:00,
2013-04-01 19:55:00,43.0,20.9,30.06,NNW,331,0.0,5.0,41,0.00,,---,0.00,VWS V14.01,2013-04-01 23:55:00,
2013-04-01 19:56:00,43.0,20.9,30.06,NNW,331,0.0,5.0,41,0.00,,---,0.00,VWS V14.01,2013-04-01 23:56:00,
2013-04-01 19:57:00,42.9,20.8,30.07,NW,306,2.0,3.0,41,0.00,,---,0.00,VWS V14.01,2013-04-01 23:57:00,
2013-04-01 19:58:00,42.9,20.8,30.06,North,349,0.0,3.0,41,0.00,,---,0.00,VWS V14.01,2013-04-01 23:58:00,
2013-04-01 19:59:00,42.8,20.8,30.07,North,349,0.0,1.0,41,0.00,,---,0.00,VWS V14.01,2013-04-01 23:59:00,
2013-04-01 20:00:00,42.7,21.2,30.07,NNW,332,0.0,3.0,42,0.00,,---,0.00,VWS V14.01,2013-04-02 00:00:00,
2013-04-01 20:01:00,42.7,21.2,30.07,NNW,332,0.0,3.0,42,0.00,,---,0.00,VWS V14.01,2013-04-02 00:01:00,
2013-04-01 20:02:00,42.7,21.2,30.07,NNW,332,0.0,1.0,42,0.00,,---,0.00,VWS V14.01,2013-04-02 00:02:00,
2013-04-01 20:03:00,42.6,21.1,30.07,NNW,332,0.0,0.0,42,0.00,,---,0.00,VWS V14.01,2013-04-02 00:03:00,
2013-04-01 20:04:00,42.6,21.1,30.07,WNW,298,0.0,2.0,42,0.00,,---,0.00,VWS V14.01,2013-04-02 00:04:00,
2013-04-01 20:05:00,42.5,21.0,30.07,WNW,298,0.0,1.0,42,0.00,,---,0.00,VWS V14.01,2013-04-02 00:05:00,
2013-04-01 20:06:00,42.5,21.0,30.07,WNW,298,0.0,1.0,42,0.00,,---,0.00,VWS V14.01,2013-04-02 00:06:00,
2013-04-01 20:07:00,42.4,21.0,30.07,WNW,296,0.0,5.0,42,0.00,,---,0.00,VWS V14.01,2013-04-02 00:07:00,
2013-04-01 20:08:00,42.3,21.4,30.07,WNW,296,0.0,1.0,43,0.00,,---,0.00,VWS V14.01,2013-04-02 00:08:00,
2013-04-01 20:09:00,42.3,20.9,30.07,WNW,296,0.0,0.0,42,0.00,,---,0.00,VWS V14.01,2013-04-02 00:09:00,
2013-04-01 20:10:00,42.2,21.3,30.07,WNW,302,3.0,3.0,43,0.00,,---,0.00,VWS V14.01,2013-04-02 00:10:00,
2013-04-01 20:11:00,42.2,21.3,30.07,WNW,302,3.0,3.0,43,0.00,,---,0.00,VWS V14.01,2013-04-02 00:11:00,
2013-04-01 20:12:00,42.1,21.2,30.07,NNW,335,2.0,3.0,43,0.00,,---,0.00,VWS V14.01,2013-04-02 00:12:00,
2013-04-01 20:13:00,42.1,20.7,30.07,NW,318,2.0,3.0,42,0.00,,---,0.00,VWS V14.01,2013-04-02 00:13:00,
2013-04-01 20:14:00,42.1,20.7,30.07,NW,311,0.0,5.0,42,0.00,,---,0.00,VWS V14.01,2013-04-02 00:14:00,
2013-04-01 20:15:00,42.0,20.6,30.07,WNW,303,2.0,5.0,42,0.00,,---,0.00,VWS V14.01,2013-04-02 00:15:00,
2013-04-01 20:16:00,42.0,20.6,30.07,WNW,303,2.0,5.0,42,0.00,,---,0.00,VWS V14.01,2013-04-02 00:16:00,
2013-04-01 20:17:00,42.0,20.6,30.07,NW,308,3.0,4.0,42,0.00,,---,0.00,VWS V14.01,2013-04-02 00:17:00,
2013-04-01 20:18:00,42.0,20.6,30.07,WNW,291,0.0,5.0,42,0.00,,---,0.00,VWS V14.01,2013-04-02 00:18:00,
2013-04-01 20:19:00,42.0,20.6,30.07,NW,313,0.0,2.0,42,0.00,,---,0.00,VWS V14.01,2013-04-02 00:19:00,
2013-04-01 20:20:00,41.9,21.0,30.07,NW,306,0.0,1.0,43,0.00,,---,0.00,VWS V14.01,2013-04-02 00:20:00,
2013-04-01 20:21:00,41.9,21.0,30.07,NW,306,0.0,1.0,43,0.00,,---,0.00,VWS V14.01,2013-04-02 00:21:00,
2013-04-01 20:22:00,41.9,21.0,30.07,NW,308,0.0,0.0,43,0.00,,---,0.00,VWS V14.01,2013-04-02 00:22:00,
2013-04-01 20:23:00,41.8,21.0,30.07,North,360,0.0,4.0,43,0.00,,---,0.00,VWS V14.01,2013-04-02 00:23:00,
2013-04-01 20:24:00,41.8,20.4,30.07,NNW,336,1.0,3.0,42,0.00,,---,0.00,VWS V14.01,2013-04-02 00:24:00,
2013-04-01 20:25:00,41.7,20.3,30.07,WNW,302,2.0,6.0,42,0.00,,---,0.00,VWS V14.01,2013-04-02 00:25:00,
2013-04-01 20:26:00,41.7,20.3,30.07,WNW,302,2.0,6.0,42,0.00,,---,0.00,VWS V14.01,2013-04-02 00:26:00,
2013-04-01 20:27:00,41.7,20.9,30.07,WNW,298,0.0,2.0,43,0.00,,---,0.00,VWS V14.01,2013-04-02 00:27:00,
2013-04-01 20:28:00,41.6,20.8,30.07,NW,309,2.0,3.0,43,0.00,,---,0.00,VWS V14.01,2013-04-02 00:28:00,
2013-04-01 20:29:00,41.6,20.8,30.07,NW,309,0.0,2.0,43,0.00,,---,0.00,VWS V14.01,2013-04-02 00:29:00,
2013-04-01 20:30:00,41.5,20.7,30.07,NW,309,0.0,0.0,43,0.00,,---,0.00,VWS V14.01,2013-04-02 00:30:00,
2013-04-01 20:31:00,41.5,20.7,30.07,NW,309,0.0,0.0,43,0.00,,---,0.00,VWS V14.01,2013-04-02 00:31:00,
2013-04-01 20:32:00,41.5,20.7,30.07,NW,310,0.0,1.0,43,0.00,,---,0.00,VWS V14.01,2013-04-02 00:32:00,
2013-04-01 20:33:00,41.4,21.1,30.08,NW,310,0.0,4.0,44,0.00,,---,0.00,VWS V14.01,2013-04-02 00:33:00,
2013-04-01 20:34:00,41.4,20.6,30.08,NW,310,0.0,0.0,43,0.00,,---,0.00,VWS V14.01,2013-04-02 00:34:00,
2013-04-01 20:35:00,41.3,21.0,30.08,NW,310,0.0,0.0,44,0.00,,---,0.00,VWS V14.01,2013-04-02 00:35:00,
2013-04-01 20:36:00,41.3,21.0,30.08,NW,310,0.0,0.0,44,0.00,,---,0.00,VWS V14.01,2013-04-02 00:36:00,
2013-04-01 20:37:00,41.3,21.0,30.08,NW,310,0.0,3.0,44,0.00,,---,0.00,VWS V14.01,2013-04-02 00:37:00,
2013-04-01 20:38:00,41.2,21.0,30.08,NW,310,0.0,0.0,44,0.00,,---,0.00,VWS V14.01,2013-04-02 00:38:00,
2013-04-01 20:39:00,41.2,21.0,30.08,NW,311,2.0,2.0,44,0.00,,---,0.00,VWS V14.01,2013-04-02 00:39:00,
2013-04-01 20:40:00,41.1,20.9,30.08,NNW,342,1.0,1.0,44,0.00,,---,0.00,VWS V14.01,2013-04-02 00:40:00,
2013-04-01 20:41:00,41.1,20.9,30.08,NNW,342,1.0,1.0,44,0.00,,---,0.00,VWS V14.01,2013-04-02 00:41:00,
2013-04-01 20:42:00,41.1,20.9,30.08,WNW,302,0.0,3.0,44,0.00,,---,0.00,VWS V14.01,2013-04-02 00:42:00,
2013-04-01 20:43:00,41.1,20.9,30.08,WNW,302,0.0,1.0,44,0.00,,---,0.00,VWS V14.01,2013-04-02 00:43:00,
2013-04-01 20:44:00,41.0,20.8,30.08,WNW,302,0.0,1.0,44,0.00,,---,0.00,VWS V14.01,2013-04-02 00:44:00,
2013-04-01 20:45:00,41.0,20.8,30.08,NW,307,1.0,2.0,44,0.00,,---,0.00,VWS V14.01,2013-04-02 00:45:00,
2013-04-01 20:46:00,41.0,20.8,30.08,NW,307,1.0,2.0,44,0.00,,---,0.00,VWS V14.01,2013-04-02 00:46:00,
2013-04-01 20:47:00,41.0,21.8,30.08,WNW,296,1.0,4.0,46,0.00,,---,0.00,VWS V14.01,2013-04-02 00:47:00,
2013-04-01 20:48:00,41.0,20.2,30.08,NNW,337,0.0,3.0,43,0.00,,---,0.00,VWS V14.01,2013-04-02 00:48:00,
2013-04-01 20:49:00,40.9,20.7,30.08,WNW,296,5.0,5.0,44,0.00,,---,0.00,VWS V14.01,2013-04-02 00:49:00,
2013-04-01 20:50:00,40.9,20.7,30.08,WNW,298,0.0,0.0,44,0.00,,---,0.00,VWS V14.01,2013-04-02 00:50:00,
2013-04-01 20:51:00,40.9,20.7,30.08,WNW,298,0.0,0.0,44,0.00,,---,0.00,VWS V14.01,2013-04-02 00:51:00,
2013-04-01 20:52:00,40.9,20.7,30.08,WNW,298,0.0,1.0,44,0.00,,---,0.00,VWS V14.01,2013-04-02 00:52:00,
2013-04-01 20:53:00,40.9,20.7,30.08,NW,314,0.0,4.0,44,0.00,,---,0.00,VWS V14.01,2013-04-02 00:53:00,
2013-04-01 20:54:00,40.8,20.6,30.08,NW,319,0.0,1.0,44,0.00,,---,0.00,VWS V14.01,2013-04-02 00:54:00,
2013-04-01 20:55:00,40.8,20.6,30.08,NNW,343,1.0,1.0,44,0.00,,---,0.00,VWS V14.01,2013-04-02 00:55:00,
2013-04-01 20:56:00,40.8,20.6,30.08,NNW,343,1.0,1.0,44,0.00,,---,0.00,VWS V14.01,2013-04-02 00:56:00,
2013-04-01 20:57:00,40.8,20.6,30.08,WNW,299,0.0,3.0,44,0.00,,---,0.00,VWS V14.01,2013-04-02 00:57:00,
2013-04-01 20:58:00,40.7,20.5,30.08,WNW,299,0.0,1.0,44,0.00,,---,0.00,VWS V14.01,2013-04-02 00:58:00,
2013-04-01 20:59:00,40.7,20.5,30.08,WNW,299,0.0,0.0,44,0.00,,---,0.00,VWS V14.01,2013-04-02 00:59:00,
2013-04-01 21:00:00,40.6,20.4,30.08,WNW,302,0.0,0.0,44,0.00,,---,0.00,VWS V14.01,2013-04-02 01:00:00,
2013-04-01 21:01:00,40.6,20.4,30.08,WNW,302,0.0,0.0,44,0.00,,---,0.00,VWS V14.01,2013-04-02 01:01:00,
2013-04-01 21:02:00,40.6,20.4,30.08,WNW,302,0.0,1.0,44,0.00,,---,0.00,VWS V14.01,2013-04-02 01:02:00,
2013-04-01 21:03:00,40.6,20.4,30.08,WNW,302,0.0,1.0,44,0.00,,---,0.00,VWS V14.01,2013-04-02 01:03:00,
2013-04-01 21:04:00,40.6,20.4,30.08,WNW,302,0.0,0.0,44,0.00,,---,0.00,VWS V14.01,2013-04-02 01:04:00,
2013-04-01 21:05:00,40.5,20.9,30.08,NW,311,0.0,1.0,45,0.00,,---,0.00,VWS V14.01,2013-04-02 01:05:00,
2013-04-01 21:06:00,40.5,20.9,30.08,NW,311,0.0,1.0,45,0.00,,---,0.00,VWS V14.01,2013-04-02 01:06:00,
2013-04-01 21:07:00,40.4,20.8,30.09,NW,311,0.0,0.0,45,0.00,,---,0.00,VWS V14.01,2013-04-02 01:07:00,
2013-04-01 21:08:00,40.4,20.8,30.09,NW,311,0.0,1.0,45,0.00,,---,0.00,VWS V14.01,2013-04-02 01:08:00,
2013-04-01 21:09:00,40.4,20.8,30.09,NW,311,0.0,0.0,45,0.00,,---,0.00,VWS V14.01,2013-04-02 01:09:00,
2013-04-01 21:10:00,40.3,20.7,30.09,NW,311,0.0,0.0,45,0.00,,---,0.00,VWS V14.01,2013-04-02 01:10:00,
2013-04-01 21:11:00,40.3,20.7,30.09,NW,311,0.0,0.0,45,0.00,,---,0.00,VWS V14.01,2013-04-02 01:11:00,
2013-04-01 21:12:00,40.2,20.6,30.09,NW,311,0.0,0.0,45,0.00,,---,0.00,VWS V14.01,2013-04-02 01:12:00,
2013-04-01 21:13:00,40.2,20.6,30.09,NW,311,0.0,0.0,45,0.00,,---,0.00,VWS V14.01,2013-04-02 01:13:00,
2013-04-01 21:14:00,40.1,20.5,30.09,NW,311,0.0,0.0,45,0.00,,---,0.00,VWS V14.01,2013-04-02 01:14:00,
2013-04-01 21:15:00,40.0,20.4,30.09,NW,311,0.0,0.0,45,0.00,,---,0.00,VWS V14.01,2013-04-02 01:15:00,
2013-04-01 21:16:00,40.0,20.4,30.09,NW,311,0.0,0.0,45,0.00,,---,0.00,VWS V14.01,2013-04-02 01:16:00,
2013-04-01 21:17:00,40.0,20.4,30.09,NW,311,0.0,0.0,45,0.00,,---,0.00,VWS V14.01,2013-04-02 01:17:00,
2013-04-01 21:18:00,39.9,20.3,30.09,NW,311,0.0,0.0,45,0.00,,---,0.00,VWS V14.01,2013-04-02 01:18:00,
2013-04-01 21:19:00,39.8,20.7,30.09,NW,311,0.0,0.0,46,0.00,,---,0.00,VWS V14.01,2013-04-02 01:19:00,
2013-04-01 21:20:00,39.8,20.2,30.09,NW,311,0.0,0.0,45,0.00,,---,0.00,VWS V14.01,2013-04-02 01:20:00,
2013-04-01 21:21:00,39.8,20.2,30.09,NW,311,0.0,0.0,45,0.00,,---,0.00,VWS V14.01,2013-04-02 01:21:00,
2013-04-01 21:22:00,39.7,20.1,30.09,NW,311,0.0,0.0,45,0.00,,---,0.00,VWS V14.01,2013-04-02 01:22:00,
2013-04-01 21:23:00,39.7,20.6,30.09,NW,311,0.0,0.0,46,0.00,,---,0.00,VWS V14.01,2013-04-02 01:23:00,
2013-04-01 21:24:00,39.6,20.5,30.09,NW,311,0.0,1.0,46,0.00,,---,0.00,VWS V14.01,2013-04-02 01:24:00,
2013-04-01 21:25:00,39.5,21.9,30.09,NW,311,0.0,0.0,49,0.00,,---,0.00,VWS V14.01,2013-04-02 01:25:00,
2013-04-01 21:26:00,39.5,21.9,30.09,NW,311,0.0,0.0,49,0.00,,---,0.00,VWS V14.01,2013-04-02 01:26:00,
2013-04-01 21:27:00,39.5,20.5,30.09,NW,311,0.0,0.0,46,0.00,,---,0.00,VWS V14.01,2013-04-02 01:27:00,
2013-04-01 21:28:00,39.4,20.4,30.09,NW,311,0.0,0.0,46,0.00,,---,0.00,VWS V14.01,2013-04-02 01:28:00,
2013-04-01 21:29:00,39.4,20.4,30.09,NW,311,0.0,0.0,46,0.00,,---,0.00,VWS V14.01,2013-04-02 01:29:00,
2013-04-01 21:30:00,39.3,20.8,30.09,NW,311,0.0,0.0,47,0.00,,---,0.00,VWS V14.01,2013-04-02 01:30:00,
2013-04-01 21:31:00,39.3,20.8,30.09,NW,311,0.0,0.0,47,0.00,,---,0.00,VWS V14.01,2013-04-02 01:31:00,
2013-04-01 21:32:00,39.2,20.7,30.09,NW,311,0.0,0.0,47,0.00,,---,0.00,VWS V14.01,2013-04-02 01:32:00,
2013-04-01 21:33:00,39.2,20.7,30.09,NW,311,0.0,0.0,47,0.00,,---,0.00,VWS V14.01,2013-04-02 01:33:00,
2013-04-01 21:34:00,39.1,20.6,30.09,NW,311,0.0,0.0,47,0.00,,---,0.00,VWS V14.01,2013-04-02 01:34:00,
2013-04-01 21:35:00,39.0,20.0,30.09,NW,311,0.0,0.0,46,0.00,,---,0.00,VWS V14.01,2013-04-02 01:35:00,
2013-04-01 21:36:00,39.0,20.0,30.09,NW,311,0.0,0.0,46,0.00,,---,0.00,VWS V14.01,2013-04-02 01:36:00,
2013-04-01 21:37:00,39.0,20.5,30.09,NW,311,0.0,0.0,47,0.00,,---,0.00,VWS V14.01,2013-04-02 01:37:00,
2013-04-01 21:38:00,39.0,20.5,30.10,NW,311,0.0,0.0,47,0.00,,---,0.00,VWS V14.01,2013-04-02 01:38:00,
2013-04-01 21:39:00,38.9,20.4,30.10,NW,311,0.0,0.0,47,0.00,,---,0.00,VWS V14.01,2013-04-02 01:39:00,
2013-04-01 21:40:00,38.8,20.3,30.10,NW,311,0.0,1.0,47,0.00,,---,0.00,VWS V14.01,2013-04-02 01:40:00,
2013-04-01 21:41:00,38.8,20.3,30.10,NW,311,0.0,1.0,47,0.00,,---,0.00,VWS V14.01,2013-04-02 01:41:00,
2013-04-01 21:42:00,38.8,20.3,30.10,NW,311,0.0,0.0,47,0.00,,---,0.00,VWS V14.01,2013-04-02 01:42:00,
2013-04-01 21:43:00,38.8,20.3,30.10,NW,311,0.0,0.0,47,0.00,,---,0.00,VWS V14.01,2013-04-02 01:43:00,
2013-04-01 21:44:00,38.7,20.2,30.10,NW,311,0.0,0.0,47,0.00,,---,0.00,VWS V14.01,2013-04-02 01:44:00,
2013-04-01 21:45:00,38.7,20.2,30.10,NW,311,0.0,0.0,47,0.00,,---,0.00,VWS V14.01,2013-04-02 01:45:00,
2013-04-01 21:46:00,38.7,20.2,30.10,NW,311,0.0,0.0,47,0.00,,---,0.00,VWS V14.01,2013-04-02 01:46:00,
2013-04-01 21:47:00,38.7,20.7,30.10,NW,311,0.0,0.0,48,0.00,,---,0.00,VWS V14.01,2013-04-02 01:47:00,
2013-04-01 21:48:00,38.7,20.7,30.10,NW,311,0.0,0.0,48,0.00,,---,0.00,VWS V14.01,2013-04-02 01:48:00,
2013-04-01 21:49:00,38.7,20.7,30.10,NW,311,0.0,0.0,48,0.00,,---,0.00,VWS V14.01,2013-04-02 01:49:00,
2013-04-01 21:50:00,38.6,20.6,30.10,NW,311,0.0,0.0,48,0.00,,---,0.00,VWS V14.01,2013-04-02 01:50:00,
2013-04-01 21:51:00,38.6,20.6,30.10,NW,311,0.0,0.0,48,0.00,,---,0.00,VWS V14.01,2013-04-02 01:51:00,
2013-04-01 21:52:00,38.6,20.6,30.10,NW,311,0.0,0.0,48,0.00,,---,0.00,VWS V14.01,2013-04-02 01:52:00,
2013-04-01 21:53:00,38.5,20.5,30.10,NW,311,0.0,0.0,48,0.00,,---,0.00,VWS V14.01,2013-04-02 01:53:00,
2013-04-01 21:54:00,38.5,20.5,30.10,NW,311,0.0,0.0,48,0.00,,---,0.00,VWS V14.01,2013-04-02 01:54:00,
2013-04-01 21:55:00,38.4,20.4,30.10,NW,311,0.0,0.0,48,0.00,,---,0.00,VWS V14.01,2013-04-02 01:55:00,
2013-04-01 21:56:00,38.4,20.4,30.10,NW,311,0.0,0.0,48,0.00,,---,0.00,VWS V14.01,2013-04-02 01:56:00,
2013-04-01 21:57:00,38.4,20.4,30.10,NW,311,0.0,0.0,48,0.00,,---,0.00,VWS V14.01,2013-04-02 01:57:00,
2013-04-01 21:58:00,38.3,20.4,30.10,NW,311,0.0,1.0,48,0.00,,---,0.00,VWS V14.01,2013-04-02 01:58:00,
2013-04-01 21:59:00,38.3,20.8,30.10,NW,311,1.0,1.0,49,0.00,,---,0.00,VWS V14.01,2013-04-02 01:59:00,
2013-04-01 22:00:00,38.2,20.7,30.10,NW,311,0.0,0.0,49,0.00,,---,0.00,VWS V14.01,2013-04-02 02:00:00,
2013-04-01 22:01:00,38.2,20.7,30.10,NW,311,0.0,0.0,49,0.00,,---,0.00,VWS V14.01,2013-04-02 02:01:00,
2013-04-01 22:02:00,38.2,20.7,30.10,NW,311,0.0,0.0,49,0.00,,---,0.00,VWS V14.01,2013-04-02 02:02:00,
2013-04-01 22:03:00,38.2,20.7,30.10,NW,311,0.0,0.0,49,0.00,,---,0.00,VWS V14.01,2013-04-02 02:03:00,
2013-04-01 22:04:00,38.2,20.7,30.10,NW,311,0.0,1.0,49,0.00,,---,0.00,VWS V14.01,2013-04-02 02:04:00,
2013-04-01 22:05:00,38.1,20.6,30.10,NW,311,0.0,1.0,49,0.00,,---,0.00,VWS V14.01,2013-04-02 02:05:00,
2013-04-01 22:06:00,38.1,20.6,30.10,NW,311,0.0,1.0,49,0.00,,---,0.00,VWS V14.01,2013-04-02 02:06:00,
2013-04-01 22:07:00,38.1,20.6,30.10,NW,311,1.0,2.0,49,0.00,,---,0.00,VWS V14.01,2013-04-02 02:07:00,
2013-04-01 22:08:00,38.1,20.2,30.10,NW,311,0.0,2.0,48,0.00,,---,0.00,VWS V14.01,2013-04-02 02:08:00,
2013-04-01 22:09:00,38.1,20.2,30.10,NW,311,0.0,0.0,48,0.00,,---,0.00,VWS V14.01,2013-04-02 02:09:00,
2013-04-01 22:10:00,38.1,20.6,30.10,NW,311,0.0,1.0,49,0.00,,---,0.00,VWS V14.01,2013-04-02 02:10:00,
2013-04-01 22:11:00,38.1,20.6,30.10,NW,311,0.0,1.0,49,0.00,,---,0.00,VWS V14.01,2013-04-02 02:11:00,
2013-04-01 22:12:00,38.1,20.6,30.10,NW,311,0.0,0.0,49,0.00,,---,0.00,VWS V14.01,2013-04-02 02:12:00,
2013-04-01 22:13:00,38.1,20.6,30.10,NW,311,0.0,0.0,49,0.00,,---,0.00,VWS V14.01,2013-04-02 02:13:00,
2013-04-01 22:14:00,38.1,20.6,30.10,NW,311,0.0,0.0,49,0.00,,---,0.00,VWS V14.01,2013-04-02 02:14:00,
2013-04-01 22:15:00,38.0,20.5,30.10,NW,311,0.0,0.0,49,0.00,,---,0.00,VWS V14.01,2013-04-02 02:15:00,
2013-04-01 22:16:00,38.0,20.5,30.10,NW,311,0.0,0.0,49,0.00,,---,0.00,VWS V14.01,2013-04-02 02:16:00,
2013-04-01 22:17:00,37.9,20.5,30.11,NW,311,0.0,0.0,49,0.00,,---,0.00,VWS V14.01,2013-04-02 02:17:00,
2013-04-01 22:18:00,37.9,20.5,30.10,NW,311,0.0,0.0,49,0.00,,---,0.00,VWS V14.01,2013-04-02 02:18:00,
2013-04-01 22:19:00,37.9,20.5,30.10,NW,311,0.0,0.0,49,0.00,,---,0.00,VWS V14.01,2013-04-02 02:19:00,
2013-04-01 22:20:00,37.8,20.4,30.11,NW,311,1.0,1.0,49,0.00,,---,0.00,VWS V14.01,2013-04-02 02:20:00,
2013-04-01 22:21:00,37.8,20.4,30.11,NW,311,1.0,1.0,49,0.00,,---,0.00,VWS V14.01,2013-04-02 02:21:00,
2013-04-01 22:22:00,37.7,20.3,30.10,NW,311,0.0,1.0,49,0.00,,---,0.00,VWS V14.01,2013-04-02 02:22:00,
2013-04-01 22:23:00,37.7,20.8,30.10,NW,311,0.0,0.0,50,0.00,,---,0.00,VWS V14.01,2013-04-02 02:23:00,
2013-04-01 22:24:00,37.7,20.8,30.10,NW,311,0.0,0.0,50,0.00,,---,0.00,VWS V14.01,2013-04-02 02:24:00,
2013-04-01 22:25:00,37.6,20.2,30.11,NW,311,0.0,0.0,49,0.00,,---,0.00,VWS V14.01,2013-04-02 02:25:00,
2013-04-01 22:26:00,37.6,20.2,30.11,NW,311,0.0,0.0,49,0.00,,---,0.00,VWS V14.01,2013-04-02 02:26:00,
2013-04-01 22:27:00,37.5,20.1,30.11,NW,311,0.0,1.0,49,0.00,,---,0.00,VWS V14.01,2013-04-02 02:27:00,
2013-04-01 22:28:00,37.5,20.6,30.11,NW,311,0.0,0.0,50,0.00,,---,0.00,VWS V14.01,2013-04-02 02:28:00,
2013-04-01 22:29:00,37.5,20.1,30.11,NW,311,0.0,1.0,49,0.00,,---,0.00,VWS V14.01,2013-04-02 02:29:00,
2013-04-01 22:30:00,37.5,20.6,30.11,NW,312,0.0,0.0,50,0.00,,---,0.00,VWS V14.01,2013-04-02 02:30:00,
2013-04-01 22:31:00,37.5,20.6,30.11,NW,312,0.0,0.0,50,0.00,,---,0.00,VWS V14.01,2013-04-02 02:31:00,
2013-04-01 22:32:00,37.4,20.5,30.11,NW,312,0.0,0.0,50,0.00,,---,0.00,VWS V14.01,2013-04-02 02:32:00,
2013-04-01 22:33:00,37.4,20.5,30.11,NW,312,0.0,0.0,50,0.00,,---,0.00,VWS V14.01,2013-04-02 02:33:00,
2013-04-01 22:34:00,37.4,20.5,30.11,NW,312,0.0,0.0,50,0.00,,---,0.00,VWS V14.01,2013-04-02 02:34:00,
2013-04-01 22:35:00,37.4,20.0,30.11,NW,312,0.0,0.0,49,0.00,,---,0.00,VWS V14.01,2013-04-02 02:35:00,
2013-04-01 22:36:00,37.4,20.0,30.11,NW,312,0.0,0.0,49,0.00,,---,0.00,VWS V14.01,2013-04-02 02:36:00,
2013-04-01 22:37:00,37.3,19.9,30.11,NW,312,0.0,1.0,49,0.00,,---,0.00,VWS V14.01,2013-04-02 02:37:00,
2013-04-01 22:38:00,37.3,20.4,30.11,NW,312,0.0,0.0,50,0.00,,---,0.00,VWS V14.01,2013-04-02 02:38:00,
2013-04-01 22:39:00,37.3,20.4,30.11,NW,312,0.0,0.0,50,0.00,,---,0.00,VWS V14.01,2013-04-02 02:39:00,
2013-04-01 22:40:00,37.2,20.3,30.11,NW,312,0.0,0.0,50,0.00,,---,0.00,VWS V14.01,2013-04-02 02:40:00,
2013-04-01 22:41:00,37.2,20.3,30.11,NW,312,0.0,0.0,50,0.00,,---,0.00,VWS V14.01,2013-04-02 02:41:00,
2013-04-01 22:42:00,37.2,20.3,30.11,NW,312,0.0,0.0,50,0.00,,---,0.00,VWS V14.01,2013-04-02 02:42:00,
2013-04-01 22:43:00,37.2,20.3,30.11,NW,312,0.0,0.0,50,0.00,,---,0.00,VWS V14.01,2013-04-02 02:43:00,
2013-04-01 22:44:00,37.2,20.3,30.11,NW,312,0.0,1.0,50,0.00,,---,0.00,VWS V14.01,2013-04-02 02:44:00,
2013-04-01 22:45:00,37.1,20.2,30.11,NW,312,0.0,0.0,50,0.00,,---,0.00,VWS V14.01,2013-04-02 02:45:00,
2013-04-01 22:46:00,37.1,20.2,30.11,NW,312,0.0,0.0,50,0.00,,---,0.00,VWS V14.01,2013-04-02 02:46:00,
2013-04-01 22:47:00,37.1,20.2,30.11,NW,312,0.0,0.0,50,0.00,,---,0.00,VWS V14.01,2013-04-02 02:47:00,
2013-04-01 22:48:00,37.1,20.2,30.11,NW,312,0.0,0.0,50,0.00,,---,0.00,VWS V14.01,2013-04-02 02:48:00,
2013-04-01 22:49:00,37.0,20.1,30.11,NW,312,0.0,0.0,50,0.00,,---,0.00,VWS V14.01,2013-04-02 02:49:00,
2013-04-01 22:50:00,37.0,20.1,30.11,NW,312,0.0,0.0,50,0.00,,---,0.00,VWS V14.01,2013-04-02 02:50:00,
2013-04-01 22:51:00,37.0,20.1,30.11,NW,312,0.0,0.0,50,0.00,,---,0.00,VWS V14.01,2013-04-02 02:51:00,
2013-04-01 22:52:00,37.0,20.1,30.11,NW,312,0.0,0.0,50,0.00,,---,0.00,VWS V14.01,2013-04-02 02:52:00,
2013-04-01 22:53:00,37.0,20.6,30.11,NW,312,0.0,0.0,51,0.00,,---,0.00,VWS V14.01,2013-04-02 02:53:00,
2013-04-01 22:54:00,37.0,20.6,30.11,NW,312,0.0,0.0,51,0.00,,---,0.00,VWS V14.01,2013-04-02 02:54:00,
2013-04-01 22:55:00,37.0,20.6,30.11,NW,312,0.0,0.0,51,0.00,,---,0.00,VWS V14.01,2013-04-02 02:55:00,
2013-04-01 22:56:00,37.0,20.6,30.11,NW,312,0.0,0.0,51,0.00,,---,0.00,VWS V14.01,2013-04-02 02:56:00,
2013-04-01 22:57:00,36.9,20.5,30.11,NW,312,0.0,0.0,51,0.00,,---,0.00,VWS V14.01,2013-04-02 02:57:00,
2013-04-01 22:58:00,36.9,20.5,30.11,NW,312,0.0,0.0,51,0.00,,---,0.00,VWS V14.01,2013-04-02 02:58:00,
2013-04-01 22:59:00,36.9,20.5,30.11,NW,312,0.0,0.0,51,0.00,,---,0.00,VWS V14.01,2013-04-02 02:59:00,
2013-04-01 23:00:00,36.8,20.8,30.11,NW,312,0.0,0.0,52,0.00,,---,0.00,VWS V14.01,2013-04-02 03:00:00,
2013-04-01 23:01:00,36.8,20.8,30.11,NW,312,0.0,0.0,52,0.00,,---,0.00,VWS V14.01,2013-04-02 03:01:00,
2013-04-01 23:02:00,36.8,20.8,30.11,NW,312,0.0,0.0,52,0.00,,---,0.00,VWS V14.01,2013-04-02 03:02:00,
2013-04-01 23:03:00,36.7,20.3,30.11,NW,312,0.0,0.0,51,0.00,,---,0.00,VWS V14.01,2013-04-02 03:03:00,
2013-04-01 23:04:00,36.7,20.8,30.11,NW,312,0.0,0.0,52,0.00,,---,0.00,VWS V14.01,2013-04-02 03:04:00,
2013-04-01 23:05:00,36.6,20.6,30.11,NW,312,0.0,0.0,52,0.00,,---,0.00,VWS V14.01,2013-04-02 03:05:00,
2013-04-01 23:06:00,36.6,20.6,30.11,NW,312,0.0,0.0,52,0.00,,---,0.00,VWS V14.01,2013-04-02 03:06:00,
2013-04-01 23:07:00,36.5,20.6,30.11,NW,312,0.0,0.0,52,0.00,,---,0.00,VWS V14.01,2013-04-02 03:07:00,
2013-04-01 23:08:00,36.5,20.6,30.11,NW,312,0.0,0.0,52,0.00,,---,0.00,VWS V14.01,2013-04-02 03:08:00,
2013-04-01 23:09:00,36.4,20.5,30.11,NW,312,0.0,0.0,52,0.00,,---,0.00,VWS V14.01,2013-04-02 03:09:00,
2013-04-01 23:10:00,36.3,20.4,30.11,NW,312,0.0,0.0,52,0.00,,---,0.00,VWS V14.01,2013-04-02 03:10:00,
2013-04-01 23:11:00,36.3,20.4,30.11,NW,312,0.0,0.0,52,0.00,,---,0.00,VWS V14.01,2013-04-02 03:11:00,
2013-04-01 23:12:00,36.2,20.3,30.11,NW,312,0.0,0.0,52,0.00,,---,0.00,VWS V14.01,2013-04-02 03:12:00,
2013-04-01 23:13:00,36.2,20.3,30.11,NW,312,0.0,0.0,52,0.00,,---,0.00,VWS V14.01,2013-04-02 03:13:00,
2013-04-01 23:14:00,36.2,20.3,30.11,NW,312,0.0,0.0,52,0.00,,---,0.00,VWS V14.01,2013-04-02 03:14:00,
2013-04-01 23:15:00,36.1,20.2,30.12,NW,312,0.0,0.0,52,0.00,,---,0.00,VWS V14.01,2013-04-02 03:15:00,
2013-04-01 23:16:00,36.1,20.2,30.12,NW,312,0.0,0.0,52,0.00,,---,0.00,VWS V14.01,2013-04-02 03:16:00,
2013-04-01 23:17:00,36.1,20.2,30.12,NW,312,0.0,0.0,52,0.00,,---,0.00,VWS V14.01,2013-04-02 03:17:00,
2013-04-01 23:18:00,36.1,20.2,30.12,NW,312,0.0,1.0,52,0.00,,---,0.00,VWS V14.01,2013-04-02 03:18:00,
2013-04-01 23:19:00,36.1,20.2,30.12,NW,312,0.0,0.0,52,0.00,,---,0.00,VWS V14.01,2013-04-02 03:19:00,
2013-04-01 23:20:00,36.1,20.6,30.12,NW,312,0.0,0.0,53,0.00,,---,0.00,VWS V14.01,2013-04-02 03:20:00,
2013-04-01 23:21:00,36.1,20.6,30.12,NW,312,0.0,0.0,53,0.00,,---,0.00,VWS V14.01,2013-04-02 03:21:00,
2013-04-01 23:22:00,36.1,20.6,30.12,NW,312,0.0,0.0,53,0.00,,---,0.00,VWS V14.01,2013-04-02 03:22:00,
2013-04-01 23:23:00,36.1,20.6,30.12,NW,312,0.0,0.0,53,0.00,,---,0.00,VWS V14.01,2013-04-02 03:23:00,
2013-04-01 23:24:00,36.0,20.5,30.12,NW,312,0.0,0.0,53,0.00,,---,0.00,VWS V14.01,2013-04-02 03:24:00,
2013-04-01 23:25:00,36.0,20.5,30.12,NW,312,0.0,0.0,53,0.00,,---,0.00,VWS V14.01,2013-04-02 03:25:00,
2013-04-01 23:26:00,36.0,20.5,30.12,NW,312,0.0,0.0,53,0.00,,---,0.00,VWS V14.01,2013-04-02 03:26:00,
2013-04-01 23:27:00,36.0,20.5,30.12,NW,312,0.0,0.0,53,0.00,,---,0.00,VWS V14.01,2013-04-02 03:27:00,
2013-04-01 23:28:00,36.0,20.5,30.12,NW,312,0.0,0.0,53,0.00,,---,0.00,VWS V14.01,2013-04-02 03:28:00,
2013-04-01 23:29:00,35.9,20.5,30.12,NW,312,0.0,0.0,53,0.00,,---,0.00,VWS V14.01,2013-04-02 03:29:00,
2013-04-01 23:30:00,35.9,20.0,30.12,NNE,20,0.0,3.0,52,0.00,,---,0.00,VWS V14.01,2013-04-02 03:30:00,
2013-04-01 23:31:00,35.9,20.0,30.12,NNE,20,0.0,3.0,52,0.00,,---,0.00,VWS V14.01,2013-04-02 03:31:00,
2013-04-01 23:32:00,35.9,20.0,30.12,NW,310,0.0,2.0,52,0.00,,---,0.00,VWS V14.01,2013-04-02 03:32:00,
2013-04-01 23:33:00,35.9,20.0,30.12,NW,310,0.0,1.0,52,0.00,,---,0.00,VWS V14.01,2013-04-02 03:33:00,
2013-04-01 23:34:00,36.0,20.1,30.12,NW,310,0.0,0.0,52,0.00,,---,0.00,VWS V14.01,2013-04-02 03:34:00,
2013-04-01 23:35:00,36.0,20.1,30.12,NW,310,0.0,0.0,52,0.00,,---,0.00,VWS V14.01,2013-04-02 03:35:00,
2013-04-01 23:36:00,36.0,20.1,30.12,NW,310,0.0,0.0,52,0.00,,---,0.00,VWS V14.01,2013-04-02 03:36:00,
2013-04-01 23:37:00,36.0,20.1,30.12,NW,310,0.0,0.0,52,0.00,,---,0.00,VWS V14.01,2013-04-02 03:37:00,
2013-04-01 23:38:00,36.0,20.1,30.12,NW,310,0.0,0.0,52,0.00,,---,0.00,VWS V14.01,2013-04-02 03:38:00,
2013-04-01 23:39:00,36.0,20.1,30.12,NW,310,0.0,1.0,52,0.00,,---,0.00,VWS V14.01,2013-04-02 03:39:00,
2013-04-01 23:40:00,35.9,20.0,30.12,NW,310,0.0,0.0,52,0.00,,---,0.00,VWS V14.01,2013-04-02 03:40:00,
2013-04-01 23:41:00,35.9,20.0,30.12,NW,310,0.0,0.0,52,0.00,,---,0.00,VWS V14.01,2013-04-02 03:41:00,
2013-04-01 23:42:00,35.9,20.0,30.12,NW,310,0.0,1.0,52,0.00,,---,0.00,VWS V14.01,2013-04-02 03:42:00,
2013-04-01 23:43:00,35.9,20.0,30.12,NW,310,1.0,1.0,52,0.00,,---,0.00,VWS V14.01,2013-04-02 03:43:00,
2013-04-01 23:44:00,35.9,20.0,30.12,NW,310,0.0,1.0,52,0.00,,---,0.00,VWS V14.01,2013-04-02 03:44:00,
2013-04-01 23:45:00,35.9,20.5,30.12,NW,310,0.0,0.0,53,0.00,,---,0.00,VWS V14.01,2013-04-02 03:45:00,
2013-04-01 23:46:00,35.9,20.5,30.12,NW,310,0.0,0.0,53,0.00,,---,0.00,VWS V14.01,2013-04-02 03:46:00,
2013-04-01 23:47:00,35.9,20.5,30.12,NW,310,0.0,1.0,53,0.00,,---,0.00,VWS V14.01,2013-04-02 03:47:00,
2013-04-01 23:48:00,35.9,20.5,30.12,NW,310,0.0,0.0,53,0.00,,---,0.00,VWS V14.01,2013-04-02 03:48:00,
2013-04-01 23:49:00,35.9,20.5,30.12,NW,310,0.0,0.0,53,0.00,,---,0.00,VWS V14.01,2013-04-02 03:49:00,
2013-04-01 23:50:00,35.8,20.4,30.12,NW,310,0.0,0.0,53,0.00,,---,0.00,VWS V14.01,2013-04-02 03:50:00,
2013-04-01 23:51:00,35.8,20.4,30.12,NW,310,0.0,0.0,53,0.00,,---,0.00,VWS V14.01,2013-04-02 03:51:00,
2013-04-01 23:52:00,35.8,20.4,30.12,NW,310,0.0,0.0,53,0.00,,---,0.00,VWS V14.01,2013-04-02 03:52:00,
2013-04-01 23:53:00,35.8,20.4,30.12,NW,310,0.0,1.0,53,0.00,,---,0.00,VWS V14.01,2013-04-02 03:53:00,
2013-04-01 23:54:00,35.7,20.3,30.12,NW,310,0.0,0.0,53,0.00,,---,0.00,VWS V14.01,2013-04-02 03:54:00,
2013-04-01 23:55:00,35.7,20.3,30.12,NW,310,0.0,0.0,53,0.00,,---,0.00,VWS V14.01,2013-04-02 03:55:00,
2013-04-01 23:56:00,35.7,20.3,30.12,NW,310,0.0,0.0,53,0.00,,---,0.00,VWS V14.01,2013-04-02 03:56:00,
2013-04-01 23:57:00,35.7,20.3,30.12,NW,310,0.0,1.0,53,0.00,,---,0.00,VWS V14.01,2013-04-02 03:57:00,
2013-04-01 23:58:00,35.7,20.7,30.12,NW,310,0.0,0.0,54,0.00,,---,0.00,VWS V14.01,2013-04-02 03:58:00,
2013-04-01 23:59:00,35.6,20.6,30.12,NNW,331,1.0,2.0,54,0.00,,---,0.00,VWS V14.01,2013-04-02 03:59:00,